Time,TemperatureF,DewpointF,PressureIn,WindDirection,WindDirectionDegrees,WindSpeedMPH,WindSpeedGustMPH,Humidity,HourlyPrecipIn,Conditions,Clouds,dailyrainin,SoftwareType,DateUTC
2013-01-17 00:00:00,27.9,26.4,29.79,WNW,291,0.0,0.0,94,0.00,,SKC,0.01,VWS V13.01,2013-01-17 05:00:00,
2013-01-17 00:01:00,27.8,26.3,29.79,WNW,292,0.0,0.0,94,0.00,,SKC,0.00,VWS V13.01,2013-01-17 05:01:00,
2013-01-17 00:02:00,27.8,26.3,29.79,WNW,292,0.0,0.0,94,0.00,,SKC,0.00,VWS V13.01,2013-01-17 05:02:00,
2013-01-17 00:03:00,27.8,26.3,29.79,WNW,292,0.0,0.0,94,0.00,,SKC,0.00,VWS V13.01,2013-01-17 05:03:00,
2013-01-17 00:04:00,28.0,26.5,29.79,WNW,292,0.0,0.0,94,0.00,,SKC,0.01,VWS V13.01,2013-01-17 05:04:00,
2013-01-17 00:05:00,27.7,25.9,29.79,WNW,292,0.0,0.0,93,0.00,,SKC,0.00,VWS V13.01,2013-01-17 05:05:00,
2013-01-17 00:06:00,27.6,25.8,29.79,WNW,292,0.0,0.0,93,0.00,,SKC,0.00,VWS V13.01,2013-01-17 05:06:00,
2013-01-17 00:07:00,27.5,25.8,29.80,WNW,292,0.0,0.0,93,0.00,,SKC,0.00,VWS V13.01,2013-01-17 05:07:00,
2013-01-17 00:08:00,27.5,25.8,29.79,WNW,292,0.0,0.0,93,0.00,,SKC,0.00,VWS V13.01,2013-01-17 05:08:00,
2013-01-17 00:09:00,27.9,26.4,29.79,WNW,292,0.0,0.0,94,0.00,,SKC,0.01,VWS V13.01,2013-01-17 05:09:00,
2013-01-17 00:10:00,27.3,25.8,29.79,WNW,291,0.0,0.0,94,0.00,,SKC,0.00,VWS V13.01,2013-01-17 05:10:00,
2013-01-17 00:11:00,27.2,25.7,29.79,WNW,292,0.0,0.0,94,0.00,,SKC,0.00,VWS V13.01,2013-01-17 05:11:00,
2013-01-17 00:12:00,27.2,25.7,29.80,WNW,291,0.0,0.0,94,0.00,,SKC,0.00,VWS V13.01,2013-01-17 05:12:00,
2013-01-17 00:13:00,27.2,25.7,29.80,WNW,292,0.0,0.0,94,0.00,,SKC,0.00,VWS V13.01,2013-01-17 05:13:00,
2013-01-17 00:14:00,27.7,26.2,29.79,WNW,292,0.0,0.0,94,0.00,,SKC,0.00,VWS V13.01,2013-01-17 05:14:00,
2013-01-17 00:15:00,27.1,25.6,29.80,WNW,292,0.0,0.0,94,0.00,,SKC,0.00,VWS V13.01,2013-01-17 05:15:00,
2013-01-17 00:16:00,27.0,25.2,29.80,WNW,292,0.0,0.0,93,0.00,,SKC,0.00,VWS V13.01,2013-01-17 05:16:00,
2013-01-17 00:17:00,26.9,25.1,29.80,WNW,292,0.0,0.0,93,0.00,,SKC,0.00,VWS V13.01,2013-01-17 05:17:00,
2013-01-17 00:18:00,26.9,25.1,29.80,WNW,291,0.0,0.0,93,0.00,,SKC,0.00,VWS V13.01,2013-01-17 05:18:00,
2013-01-17 00:19:00,27.4,25.6,29.79,WNW,292,0.0,0.0,93,0.00,,SKC,0.00,VWS V13.01,2013-01-17 05:19:00,
2013-01-17 00:20:00,26.8,25.0,29.80,WNW,292,0.0,0.0,93,0.00,,SKC,0.00,VWS V13.01,2013-01-17 05:20:00,
2013-01-17 00:21:00,26.8,25.0,29.80,WNW,291,0.0,0.0,93,0.00,,SKC,0.00,VWS V13.01,2013-01-17 05:21:00,
2013-01-17 00:22:00,26.7,25.0,29.80,WNW,292,0.0,0.0,93,0.00,,SKC,0.00,VWS V13.01,2013-01-17 05:22:00,
2013-01-17 00:23:00,26.7,25.0,29.80,WNW,292,0.0,0.0,93,0.00,,SKC,0.00,VWS V13.01,2013-01-17 05:23:00,
2013-01-17 00:24:00,27.1,25.6,29.80,WNW,292,0.0,0.0,94,0.00,,SKC,0.00,VWS V13.01,2013-01-17 05:24:00,
2013-01-17 00:25:00,26.7,25.2,29.80,WNW,292,0.0,0.0,94,0.00,,SKC,0.00,VWS V13.01,2013-01-17 05:25:00,
2013-01-17 00:26:00,26.7,25.2,29.80,WNW,291,0.0,0.0,94,0.00,,SKC,0.00,VWS V13.01,2013-01-17 05:26:00,
2013-01-17 00:27:00,26.7,25.2,29.80,WNW,292,0.0,0.0,94,0.00,,SKC,0.00,VWS V13.01,2013-01-17 05:27:00,
2013-01-17 00:28:00,26.7,25.2,29.80,WNW,292,0.0,0.0,94,0.00,,SKC,0.00,VWS V13.01,2013-01-17 05:28:00,
2013-01-17 00:29:00,26.8,25.0,29.80,WNW,292,0.0,0.0,93,0.00,,SKC,0.00,VWS V13.01,2013-01-17 05:29:00,
2013-01-17 00:30:00,26.7,25.2,29.80,WNW,291,0.0,0.0,94,0.00,,SKC,0.00,VWS V13.01,2013-01-17 05:30:00,
2013-01-17 00:31:00,26.7,25.2,29.80,WNW,291,0.0,0.0,94,0.00,,SKC,0.00,VWS V13.01,2013-01-17 05:31:00,
2013-01-17 00:32:00,26.7,25.2,29.80,WNW,291,0.0,0.0,94,0.00,,SKC,0.00,VWS V13.01,2013-01-17 05:32:00,
2013-01-17 00:33:00,26.7,25.2,29.80,WNW,291,0.0,0.0,94,0.00,,SKC,0.00,VWS V13.01,2013-01-17 05:33:00,
2013-01-17 00:34:00,26.7,25.0,29.80,WNW,292,0.0,0.0,93,0.00,,SKC,0.00,VWS V13.01,2013-01-17 05:34:00,
2013-01-17 00:35:00,26.6,24.9,29.80,WNW,292,0.0,0.0,93,0.00,,SKC,0.00,VWS V13.01,2013-01-17 05:35:00,
2013-01-17 00:36:00,26.6,24.9,29.80,WNW,292,0.0,0.0,93,0.00,,SKC,0.00,VWS V13.01,2013-01-17 05:36:00,
2013-01-17 00:37:00,26.5,24.8,29.80,WNW,292,0.0,0.0,93,0.00,,SKC,0.00,VWS V13.01,2013-01-17 05:37:00,
2013-01-17 00:38:00,26.5,24.8,29.80,WNW,292,0.0,0.0,93,0.00,,SKC,0.00,VWS V13.01,2013-01-17 05:38:00,
2013-01-17 00:39:00,26.7,25.2,29.80,WNW,292,0.0,0.0,94,0.00,,SKC,0.00,VWS V13.01,2013-01-17 05:39:00,
2013-01-17 00:40:00,26.5,24.8,29.80,WNW,292,0.0,0.0,93,0.00,,SKC,0.00,VWS V13.01,2013-01-17 05:40:00,
2013-01-17 00:41:00,26.5,24.8,29.80,WNW,291,0.0,0.0,93,0.00,,SKC,0.00,VWS V13.01,2013-01-17 05:41:00,
2013-01-17 00:42:00,26.6,24.9,29.80,WNW,292,0.0,0.0,93,0.00,,SKC,0.00,VWS V13.01,2013-01-17 05:42:00,
2013-01-17 00:43:00,26.6,24.9,29.80,WNW,292,0.0,0.0,93,0.00,,SKC,0.00,VWS V13.01,2013-01-17 05:43:00,
2013-01-17 00:44:00,26.6,25.1,29.80,WNW,291,0.0,0.0,94,0.00,,SKC,0.00,VWS V13.01,2013-01-17 05:44:00,
2013-01-17 00:45:00,26.6,24.9,29.80,WNW,292,0.0,0.0,93,0.00,,SKC,0.00,VWS V13.01,2013-01-17 05:45:00,
2013-01-17 00:46:00,26.6,24.9,29.80,WNW,292,0.0,0.0,93,0.00,,SKC,0.00,VWS V13.01,2013-01-17 05:46:00,
2013-01-17 00:47:00,26.6,24.9,29.80,WNW,292,0.0,0.0,93,0.00,,SKC,0.00,VWS V13.01,2013-01-17 05:47:00,
2013-01-17 00:48:00,26.6,24.9,29.80,WNW,292,0.0,0.0,93,0.00,,SKC,0.00,VWS V13.01,2013-01-17 05:48:00,
2013-01-17 00:49:00,26.5,24.8,29.80,WNW,292,0.0,0.0,93,0.00,,SKC,0.00,VWS V13.01,2013-01-17 05:49:00,
2013-01-17 00:50:00,26.6,24.9,29.80,WNW,291,0.0,0.0,93,0.00,,SKC,0.00,VWS V13.01,2013-01-17 05:50:00,
2013-01-17 00:51:00,26.6,24.9,29.80,WNW,292,0.0,0.0,93,0.00,,SKC,0.00,VWS V13.01,2013-01-17 05:51:00,
2013-01-17 00:52:00,26.6,24.9,29.80,WNW,291,0.0,0.0,93,0.00,,SKC,0.00,VWS V13.01,2013-01-17 05:52:00,
2013-01-17 00:53:00,26.5,24.8,29.80,WNW,292,0.0,0.0,93,0.00,,SKC,0.00,VWS V13.01,2013-01-17 05:53:00,
2013-01-17 00:54:00,26.6,24.9,29.80,WNW,292,0.0,0.0,93,0.00,,SKC,0.00,VWS V13.01,2013-01-17 05:54:00,
2013-01-17 00:55:00,26.5,24.8,29.80,WNW,292,0.0,0.0,93,0.00,,SKC,0.00,VWS V13.01,2013-01-17 05:55:00,
2013-01-17 00:56:00,26.4,24.6,29.80,WNW,292,0.0,0.0,93,0.00,,SKC,0.00,VWS V13.01,2013-01-17 05:56:00,
2013-01-17 00:57:00,26.4,24.6,29.80,WNW,291,0.0,0.0,93,0.00,,SKC,0.00,VWS V13.01,2013-01-17 05:57:00,
2013-01-17 00:58:00,26.3,24.6,29.80,WNW,292,0.0,0.0,93,0.00,,SKC,0.00,VWS V13.01,2013-01-17 05:58:00,
2013-01-17 00:59:00,26.6,24.9,29.80,WNW,291,0.0,0.0,93,0.00,,SKC,0.00,VWS V13.01,2013-01-17 05:59:00,
2013-01-17 01:00:00,26.3,24.8,29.80,WNW,292,0.0,0.0,94,0.00,,SKC,0.00,VWS V13.01,2013-01-17 06:00:00,
2013-01-17 01:01:00,26.3,24.8,29.80,WNW,292,0.0,0.0,94,0.00,,SKC,0.00,VWS V13.01,2013-01-17 06:01:00,
2013-01-17 01:02:00,26.2,24.7,29.80,WNW,292,0.0,0.0,94,0.00,,SKC,0.00,VWS V13.01,2013-01-17 06:02:00,
2013-01-17 01:03:00,26.2,24.7,29.80,WNW,292,0.0,0.0,94,0.00,,SKC,0.00,VWS V13.01,2013-01-17 06:03:00,
2013-01-17 01:04:00,26.5,24.8,29.80,WNW,292,0.0,0.0,93,0.00,,SKC,0.00,VWS V13.01,2013-01-17 06:04:00,
2013-01-17 01:05:00,26.2,24.7,29.80,WNW,292,0.0,0.0,94,0.00,,SKC,0.00,VWS V13.01,2013-01-17 06:05:00,
2013-01-17 01:06:00,26.2,24.7,29.79,WNW,291,0.0,0.0,94,0.00,,SKC,0.00,VWS V13.01,2013-01-17 06:06:00,
2013-01-17 01:07:00,26.2,24.7,29.79,WNW,291,0.0,0.0,94,0.00,,SKC,0.00,VWS V13.01,2013-01-17 06:07:00,
2013-01-17 01:08:00,26.1,24.6,29.79,WNW,292,0.0,0.0,94,0.00,,SKC,0.00,VWS V13.01,2013-01-17 06:08:00,
2013-01-17 01:09:00,26.1,24.6,29.79,WNW,292,0.0,0.0,94,0.00,,SKC,0.00,VWS V13.01,2013-01-17 06:09:00,
2013-01-17 01:10:00,26.0,24.5,29.79,WNW,291,0.0,0.0,94,0.00,,SKC,0.00,VWS V13.01,2013-01-17 06:10:00,
2013-01-17 01:11:00,26.3,24.8,29.80,WNW,292,0.0,0.0,94,0.00,,SKC,0.00,VWS V13.01,2013-01-17 06:11:00,
2013-01-17 01:12:00,26.0,24.3,29.79,WNW,292,0.0,0.0,93,0.00,,SKC,0.00,VWS V13.01,2013-01-17 06:12:00,
2013-01-17 01:13:00,25.9,24.2,29.79,WNW,291,0.0,0.0,93,0.00,,SKC,0.00,VWS V13.01,2013-01-17 06:13:00,
2013-01-17 01:14:00,25.9,24.2,29.79,WNW,292,0.0,0.0,93,0.00,,SKC,0.00,VWS V13.01,2013-01-17 06:14:00,
2013-01-17 01:15:00,25.9,24.2,29.79,WNW,292,0.0,0.0,93,0.00,,SKC,0.00,VWS V13.01,2013-01-17 06:15:00,
2013-01-17 01:16:00,26.2,24.7,29.79,WNW,291,0.0,0.0,94,0.00,,SKC,0.00,VWS V13.01,2013-01-17 06:16:00,
2013-01-17 01:17:00,25.8,24.1,29.79,WNW,292,0.0,0.0,93,0.00,,SKC,0.00,VWS V13.01,2013-01-17 06:17:00,
2013-01-17 01:18:00,25.7,24.0,29.79,WNW,292,0.0,0.0,93,0.00,,SKC,0.00,VWS V13.01,2013-01-17 06:18:00,
2013-01-17 01:19:00,25.7,24.0,29.80,WNW,291,0.0,0.0,93,0.00,,SKC,0.00,VWS V13.01,2013-01-17 06:19:00,
2013-01-17 01:20:00,25.6,23.9,29.80,WNW,292,0.0,0.0,93,0.00,,SKC,0.00,VWS V13.01,2013-01-17 06:20:00,
2013-01-17 01:21:00,26.0,24.3,29.79,WNW,291,0.0,0.0,93,0.00,,SKC,0.00,VWS V13.01,2013-01-17 06:21:00,
2013-01-17 01:22:00,25.6,23.9,29.80,WNW,291,0.0,0.0,93,0.00,,SKC,0.00,VWS V13.01,2013-01-17 06:22:00,
2013-01-17 01:23:00,25.6,23.9,29.80,WNW,292,0.0,0.0,93,0.00,,SKC,0.00,VWS V13.01,2013-01-17 06:23:00,
2013-01-17 01:24:00,25.7,24.0,29.80,WNW,292,0.0,0.0,93,0.00,,SKC,0.00,VWS V13.01,2013-01-17 06:24:00,
2013-01-17 01:25:00,25.8,24.1,29.80,WNW,291,0.0,0.0,93,0.00,,SKC,0.00,VWS V13.01,2013-01-17 06:25:00,
2013-01-17 01:26:00,25.8,24.1,29.79,WNW,292,0.0,0.0,93,0.00,,SKC,0.00,VWS V13.01,2013-01-17 06:26:00,
2013-01-17 01:27:00,26.1,24.6,29.80,WNW,292,0.0,0.0,94,0.00,,SKC,0.00,VWS V13.01,2013-01-17 06:27:00,
2013-01-17 01:28:00,26.3,24.8,29.80,WNW,291,0.0,0.0,94,0.00,,SKC,0.00,VWS V13.01,2013-01-17 06:28:00,
2013-01-17 01:29:00,26.6,25.1,29.80,WNW,291,0.0,0.0,94,0.00,,SKC,0.00,VWS V13.01,2013-01-17 06:29:00,
2013-01-17 01:30:00,26.7,25.2,29.80,WNW,291,0.0,0.0,94,0.00,,SKC,0.00,VWS V13.01,2013-01-17 06:30:00,
2013-01-17 01:31:00,25.6,23.9,29.80,WNW,292,0.0,0.0,93,0.00,,SKC,0.00,VWS V13.01,2013-01-17 06:31:00,
2013-01-17 01:32:00,27.3,25.8,29.80,West,273,0.0,0.0,94,0.00,,SKC,0.00,VWS V13.01,2013-01-17 06:32:00,
2013-01-17 01:33:00,27.6,26.1,29.80,WNW,288,0.0,0.0,94,0.00,,SKC,0.00,VWS V13.01,2013-01-17 06:33:00,
2013-01-17 01:34:00,27.8,26.3,29.80,WNW,288,0.0,0.0,94,0.00,,SKC,0.00,VWS V13.01,2013-01-17 06:34:00,
2013-01-17 01:35:00,28.0,26.5,29.80,WSW,252,0.0,0.0,94,0.00,,SKC,0.00,VWS V13.01,2013-01-17 06:35:00,
2013-01-17 01:36:00,25.9,24.2,29.80,WNW,292,0.0,0.0,93,0.00,,SKC,0.00,VWS V13.01,2013-01-17 06:36:00,
2013-01-17 01:37:00,28.5,27.0,29.80,West,261,0.0,0.0,94,0.00,,SKC,0.00,VWS V13.01,2013-01-17 06:37:00,
2013-01-17 01:38:00,28.8,27.3,29.80,WSW,248,0.0,0.0,94,0.00,,SKC,0.00,VWS V13.01,2013-01-17 06:38:00,
2013-01-17 01:39:00,28.9,27.4,29.80,WSW,245,0.0,0.0,94,0.00,,SKC,0.00,VWS V13.01,2013-01-17 06:39:00,
2013-01-17 01:40:00,29.0,27.5,29.80,WSW,244,0.0,0.0,94,0.00,,SKC,0.00,VWS V13.01,2013-01-17 06:40:00,
2013-01-17 01:41:00,27.0,25.5,29.80,WNW,290,0.0,0.0,94,0.00,,SKC,0.00,VWS V13.01,2013-01-17 06:41:00,
2013-01-17 01:42:00,29.2,27.7,29.80,WSW,242,0.0,0.0,94,0.00,,SKC,0.00,VWS V13.01,2013-01-17 06:42:00,
2013-01-17 01:43:00,29.3,27.8,29.80,WSW,243,0.0,0.0,94,0.00,,SKC,0.00,VWS V13.01,2013-01-17 06:43:00,
2013-01-17 01:44:00,29.4,27.9,29.80,West,260,0.0,0.0,94,0.00,,SKC,0.00,VWS V13.01,2013-01-17 06:44:00,
2013-01-17 01:45:00,29.5,28.0,29.80,West,260,0.0,0.0,94,0.00,,SKC,0.00,VWS V13.01,2013-01-17 06:45:00,
2013-01-17 01:46:00,28.3,26.8,29.80,WSW,248,0.0,0.0,94,0.00,,SKC,0.00,VWS V13.01,2013-01-17 06:46:00,
2013-01-17 01:47:00,29.8,28.3,29.80,West,267,0.0,0.0,94,0.00,,SKC,0.00,VWS V13.01,2013-01-17 06:47:00,
2013-01-17 01:48:00,29.9,28.4,29.80,West,271,0.0,0.0,94,0.00,,SKC,0.00,VWS V13.01,2013-01-17 06:48:00,
2013-01-17 01:49:00,30.0,28.5,29.80,West,271,0.0,0.0,94,0.00,,SKC,0.00,VWS V13.01,2013-01-17 06:49:00,
2013-01-17 01:50:00,30.1,28.6,29.80,West,271,0.0,0.0,94,0.00,,SKC,0.00,VWS V13.01,2013-01-17 06:50:00,
2013-01-17 01:51:00,29.1,27.6,29.80,WSW,244,0.0,0.0,94,0.00,,SKC,0.00,VWS V13.01,2013-01-17 06:51:00,
2013-01-17 01:52:00,30.2,28.7,29.80,SW,220,0.0,0.0,94,0.00,,SKC,0.00,VWS V13.01,2013-01-17 06:52:00,
2013-01-17 01:53:00,30.2,28.7,29.80,SW,222,0.0,0.0,94,0.00,,SKC,0.00,VWS V13.01,2013-01-17 06:53:00,
2013-01-17 01:54:00,30.2,28.7,29.80,SW,222,0.0,0.0,94,0.00,,SKC,0.00,VWS V13.01,2013-01-17 06:54:00,
2013-01-17 01:55:00,30.2,28.7,29.80,WSW,240,0.0,0.0,94,0.00,,SKC,0.00,VWS V13.01,2013-01-17 06:55:00,
2013-01-17 01:56:00,29.6,28.1,29.80,West,260,0.0,0.0,94,0.00,,SKC,0.00,VWS V13.01,2013-01-17 06:56:00,
2013-01-17 01:57:00,30.3,28.8,29.80,SW,230,0.0,0.0,94,0.00,,SKC,0.00,VWS V13.01,2013-01-17 06:57:00,
2013-01-17 01:58:00,30.3,28.8,29.80,SW,233,0.0,0.0,94,0.00,,SKC,0.00,VWS V13.01,2013-01-17 06:58:00,
2013-01-17 01:59:00,30.3,28.8,29.79,WSW,253,0.0,0.0,94,0.00,,SKC,0.00,VWS V13.01,2013-01-17 06:59:00,
2013-01-17 02:00:00,30.4,28.9,29.79,West,259,0.0,0.0,94,0.00,,SKC,0.00,VWS V13.01,2013-01-17 07:00:00,
2013-01-17 02:01:00,30.1,28.6,29.80,West,271,0.0,0.0,94,0.00,,SKC,0.00,VWS V13.01,2013-01-17 07:01:00,
2013-01-17 02:02:00,30.5,29.0,29.79,West,260,0.0,0.0,94,0.00,,SKC,0.00,VWS V13.01,2013-01-17 07:02:00,
2013-01-17 02:03:00,30.5,29.0,29.79,West,260,0.0,0.0,94,0.00,,SKC,0.00,VWS V13.01,2013-01-17 07:03:00,
2013-01-17 02:04:00,30.5,29.0,29.79,SW,236,0.0,0.0,94,0.00,,SKC,0.00,VWS V13.01,2013-01-17 07:04:00,
2013-01-17 02:05:00,30.5,29.0,29.79,WNW,283,0.0,0.0,94,0.00,,SKC,0.00,VWS V13.01,2013-01-17 07:05:00,
2013-01-17 02:06:00,30.3,28.8,29.80,WSW,240,0.0,0.0,94,0.00,,SKC,0.00,VWS V13.01,2013-01-17 07:06:00,
2013-01-17 02:07:00,30.6,29.1,29.80,WNW,283,0.0,0.0,94,0.00,,SKC,0.00,VWS V13.01,2013-01-17 07:07:00,
2013-01-17 02:08:00,30.6,29.1,29.80,WSW,248,0.0,0.0,94,0.00,,SKC,0.00,VWS V13.01,2013-01-17 07:08:00,
2013-01-17 02:09:00,30.6,29.1,29.80,WSW,257,0.0,0.0,94,0.00,,SKC,0.00,VWS V13.01,2013-01-17 07:09:00,
2013-01-17 02:10:00,30.7,29.2,29.80,WSW,244,0.0,0.0,94,0.00,,SKC,0.00,VWS V13.01,2013-01-17 07:10:00,
2013-01-17 02:11:00,30.4,28.9,29.79,WSW,242,0.0,0.0,94,0.00,,SKC,0.00,VWS V13.01,2013-01-17 07:11:00,
2013-01-17 02:12:00,30.8,29.3,29.80,SW,236,0.0,0.0,94,0.00,,SKC,0.00,VWS V13.01,2013-01-17 07:12:00,
2013-01-17 02:13:00,30.8,29.3,29.80,SSW,209,0.0,0.0,94,0.00,,SKC,0.00,VWS V13.01,2013-01-17 07:13:00,
2013-01-17 02:14:00,30.8,29.3,29.80,West,261,0.0,0.0,94,0.00,,SKC,0.00,VWS V13.01,2013-01-17 07:14:00,
2013-01-17 02:15:00,30.8,29.3,29.80,WNW,290,0.0,0.0,94,0.00,,SKC,0.00,VWS V13.01,2013-01-17 07:15:00,
2013-01-17 02:16:00,30.5,29.0,29.80,SW,232,0.0,0.0,94,0.00,,SKC,0.00,VWS V13.01,2013-01-17 07:16:00,
2013-01-17 02:17:00,30.8,29.3,29.80,SW,236,0.0,0.0,94,0.00,,SKC,0.00,VWS V13.01,2013-01-17 07:17:00,
2013-01-17 02:18:00,30.9,29.4,29.80,WSW,252,0.0,0.0,94,0.00,,SKC,0.00,VWS V13.01,2013-01-17 07:18:00,
2013-01-17 02:19:00,30.8,29.0,29.80,WSW,252,0.0,0.0,93,0.00,,SKC,0.00,VWS V13.01,2013-01-17 07:19:00,
2013-01-17 02:20:00,30.8,29.0,29.80,SW,232,0.0,0.0,93,0.00,,SKC,0.00,VWS V13.01,2013-01-17 07:20:00,
2013-01-17 02:21:00,30.8,29.3,29.80,SW,219,0.0,0.0,94,0.00,,SKC,0.00,VWS V13.01,2013-01-17 07:21:00,
2013-01-17 02:22:00,30.8,29.0,29.80,WSW,256,0.0,0.0,93,0.00,,SKC,0.00,VWS V13.01,2013-01-17 07:22:00,
2013-01-17 02:23:00,30.9,29.1,29.80,West,268,0.0,0.0,93,0.00,,SKC,0.00,VWS V13.01,2013-01-17 07:23:00,
2013-01-17 02:24:00,30.9,29.1,29.80,SW,228,0.0,0.0,93,0.00,,SKC,0.00,VWS V13.01,2013-01-17 07:24:00,
2013-01-17 02:25:00,30.9,29.1,29.80,WSW,237,0.0,0.0,93,0.00,,SKC,0.00,VWS V13.01,2013-01-17 07:25:00,
2013-01-17 02:26:00,30.8,29.3,29.80,WNW,290,0.0,0.0,94,0.00,,SKC,0.00,VWS V13.01,2013-01-17 07:26:00,
2013-01-17 02:27:00,31.0,29.2,29.80,West,278,0.0,0.0,93,0.00,,SKC,0.00,VWS V13.01,2013-01-17 07:27:00,
2013-01-17 02:28:00,31.0,29.2,29.80,West,277,0.0,0.0,93,0.00,,SKC,0.00,VWS V13.01,2013-01-17 07:28:00,
2013-01-17 02:29:00,31.0,29.2,29.80,WNW,287,0.0,0.0,93,0.00,,SKC,0.00,VWS V13.01,2013-01-17 07:29:00,
2013-01-17 02:30:00,31.0,29.2,29.80,WNW,287,0.0,0.0,93,0.00,,SKC,0.00,VWS V13.01,2013-01-17 07:30:00,
2013-01-17 02:31:00,30.8,29.0,29.80,West,261,0.0,0.0,93,0.00,,SKC,0.00,VWS V13.01,2013-01-17 07:31:00,
2013-01-17 02:32:00,31.0,29.2,29.80,South,190,0.0,0.0,93,0.00,,SKC,0.00,VWS V13.01,2013-01-17 07:32:00,
2013-01-17 02:33:00,31.0,29.2,29.80,WSW,250,0.0,0.0,93,0.00,,SKC,0.00,VWS V13.01,2013-01-17 07:33:00,
2013-01-17 02:34:00,31.0,29.2,29.81,SW,229,0.0,0.0,93,0.00,,SKC,0.00,VWS V13.01,2013-01-17 07:34:00,
2013-01-17 02:35:00,31.0,29.2,29.81,WSW,247,0.0,0.0,93,0.00,,SKC,0.00,VWS V13.01,2013-01-17 07:35:00,
2013-01-17 02:36:00,31.0,29.2,29.81,WSW,248,0.0,0.0,93,0.00,,SKC,0.00,VWS V13.01,2013-01-17 07:36:00,
2013-01-17 02:37:00,30.9,29.1,29.80,WNW,286,0.0,0.0,93,0.00,,SKC,0.00,VWS V13.01,2013-01-17 07:37:00,
2013-01-17 02:38:00,31.0,29.2,29.81,WNW,292,0.0,0.0,93,0.00,,SKC,0.00,VWS V13.01,2013-01-17 07:38:00,
2013-01-17 02:39:00,31.1,29.3,29.81,SW,229,0.0,0.0,93,0.00,,SKC,0.00,VWS V13.01,2013-01-17 07:39:00,
2013-01-17 02:40:00,31.1,29.3,29.81,West,273,0.0,0.0,93,0.00,,SKC,0.00,VWS V13.01,2013-01-17 07:40:00,
2013-01-17 02:41:00,31.1,29.3,29.80,West,271,0.0,0.0,93,0.00,,SKC,0.00,VWS V13.01,2013-01-17 07:41:00,
2013-01-17 02:42:00,31.0,29.2,29.80,South,190,0.0,0.0,93,0.00,,SKC,0.00,VWS V13.01,2013-01-17 07:42:00,
2013-01-17 02:43:00,31.0,29.2,29.80,West,267,0.0,0.0,93,0.00,,SKC,0.00,VWS V13.01,2013-01-17 07:43:00,
2013-01-17 02:44:00,31.1,29.0,29.80,WSW,242,0.0,0.0,92,0.00,,SKC,0.00,VWS V13.01,2013-01-17 07:44:00,
2013-01-17 02:45:00,31.0,29.0,29.80,SSW,208,0.0,0.0,92,0.00,,SKC,0.00,VWS V13.01,2013-01-17 07:45:00,
2013-01-17 02:46:00,31.0,29.0,29.80,SW,223,0.0,0.0,92,0.00,,SKC,0.00,VWS V13.01,2013-01-17 07:46:00,
2013-01-17 02:47:00,31.0,29.2,29.81,WSW,254,0.0,0.0,93,0.00,,SKC,0.00,VWS V13.01,2013-01-17 07:47:00,
2013-01-17 02:48:00,31.0,29.0,29.80,WNW,292,0.0,0.0,92,0.00,,SKC,0.00,VWS V13.01,2013-01-17 07:48:00,
2013-01-17 02:49:00,31.0,29.0,29.80,WSW,248,0.0,0.0,92,0.00,,SKC,0.00,VWS V13.01,2013-01-17 07:49:00,
2013-01-17 02:50:00,31.0,29.0,29.80,WSW,248,0.0,0.0,92,0.00,,SKC,0.00,VWS V13.01,2013-01-17 07:50:00,
2013-01-17 02:51:00,31.0,29.0,29.80,West,259,0.0,0.0,92,0.00,,SKC,0.00,VWS V13.01,2013-01-17 07:51:00,
2013-01-17 02:52:00,31.1,29.3,29.80,WNW,298,0.0,0.0,93,0.00,,SKC,0.00,VWS V13.01,2013-01-17 07:52:00,
2013-01-17 02:53:00,31.0,29.0,29.80,West,260,0.0,0.0,92,0.00,,SKC,0.00,VWS V13.01,2013-01-17 07:53:00,
2013-01-17 02:54:00,30.9,28.9,29.80,West,259,0.0,0.0,92,0.00,,SKC,0.00,VWS V13.01,2013-01-17 07:54:00,
2013-01-17 02:55:00,30.9,28.9,29.80,West,259,0.0,0.0,92,0.00,,SKC,0.00,VWS V13.01,2013-01-17 07:55:00,
2013-01-17 02:56:00,30.9,28.9,29.80,West,259,0.0,0.0,92,0.00,,SKC,0.00,VWS V13.01,2013-01-17 07:56:00,
2013-01-17 02:57:00,31.0,29.0,29.80,WSW,249,0.0,0.0,92,0.00,,SKC,0.00,VWS V13.01,2013-01-17 07:57:00,
2013-01-17 02:58:00,30.8,28.8,29.80,SSW,211,0.0,0.0,92,0.00,,SKC,0.00,VWS V13.01,2013-01-17 07:58:00,
2013-01-17 02:59:00,30.7,28.7,29.80,NW,323,0.0,0.0,92,0.00,,SKC,0.00,VWS V13.01,2013-01-17 07:59:00,
2013-01-17 03:00:00,30.7,28.7,29.80,NW,322,0.0,0.0,92,0.00,,SKC,0.00,VWS V13.01,2013-01-17 08:00:00,
2013-01-17 03:01:00,30.7,28.7,29.80,NW,323,0.0,0.0,92,0.00,,SKC,0.00,VWS V13.01,2013-01-17 08:01:00,
2013-01-17 03:02:00,31.0,29.0,29.80,West,260,0.0,0.0,92,0.00,,SKC,0.00,VWS V13.01,2013-01-17 08:02:00,
2013-01-17 03:03:00,30.6,28.6,29.80,NW,322,0.0,0.0,92,0.00,,SKC,0.00,VWS V13.01,2013-01-17 08:03:00,
2013-01-17 03:04:00,30.5,28.5,29.80,East,90,0.0,0.0,92,0.00,,SKC,0.00,VWS V13.01,2013-01-17 08:04:00,
2013-01-17 03:05:00,30.5,28.5,29.80,West,272,0.0,0.0,92,0.00,,SKC,0.00,VWS V13.01,2013-01-17 08:05:00,
2013-01-17 03:06:00,30.5,28.5,29.80,West,272,0.0,0.0,92,0.00,,SKC,0.00,VWS V13.01,2013-01-17 08:06:00,
2013-01-17 03:07:00,30.8,28.8,29.80,SSW,211,0.0,0.0,92,0.00,,SKC,0.00,VWS V13.01,2013-01-17 08:07:00,
2013-01-17 03:08:00,30.5,28.5,29.80,WNW,284,0.0,0.0,92,0.00,,SKC,0.00,VWS V13.01,2013-01-17 08:08:00,
2013-01-17 03:09:00,30.4,28.4,29.80,NW,322,0.0,0.0,92,0.00,,SKC,0.00,VWS V13.01,2013-01-17 08:09:00,
2013-01-17 03:10:00,30.4,28.4,29.80,NW,322,0.0,0.0,92,0.00,,SKC,0.00,VWS V13.01,2013-01-17 08:10:00,
2013-01-17 03:11:00,30.3,28.3,29.80,NW,322,0.0,0.0,92,0.00,,SKC,0.00,VWS V13.01,2013-01-17 08:11:00,
2013-01-17 03:12:00,30.3,28.3,29.80,NW,304,0.0,0.0,92,0.00,,SKC,0.00,VWS V13.01,2013-01-17 08:12:00,
2013-01-17 03:13:00,30.6,28.6,29.80,NW,323,0.0,0.0,92,0.00,,SKC,0.00,VWS V13.01,2013-01-17 08:13:00,
2013-01-17 03:14:00,30.3,28.3,29.79,West,268,0.0,0.0,92,0.00,,SKC,0.00,VWS V13.01,2013-01-17 08:14:00,
2013-01-17 03:15:00,30.2,28.2,29.79,North,355,0.0,0.0,92,0.00,,SKC,0.00,VWS V13.01,2013-01-17 08:15:00,
2013-01-17 03:16:00,30.2,28.2,29.79,North,10,0.0,0.0,92,0.00,,SKC,0.00,VWS V13.01,2013-01-17 08:16:00,
2013-01-17 03:17:00,30.2,28.2,29.79,SW,222,0.0,0.0,92,0.00,,SKC,0.00,VWS V13.01,2013-01-17 08:17:00,
2013-01-17 03:18:00,30.5,28.5,29.80,West,279,0.0,0.0,92,0.00,,SKC,0.00,VWS V13.01,2013-01-17 08:18:00,
2013-01-17 03:19:00,30.1,28.1,29.79,NW,311,0.0,0.0,92,0.00,,SKC,0.00,VWS V13.01,2013-01-17 08:19:00,
2013-01-17 03:20:00,30.1,28.1,29.79,NW,311,0.0,0.0,92,0.00,,SKC,0.00,VWS V13.01,2013-01-17 08:20:00,
2013-01-17 03:21:00,30.1,28.1,29.79,NW,311,0.0,0.0,92,0.00,,SKC,0.00,VWS V13.01,2013-01-17 08:21:00,
2013-01-17 03:22:00,30.0,28.0,29.79,NW,311,0.0,0.0,92,0.00,,SKC,0.00,VWS V13.01,2013-01-17 08:22:00,
2013-01-17 03:23:00,30.3,28.3,29.80,WSW,254,0.0,0.0,92,0.00,,SKC,0.00,VWS V13.01,2013-01-17 08:23:00,
2013-01-17 03:24:00,29.9,27.9,29.78,NW,311,0.0,0.0,92,0.00,,SKC,0.00,VWS V13.01,2013-01-17 08:24:00,
2013-01-17 03:25:00,29.9,27.9,29.78,NW,311,0.0,0.0,92,0.00,,SKC,0.00,VWS V13.01,2013-01-17 08:25:00,
2013-01-17 03:26:00,29.8,27.8,29.79,West,270,0.0,0.0,92,0.00,,SKC,0.00,VWS V13.01,2013-01-17 08:26:00,
2013-01-17 03:27:00,29.8,27.8,29.79,West,277,0.0,0.0,92,0.00,,SKC,0.00,VWS V13.01,2013-01-17 08:27:00,
2013-01-17 03:28:00,30.2,28.2,29.79,NW,319,0.0,0.0,92,0.00,,SKC,0.00,VWS V13.01,2013-01-17 08:28:00,
2013-01-17 03:29:00,29.7,27.7,29.79,WSW,253,0.0,0.0,92,0.00,,SKC,0.00,VWS V13.01,2013-01-17 08:29:00,
2013-01-17 03:30:00,29.7,27.7,29.79,WSW,253,0.0,0.0,92,0.00,,SKC,0.00,VWS V13.01,2013-01-17 08:30:00,
2013-01-17 03:31:00,29.7,27.7,29.78,West,264,0.0,0.0,92,0.00,,SKC,0.00,VWS V13.01,2013-01-17 08:31:00,
2013-01-17 03:32:00,29.7,27.7,29.78,West,264,0.0,0.0,92,0.00,,SKC,0.00,VWS V13.01,2013-01-17 08:32:00,
2013-01-17 03:33:00,29.9,27.9,29.78,NW,311,0.0,0.0,92,0.00,,SKC,0.00,VWS V13.01,2013-01-17 08:33:00,
2013-01-17 03:34:00,29.6,27.6,29.78,West,264,0.0,0.0,92,0.00,,SKC,0.00,VWS V13.01,2013-01-17 08:34:00,
2013-01-17 03:35:00,29.6,27.6,29.78,West,264,0.0,0.0,92,0.00,,SKC,0.00,VWS V13.01,2013-01-17 08:35:00,
2013-01-17 03:36:00,29.6,27.6,29.78,West,264,0.0,0.0,92,0.00,,SKC,0.00,VWS V13.01,2013-01-17 08:36:00,
2013-01-17 03:37:00,29.6,27.6,29.78,West,264,0.0,0.0,92,0.00,,SKC,0.00,VWS V13.01,2013-01-17 08:37:00,
2013-01-17 03:38:00,29.8,27.8,29.79,West,278,0.0,0.0,92,0.00,,SKC,0.00,VWS V13.01,2013-01-17 08:38:00,
2013-01-17 03:39:00,29.5,27.5,29.79,West,264,0.0,0.0,92,0.00,,SKC,0.00,VWS V13.01,2013-01-17 08:39:00,
2013-01-17 03:40:00,29.5,27.5,29.79,West,264,0.0,0.0,92,0.00,,SKC,0.00,VWS V13.01,2013-01-17 08:40:00,
2013-01-17 03:41:00,29.4,27.4,29.79,West,264,0.0,0.0,92,0.00,,SKC,0.00,VWS V13.01,2013-01-17 08:41:00,
2013-01-17 03:42:00,29.4,27.4,29.79,SSW,206,0.0,0.0,92,0.00,,SKC,0.00,VWS V13.01,2013-01-17 08:42:00,
2013-01-17 03:43:00,29.4,27.4,29.79,West,259,0.0,0.0,92,0.00,,SKC,0.00,VWS V13.01,2013-01-17 08:43:00,
2013-01-17 03:44:00,29.7,27.7,29.78,West,264,0.0,0.0,92,0.00,,SKC,0.00,VWS V13.01,2013-01-17 08:44:00,
2013-01-17 03:45:00,29.4,27.4,29.79,West,259,0.0,0.0,92,0.00,,SKC,0.00,VWS V13.01,2013-01-17 08:45:00,
2013-01-17 03:46:00,29.4,27.4,29.79,West,259,0.0,0.0,92,0.00,,SKC,0.00,VWS V13.01,2013-01-17 08:46:00,
2013-01-17 03:47:00,29.4,27.4,29.79,West,259,0.0,0.0,92,0.00,,SKC,0.00,VWS V13.01,2013-01-17 08:47:00,
2013-01-17 03:48:00,29.3,27.3,29.78,West,259,0.0,0.0,92,0.00,,SKC,0.00,VWS V13.01,2013-01-17 08:48:00,
2013-01-17 03:49:00,29.5,27.5,29.79,West,264,0.0,0.0,92,0.00,,SKC,0.00,VWS V13.01,2013-01-17 08:49:00,
2013-01-17 03:50:00,29.2,27.2,29.78,West,259,0.0,0.0,92,0.00,,SKC,0.00,VWS V13.01,2013-01-17 08:50:00,
2013-01-17 03:51:00,29.2,27.2,29.78,West,259,0.0,0.0,92,0.00,,SKC,0.00,VWS V13.01,2013-01-17 08:51:00,
2013-01-17 03:52:00,29.1,27.1,29.78,West,259,0.0,0.0,92,0.00,,SKC,0.00,VWS V13.01,2013-01-17 08:52:00,
2013-01-17 03:53:00,29.1,27.1,29.78,SSW,209,0.0,0.0,92,0.00,,SKC,0.00,VWS V13.01,2013-01-17 08:53:00,
2013-01-17 03:54:00,29.4,27.4,29.79,West,259,0.0,0.0,92,0.00,,SKC,0.00,VWS V13.01,2013-01-17 08:54:00,
2013-01-17 03:55:00,29.1,27.1,29.78,SSW,209,0.0,0.0,92,0.00,,SKC,0.00,VWS V13.01,2013-01-17 08:55:00,
2013-01-17 03:56:00,29.1,27.1,29.78,SSW,209,0.0,0.0,92,0.00,,SKC,0.00,VWS V13.01,2013-01-17 08:56:00,
2013-01-17 03:57:00,29.1,27.1,29.78,SSW,209,0.0,0.0,92,0.00,,SKC,0.00,VWS V13.01,2013-01-17 08:57:00,
2013-01-17 03:58:00,29.0,27.0,29.79,SSW,209,0.0,0.0,92,0.00,,SKC,0.00,VWS V13.01,2013-01-17 08:58:00,
2013-01-17 03:59:00,29.3,27.3,29.78,West,259,0.0,0.0,92,0.00,,SKC,0.00,VWS V13.01,2013-01-17 08:59:00,
2013-01-17 04:00:00,29.0,27.0,29.79,SSW,209,0.0,0.0,92,0.00,,SKC,0.00,VWS V13.01,2013-01-17 09:00:00,
2013-01-17 04:01:00,28.9,26.9,29.79,SSW,209,0.0,0.0,92,0.00,,SKC,0.00,VWS V13.01,2013-01-17 09:01:00,
2013-01-17 04:02:00,28.8,26.8,29.78,SSW,209,0.0,0.0,92,0.00,,SKC,0.00,VWS V13.01,2013-01-17 09:02:00,
2013-01-17 04:03:00,28.8,26.8,29.78,SSW,209,0.0,0.0,92,0.00,,SKC,0.00,VWS V13.01,2013-01-17 09:03:00,
2013-01-17 04:04:00,29.1,27.1,29.78,SSW,209,0.0,0.0,92,0.00,,SKC,0.00,VWS V13.01,2013-01-17 09:04:00,
2013-01-17 04:05:00,28.7,26.4,29.78,SSW,210,0.0,0.0,91,0.00,,SKC,0.00,VWS V13.01,2013-01-17 09:05:00,
2013-01-17 04:06:00,28.7,26.4,29.78,SSW,210,0.0,0.0,91,0.00,,SKC,0.00,VWS V13.01,2013-01-17 09:06:00,
2013-01-17 04:07:00,28.6,26.6,29.78,SSW,210,0.0,0.0,92,0.00,,SKC,0.00,VWS V13.01,2013-01-17 09:07:00,
2013-01-17 04:08:00,28.5,26.5,29.78,SSW,210,0.0,0.0,92,0.00,,SKC,0.00,VWS V13.01,2013-01-17 09:08:00,
2013-01-17 04:09:00,29.0,27.0,29.79,SSW,209,0.0,0.0,92,0.00,,SKC,0.00,VWS V13.01,2013-01-17 09:09:00,
2013-01-17 04:10:00,28.5,26.5,29.78,SSW,210,0.0,0.0,92,0.00,,SKC,0.00,VWS V13.01,2013-01-17 09:10:00,
2013-01-17 04:11:00,28.4,26.4,29.78,SSW,210,0.0,0.0,92,0.00,,SKC,0.00,VWS V13.01,2013-01-17 09:11:00,
2013-01-17 04:12:00,28.4,26.4,29.78,SSW,210,0.0,0.0,92,0.00,,SKC,0.00,VWS V13.01,2013-01-17 09:12:00,
2013-01-17 04:13:00,28.4,26.4,29.78,SSW,210,0.0,0.0,92,0.00,,SKC,0.00,VWS V13.01,2013-01-17 09:13:00,
2013-01-17 04:14:00,28.7,26.4,29.78,SSW,209,0.0,0.0,91,0.00,,SKC,0.00,VWS V13.01,2013-01-17 09:14:00,
2013-01-17 04:15:00,28.3,26.3,29.78,SSW,210,0.0,0.0,92,0.00,,SKC,0.00,VWS V13.01,2013-01-17 09:15:00,
2013-01-17 04:16:00,28.3,26.3,29.78,SSW,210,0.0,0.0,92,0.00,,SKC,0.00,VWS V13.01,2013-01-17 09:16:00,
2013-01-17 04:17:00,28.3,26.3,29.78,SSW,210,0.0,0.0,92,0.00,,SKC,0.00,VWS V13.01,2013-01-17 09:17:00,
2013-01-17 04:18:00,28.2,26.2,29.78,SSW,210,0.0,0.0,92,0.00,,SKC,0.00,VWS V13.01,2013-01-17 09:18:00,
2013-01-17 04:19:00,28.5,26.5,29.78,SSW,210,0.0,0.0,92,0.00,,SKC,0.00,VWS V13.01,2013-01-17 09:19:00,
2013-01-17 04:20:00,28.2,26.2,29.78,WNW,284,0.0,0.0,92,0.00,,SKC,0.00,VWS V13.01,2013-01-17 09:20:00,
2013-01-17 04:21:00,28.2,26.2,29.78,WNW,289,0.0,0.0,92,0.00,,SKC,0.00,VWS V13.01,2013-01-17 09:21:00,
2013-01-17 04:22:00,28.3,26.3,29.78,WNW,289,0.0,0.0,92,0.00,,SKC,0.00,VWS V13.01,2013-01-17 09:22:00,
2013-01-17 04:23:00,28.3,26.3,29.78,WNW,289,0.0,0.0,92,0.00,,SKC,0.00,VWS V13.01,2013-01-17 09:23:00,
2013-01-17 04:24:00,28.3,26.3,29.78,SSW,210,0.0,0.0,92,0.00,,SKC,0.00,VWS V13.01,2013-01-17 09:24:00,
2013-01-17 04:25:00,28.3,26.3,29.78,WNW,289,0.0,0.0,92,0.00,,SKC,0.00,VWS V13.01,2013-01-17 09:25:00,
2013-01-17 04:26:00,28.3,26.3,29.79,WNW,289,0.0,0.0,92,0.00,,SKC,0.00,VWS V13.01,2013-01-17 09:26:00,
2013-01-17 04:27:00,28.3,26.3,29.79,WNW,288,0.0,0.0,92,0.00,,SKC,0.00,VWS V13.01,2013-01-17 09:27:00,
2013-01-17 04:28:00,28.2,26.2,29.79,WNW,289,0.0,0.0,92,0.00,,SKC,0.00,VWS V13.01,2013-01-17 09:28:00,
2013-01-17 04:29:00,28.2,26.2,29.79,WNW,289,0.0,0.0,92,0.00,,SKC,0.00,VWS V13.01,2013-01-17 09:29:00,
2013-01-17 04:30:00,28.2,26.2,29.78,WSW,248,0.0,0.0,92,0.00,,SKC,0.00,VWS V13.01,2013-01-17 09:30:00,
2013-01-17 04:31:00,28.2,26.2,29.78,WNW,288,0.0,0.0,92,0.00,,SKC,0.00,VWS V13.01,2013-01-17 09:31:00,
2013-01-17 04:32:00,28.2,26.2,29.78,WNW,289,0.0,0.0,92,0.00,,SKC,0.00,VWS V13.01,2013-01-17 09:32:00,
2013-01-17 04:33:00,28.1,26.1,29.78,WNW,289,0.0,0.0,92,0.00,,SKC,0.00,VWS V13.01,2013-01-17 09:33:00,
2013-01-17 04:34:00,28.1,26.1,29.79,WNW,288,0.0,0.0,92,0.00,,SKC,0.00,VWS V13.01,2013-01-17 09:34:00,
2013-01-17 04:35:00,28.3,26.3,29.78,WNW,289,0.0,0.0,92,0.00,,SKC,0.00,VWS V13.01,2013-01-17 09:35:00,
2013-01-17 04:36:00,28.1,26.1,29.79,WNW,289,0.0,0.0,92,0.00,,SKC,0.00,VWS V13.01,2013-01-17 09:36:00,
2013-01-17 04:37:00,28.1,26.1,29.79,WNW,289,0.0,0.0,92,0.00,,SKC,0.00,VWS V13.01,2013-01-17 09:37:00,
2013-01-17 04:38:00,28.0,26.0,29.79,WNW,289,0.0,0.0,92,0.00,,SKC,0.00,VWS V13.01,2013-01-17 09:38:00,
2013-01-17 04:39:00,28.0,26.0,29.79,WNW,289,0.0,0.0,92,0.00,,SKC,0.00,VWS V13.01,2013-01-17 09:39:00,
2013-01-17 04:40:00,28.2,26.2,29.79,WNW,288,0.0,0.0,92,0.00,,SKC,0.00,VWS V13.01,2013-01-17 09:40:00,
2013-01-17 04:41:00,27.9,25.9,29.79,WNW,288,0.0,0.0,92,0.00,,SKC,0.00,VWS V13.01,2013-01-17 09:41:00,
2013-01-17 04:42:00,27.9,25.9,29.78,WNW,289,0.0,0.0,92,0.00,,SKC,0.00,VWS V13.01,2013-01-17 09:42:00,
2013-01-17 04:43:00,27.8,25.8,29.78,WNW,289,0.0,0.0,92,0.00,,SKC,0.00,VWS V13.01,2013-01-17 09:43:00,
2013-01-17 04:44:00,27.8,25.8,29.79,WNW,288,0.0,0.0,92,0.00,,SKC,0.00,VWS V13.01,2013-01-17 09:44:00,
2013-01-17 04:45:00,27.8,25.8,29.79,WNW,289,0.0,0.0,92,0.00,,SKC,0.00,VWS V13.01,2013-01-17 09:45:00,
2013-01-17 04:46:00,28.1,26.1,29.79,WNW,288,0.0,0.0,92,0.00,,SKC,0.00,VWS V13.01,2013-01-17 09:46:00,
2013-01-17 04:47:00,27.6,25.6,29.79,WNW,288,0.0,0.0,92,0.00,,SKC,0.00,VWS V13.01,2013-01-17 09:47:00,
2013-01-17 04:48:00,27.6,25.6,29.79,WNW,289,0.0,0.0,92,0.00,,SKC,0.00,VWS V13.01,2013-01-17 09:48:00,
2013-01-17 04:49:00,27.5,25.5,29.79,WNW,289,0.0,0.0,92,0.00,,SKC,0.00,VWS V13.01,2013-01-17 09:49:00,
2013-01-17 04:50:00,27.5,25.5,29.79,WNW,289,0.0,0.0,92,0.00,,SKC,0.00,VWS V13.01,2013-01-17 09:50:00,
2013-01-17 04:51:00,28.0,26.0,29.79,WNW,289,0.0,0.0,92,0.00,,SKC,0.00,VWS V13.01,2013-01-17 09:51:00,
2013-01-17 04:52:00,27.4,25.4,29.79,WNW,288,0.0,0.0,92,0.00,,SKC,0.00,VWS V13.01,2013-01-17 09:52:00,
2013-01-17 04:53:00,27.3,25.3,29.79,WNW,288,0.0,0.0,92,0.00,,SKC,0.00,VWS V13.01,2013-01-17 09:53:00,
2013-01-17 04:54:00,27.2,25.2,29.79,WNW,289,0.0,0.0,92,0.00,,SKC,0.00,VWS V13.01,2013-01-17 09:54:00,
2013-01-17 04:55:00,27.2,25.2,29.79,WNW,289,0.0,0.0,92,0.00,,SKC,0.00,VWS V13.01,2013-01-17 09:55:00,
2013-01-17 04:56:00,27.7,25.7,29.79,WNW,289,0.0,0.0,92,0.00,,SKC,0.00,VWS V13.01,2013-01-17 09:56:00,
2013-01-17 04:57:00,27.1,25.1,29.80,WNW,288,0.0,0.0,92,0.00,,SKC,0.00,VWS V13.01,2013-01-17 09:57:00,
2013-01-17 04:58:00,27.0,25.0,29.80,WNW,289,0.0,0.0,92,0.00,,SKC,0.00,VWS V13.01,2013-01-17 09:58:00,
2013-01-17 04:59:00,27.0,25.0,29.80,WNW,289,0.0,0.0,92,0.00,,SKC,0.00,VWS V13.01,2013-01-17 09:59:00,
2013-01-17 05:00:00,27.0,25.0,29.80,WNW,289,0.0,0.0,92,0.00,,SKC,0.00,VWS V13.01,2013-01-17 10:00:00,
2013-01-17 05:01:00,27.4,25.4,29.79,WNW,288,0.0,0.0,92,0.00,,SKC,0.00,VWS V13.01,2013-01-17 10:01:00,
2013-01-17 05:02:00,26.9,24.9,29.80,WNW,288,0.0,0.0,92,0.00,,SKC,0.00,VWS V13.01,2013-01-17 10:02:00,
2013-01-17 05:03:00,26.9,24.9,29.80,WNW,289,0.0,0.0,92,0.00,,SKC,0.00,VWS V13.01,2013-01-17 10:03:00,
2013-01-17 05:04:00,26.8,24.8,29.80,WNW,289,0.0,0.0,92,0.00,,SKC,0.00,VWS V13.01,2013-01-17 10:04:00,
2013-01-17 05:05:00,26.8,24.8,29.80,WNW,288,0.0,0.0,92,0.00,,SKC,0.00,VWS V13.01,2013-01-17 10:05:00,
2013-01-17 05:06:00,27.1,25.1,29.79,WNW,289,0.0,0.0,92,0.00,,SKC,0.00,VWS V13.01,2013-01-17 10:06:00,
2013-01-17 05:07:00,26.7,24.7,29.80,WNW,288,0.0,0.0,92,0.00,,SKC,0.00,VWS V13.01,2013-01-17 10:07:00,
2013-01-17 05:08:00,26.6,24.6,29.80,WNW,289,0.0,0.0,92,0.00,,SKC,0.00,VWS V13.01,2013-01-17 10:08:00,
2013-01-17 05:09:00,26.6,24.6,29.80,WNW,289,0.0,0.0,92,0.00,,SKC,0.00,VWS V13.01,2013-01-17 10:09:00,
2013-01-17 05:10:00,26.6,24.6,29.80,WNW,288,0.0,0.0,92,0.00,,SKC,0.00,VWS V13.01,2013-01-17 10:10:00,
2013-01-17 05:11:00,26.9,24.9,29.80,WNW,289,0.0,0.0,92,0.00,,SKC,0.00,VWS V13.01,2013-01-17 10:11:00,
2013-01-17 05:12:00,26.6,24.6,29.80,WNW,289,0.0,0.0,92,0.00,,SKC,0.00,VWS V13.01,2013-01-17 10:12:00,
2013-01-17 05:13:00,26.6,26.6,29.80,WNW,288,0.0,0.0,100,0.00,,SKC,0.00,VWS V13.01,2013-01-17 10:13:00,
2013-01-17 05:14:00,26.6,24.6,29.80,WNW,289,0.0,0.0,92,0.00,,SKC,0.00,VWS V13.01,2013-01-17 10:14:00,
2013-01-17 05:15:00,26.6,24.6,29.80,WNW,289,0.0,0.0,92,0.00,,SKC,0.00,VWS V13.01,2013-01-17 10:15:00,
2013-01-17 05:16:00,26.7,24.7,29.80,WNW,289,0.0,0.0,92,0.00,,SKC,0.00,VWS V13.01,2013-01-17 10:16:00,
2013-01-17 05:17:00,26.6,24.6,29.80,WNW,289,0.0,0.0,92,0.00,,SKC,0.00,VWS V13.01,2013-01-17 10:17:00,
2013-01-17 05:18:00,26.6,24.6,29.80,WNW,289,0.0,0.0,92,0.00,,SKC,0.00,VWS V13.01,2013-01-17 10:18:00,
2013-01-17 05:19:00,26.6,24.6,29.80,WNW,289,0.0,0.0,92,0.00,,SKC,0.00,VWS V13.01,2013-01-17 10:19:00,
2013-01-17 05:20:00,26.6,24.6,29.80,WNW,289,0.0,0.0,92,0.00,,SKC,0.00,VWS V13.01,2013-01-17 10:20:00,
2013-01-17 05:21:00,26.6,24.6,29.80,WNW,288,0.0,0.0,92,0.00,,SKC,0.00,VWS V13.01,2013-01-17 10:21:00,
2013-01-17 05:22:00,26.6,24.6,29.80,WNW,289,0.0,0.0,92,0.00,,SKC,0.00,VWS V13.01,2013-01-17 10:22:00,
2013-01-17 05:23:00,26.6,24.6,29.80,WNW,288,0.0,0.0,92,0.00,,SKC,0.00,VWS V13.01,2013-01-17 10:23:00,
2013-01-17 05:24:00,26.6,24.6,29.80,WNW,289,0.0,0.0,92,0.00,,SKC,0.00,VWS V13.01,2013-01-17 10:24:00,
2013-01-17 05:25:00,26.6,24.6,29.80,WNW,289,0.0,0.0,92,0.00,,SKC,0.00,VWS V13.01,2013-01-17 10:25:00,
2013-01-17 05:26:00,26.6,24.6,29.80,WNW,289,0.0,0.0,92,0.00,,SKC,0.00,VWS V13.01,2013-01-17 10:26:00,
2013-01-17 05:27:00,26.6,24.6,29.80,WNW,289,0.0,0.0,92,0.00,,SKC,0.00,VWS V13.01,2013-01-17 10:27:00,
2013-01-17 05:28:00,26.7,24.7,29.80,WNW,289,0.0,0.0,92,0.00,,SKC,0.00,VWS V13.01,2013-01-17 10:28:00,
2013-01-17 05:29:00,26.7,24.7,29.80,WNW,289,0.0,0.0,92,0.00,,SKC,0.00,VWS V13.01,2013-01-17 10:29:00,
2013-01-17 05:30:00,26.7,24.7,29.80,WNW,288,0.0,0.0,92,0.00,,SKC,0.00,VWS V13.01,2013-01-17 10:30:00,
2013-01-17 05:31:00,26.7,24.7,29.80,WNW,289,0.0,0.0,92,0.00,,SKC,0.00,VWS V13.01,2013-01-17 10:31:00,
2013-01-17 05:32:00,26.6,24.6,29.80,WNW,289,0.0,0.0,92,0.00,,SKC,0.00,VWS V13.01,2013-01-17 10:32:00,
2013-01-17 05:33:00,26.8,24.8,29.80,WNW,288,0.0,0.0,92,0.00,,SKC,0.00,VWS V13.01,2013-01-17 10:33:00,
2013-01-17 05:34:00,26.8,24.8,29.80,WNW,288,0.0,0.0,92,0.00,,SKC,0.00,VWS V13.01,2013-01-17 10:34:00,
2013-01-17 05:35:00,26.8,24.8,29.80,WNW,289,0.0,0.0,92,0.00,,SKC,0.00,VWS V13.01,2013-01-17 10:35:00,
2013-01-17 05:36:00,26.8,24.8,29.80,WNW,289,0.0,0.0,92,0.00,,SKC,0.00,VWS V13.01,2013-01-17 10:36:00,
2013-01-17 05:37:00,26.6,24.6,29.80,WNW,289,0.0,0.0,92,0.00,,SKC,0.00,VWS V13.01,2013-01-17 10:37:00,
2013-01-17 05:38:00,26.8,24.8,29.80,WNW,288,0.0,0.0,92,0.00,,SKC,0.00,VWS V13.01,2013-01-17 10:38:00,
2013-01-17 05:39:00,26.8,24.8,29.80,WNW,289,0.0,0.0,92,0.00,,SKC,0.00,VWS V13.01,2013-01-17 10:39:00,
2013-01-17 05:40:00,26.8,24.8,29.80,WNW,289,0.0,0.0,92,0.00,,SKC,0.00,VWS V13.01,2013-01-17 10:40:00,
2013-01-17 05:41:00,26.8,24.8,29.80,WNW,288,0.0,0.0,92,0.00,,SKC,0.00,VWS V13.01,2013-01-17 10:41:00,
2013-01-17 05:42:00,26.7,24.7,29.80,WNW,289,0.0,0.0,92,0.00,,SKC,0.00,VWS V13.01,2013-01-17 10:42:00,
2013-01-17 05:43:00,26.7,24.7,29.80,WNW,289,0.0,0.0,92,0.00,,SKC,0.00,VWS V13.01,2013-01-17 10:43:00,
2013-01-17 05:44:00,26.7,24.7,29.80,WNW,288,0.0,0.0,92,0.00,,SKC,0.00,VWS V13.01,2013-01-17 10:44:00,
2013-01-17 05:45:00,26.6,24.6,29.80,WNW,288,0.0,0.0,92,0.00,,SKC,0.00,VWS V13.01,2013-01-17 10:45:00,
2013-01-17 05:46:00,26.6,24.6,29.80,WNW,289,0.0,0.0,92,0.00,,SKC,0.00,VWS V13.01,2013-01-17 10:46:00,
2013-01-17 05:47:00,26.8,24.8,29.80,WNW,288,0.0,0.0,92,0.00,,SKC,0.00,VWS V13.01,2013-01-17 10:47:00,
2013-01-17 05:48:00,26.5,24.5,29.80,WNW,288,0.0,0.0,92,0.00,,SKC,0.00,VWS V13.01,2013-01-17 10:48:00,
2013-01-17 05:49:00,26.5,24.5,29.80,WNW,289,0.0,0.0,92,0.00,,SKC,0.00,VWS V13.01,2013-01-17 10:49:00,
2013-01-17 05:50:00,26.5,24.5,29.80,WNW,288,0.0,0.0,92,0.00,,SKC,0.00,VWS V13.01,2013-01-17 10:50:00,
2013-01-17 05:51:00,26.6,24.6,29.80,WNW,289,0.0,0.0,92,0.00,,SKC,0.00,VWS V13.01,2013-01-17 10:51:00,
2013-01-17 05:52:00,26.6,24.6,29.80,WNW,289,0.0,0.0,92,0.00,,SKC,0.00,VWS V13.01,2013-01-17 10:52:00,
2013-01-17 05:53:00,26.7,24.7,29.80,WNW,288,0.0,0.0,92,0.00,,SKC,0.00,VWS V13.01,2013-01-17 10:53:00,
2013-01-17 05:54:00,26.5,24.5,29.80,WNW,289,0.0,0.0,92,0.00,,SKC,0.00,VWS V13.01,2013-01-17 10:54:00,
2013-01-17 05:55:00,26.5,24.5,29.80,WNW,289,0.0,0.0,92,0.00,,SKC,0.00,VWS V13.01,2013-01-17 10:55:00,
2013-01-17 05:56:00,26.5,24.5,29.80,WNW,288,0.0,0.0,92,0.00,,SKC,0.00,VWS V13.01,2013-01-17 10:56:00,
2013-01-17 05:57:00,26.6,24.6,29.80,WNW,289,0.0,0.0,92,0.00,,SKC,0.00,VWS V13.01,2013-01-17 10:57:00,
2013-01-17 05:58:00,26.6,24.6,29.80,WNW,289,0.0,0.0,92,0.00,,SKC,0.00,VWS V13.01,2013-01-17 10:58:00,
2013-01-17 05:59:00,26.6,24.6,29.80,WNW,288,0.0,0.0,92,0.00,,SKC,0.00,VWS V13.01,2013-01-17 10:59:00,
2013-01-17 06:00:00,26.6,24.6,29.80,WNW,289,0.0,0.0,92,0.00,,SKC,0.00,VWS V13.01,2013-01-17 11:00:00,
2013-01-17 06:01:00,26.5,24.5,29.80,WNW,288,0.0,0.0,92,0.00,,SKC,0.00,VWS V13.01,2013-01-17 11:01:00,
2013-01-17 06:02:00,26.5,24.5,29.80,WNW,288,0.0,0.0,92,0.00,,SKC,0.00,VWS V13.01,2013-01-17 11:02:00,
2013-01-17 06:03:00,26.6,24.6,29.80,WNW,289,0.0,0.0,92,0.00,,SKC,0.00,VWS V13.01,2013-01-17 11:03:00,
2013-01-17 06:04:00,26.5,24.5,29.80,WNW,288,0.0,0.0,92,0.00,,SKC,0.00,VWS V13.01,2013-01-17 11:04:00,
2013-01-17 06:05:00,26.5,24.5,29.80,WNW,288,0.0,0.0,92,0.00,,SKC,0.00,VWS V13.01,2013-01-17 11:05:00,
2013-01-17 06:06:00,26.4,24.4,29.81,WNW,288,0.0,0.0,92,0.00,,SKC,0.00,VWS V13.01,2013-01-17 11:06:00,
2013-01-17 06:07:00,26.4,24.4,29.80,WNW,288,0.0,0.0,92,0.00,,SKC,0.00,VWS V13.01,2013-01-17 11:07:00,
2013-01-17 06:08:00,26.6,24.6,29.80,WNW,289,0.0,0.0,92,0.00,,SKC,0.00,VWS V13.01,2013-01-17 11:08:00,
2013-01-17 06:09:00,26.3,24.3,29.80,WNW,288,0.0,0.0,92,0.00,,SKC,0.00,VWS V13.01,2013-01-17 11:09:00,
2013-01-17 06:10:00,26.3,24.3,29.80,WNW,289,0.0,0.0,92,0.00,,SKC,0.00,VWS V13.01,2013-01-17 11:10:00,
2013-01-17 06:11:00,26.3,24.3,29.81,WNW,289,0.0,0.0,92,0.00,,SKC,0.00,VWS V13.01,2013-01-17 11:11:00,
2013-01-17 06:12:00,26.3,24.3,29.81,WNW,289,0.0,0.0,92,0.00,,SKC,0.00,VWS V13.01,2013-01-17 11:12:00,
2013-01-17 06:13:00,26.5,24.5,29.80,WNW,289,0.0,0.0,92,0.00,,SKC,0.00,VWS V13.01,2013-01-17 11:13:00,
2013-01-17 06:14:00,26.2,24.2,29.81,WNW,288,0.0,0.0,92,0.00,,SKC,0.00,VWS V13.01,2013-01-17 11:14:00,
2013-01-17 06:15:00,26.2,24.2,29.81,WNW,289,0.0,0.0,92,0.00,,SKC,0.00,VWS V13.01,2013-01-17 11:15:00,
2013-01-17 06:16:00,26.2,24.2,29.81,WNW,289,0.0,0.0,92,0.00,,SKC,0.00,VWS V13.01,2013-01-17 11:16:00,
2013-01-17 06:17:00,26.2,24.2,29.81,WNW,289,0.0,0.0,92,0.00,,SKC,0.00,VWS V13.01,2013-01-17 11:17:00,
2013-01-17 06:18:00,26.3,24.3,29.80,WNW,289,0.0,0.0,92,0.00,,SKC,0.00,VWS V13.01,2013-01-17 11:18:00,
2013-01-17 06:19:00,26.2,24.2,29.81,WNW,289,0.0,0.0,92,0.00,,SKC,0.00,VWS V13.01,2013-01-17 11:19:00,
2013-01-17 06:20:00,26.2,24.2,29.81,WNW,289,0.0,0.0,92,0.00,,SKC,0.00,VWS V13.01,2013-01-17 11:20:00,
2013-01-17 06:21:00,26.2,24.2,29.81,WNW,288,0.0,0.0,92,0.00,,SKC,0.00,VWS V13.01,2013-01-17 11:21:00,
2013-01-17 06:22:00,26.2,24.2,29.81,WNW,289,0.0,0.0,92,0.00,,SKC,0.00,VWS V13.01,2013-01-17 11:22:00,
2013-01-17 06:23:00,26.2,24.2,29.81,WNW,288,0.0,0.0,92,0.00,,SKC,0.00,VWS V13.01,2013-01-17 11:23:00,
2013-01-17 06:24:00,26.3,24.3,29.81,WNW,289,0.0,0.0,92,0.00,,SKC,0.00,VWS V13.01,2013-01-17 11:24:00,
2013-01-17 06:25:00,26.2,24.2,29.81,WNW,289,0.0,0.0,92,0.00,,SKC,0.00,VWS V13.01,2013-01-17 11:25:00,
2013-01-17 06:26:00,26.2,24.2,29.81,WNW,289,0.0,0.0,92,0.00,,SKC,0.00,VWS V13.01,2013-01-17 11:26:00,
2013-01-17 06:27:00,26.2,24.2,29.81,WNW,289,0.0,0.0,92,0.00,,SKC,0.00,VWS V13.01,2013-01-17 11:27:00,
2013-01-17 06:28:00,26.2,24.2,29.80,WNW,289,0.0,0.0,92,0.00,,SKC,0.00,VWS V13.01,2013-01-17 11:28:00,
2013-01-17 06:29:00,26.2,24.2,29.81,WNW,289,0.0,0.0,92,0.00,,SKC,0.00,VWS V13.01,2013-01-17 11:29:00,
2013-01-17 06:30:00,26.2,24.2,29.81,WNW,289,0.0,0.0,92,0.00,,SKC,0.00,VWS V13.01,2013-01-17 11:30:00,
2013-01-17 06:31:00,26.2,24.2,29.81,WNW,289,0.0,0.0,92,0.00,,SKC,0.00,VWS V13.01,2013-01-17 11:31:00,
2013-01-17 06:32:00,26.2,24.2,29.81,WNW,289,0.0,0.0,92,0.00,,SKC,0.00,VWS V13.01,2013-01-17 11:32:00,
2013-01-17 06:33:00,26.2,24.2,29.81,WNW,289,0.0,0.0,92,0.00,,SKC,0.00,VWS V13.01,2013-01-17 11:33:00,
2013-01-17 06:34:00,26.2,24.2,29.81,WNW,289,0.0,0.0,92,0.00,,SKC,0.00,VWS V13.01,2013-01-17 11:34:00,
2013-01-17 06:35:00,26.1,24.1,29.81,WNW,289,0.0,0.0,92,0.00,,SKC,0.00,VWS V13.01,2013-01-17 11:35:00,
2013-01-17 06:36:00,26.0,24.0,29.81,WNW,289,0.0,0.0,92,0.00,,SKC,0.00,VWS V13.01,2013-01-17 11:36:00,
2013-01-17 06:37:00,26.0,24.0,29.81,WNW,289,0.0,0.0,92,0.00,,SKC,0.00,VWS V13.01,2013-01-17 11:37:00,
2013-01-17 06:38:00,26.0,24.0,29.81,WNW,289,0.0,0.0,92,0.00,,SKC,0.00,VWS V13.01,2013-01-17 11:38:00,
2013-01-17 06:39:00,26.2,24.2,29.81,WNW,289,0.0,0.0,92,0.00,,SKC,0.00,VWS V13.01,2013-01-17 11:39:00,
2013-01-17 06:40:00,26.0,24.0,29.81,WNW,288,0.0,0.0,92,0.00,,SKC,0.00,VWS V13.01,2013-01-17 11:40:00,
2013-01-17 06:41:00,26.0,24.0,29.81,WNW,288,0.0,0.0,92,0.00,,SKC,0.00,VWS V13.01,2013-01-17 11:41:00,
2013-01-17 06:42:00,26.0,24.0,29.81,WNW,289,0.0,0.0,92,0.00,,SKC,0.00,VWS V13.01,2013-01-17 11:42:00,
2013-01-17 06:43:00,26.0,24.0,29.81,WNW,289,0.0,0.0,92,0.00,,SKC,0.00,VWS V13.01,2013-01-17 11:43:00,
2013-01-17 06:44:00,26.1,24.1,29.81,WNW,289,0.0,0.0,92,0.00,,SKC,0.00,VWS V13.01,2013-01-17 11:44:00,
2013-01-17 06:45:00,26.0,24.0,29.81,WNW,288,0.0,0.0,92,0.00,,SKC,0.00,VWS V13.01,2013-01-17 11:45:00,
2013-01-17 06:46:00,26.0,24.0,29.81,WNW,288,0.0,0.0,92,0.00,,SKC,0.00,VWS V13.01,2013-01-17 11:46:00,
2013-01-17 06:47:00,26.0,24.0,29.81,WNW,289,0.0,0.0,92,0.00,,SKC,0.00,VWS V13.01,2013-01-17 11:47:00,
2013-01-17 06:48:00,26.1,24.1,29.81,WNW,289,0.0,0.0,92,0.00,,SKC,0.00,VWS V13.01,2013-01-17 11:48:00,
2013-01-17 06:49:00,26.1,24.1,29.81,WNW,288,0.0,0.0,92,0.00,,SKC,0.00,VWS V13.01,2013-01-17 11:49:00,
2013-01-17 06:50:00,26.0,24.0,29.81,WNW,288,0.0,0.0,92,0.00,,SKC,0.00,VWS V13.01,2013-01-17 11:50:00,
2013-01-17 06:51:00,26.2,24.5,29.82,NNW,333,0.0,0.0,93,0.00,,SKC,0.00,VWS V13.01,2013-01-17 11:51:00,
2013-01-17 06:52:00,26.3,24.6,29.81,NNW,333,0.0,0.0,93,0.00,,SKC,0.00,VWS V13.01,2013-01-17 11:52:00,
2013-01-17 06:53:00,26.4,24.6,29.81,West,277,0.0,0.0,93,0.00,,SKC,0.00,VWS V13.01,2013-01-17 11:53:00,
2013-01-17 06:54:00,26.5,24.8,29.81,WNW,290,0.0,0.0,93,0.00,,SKC,0.00,VWS V13.01,2013-01-17 11:54:00,
2013-01-17 06:55:00,26.6,24.9,29.81,WNW,285,0.0,0.0,93,0.00,,SKC,0.00,VWS V13.01,2013-01-17 11:55:00,
2013-01-17 06:56:00,26.0,24.0,29.81,WNW,288,0.0,0.0,92,0.00,,SKC,0.00,VWS V13.01,2013-01-17 11:56:00,
2013-01-17 06:57:00,26.7,25.0,29.82,NNW,329,0.0,0.0,93,0.00,,SKC,0.00,VWS V13.01,2013-01-17 11:57:00,
2013-01-17 06:58:00,26.8,25.0,29.82,NNW,345,0.0,0.0,93,0.00,,SKC,0.00,VWS V13.01,2013-01-17 11:58:00,
2013-01-17 06:59:00,26.9,25.1,29.82,NNW,335,0.0,0.0,93,0.00,,SKC,0.00,VWS V13.01,2013-01-17 11:59:00,
2013-01-17 07:00:00,26.9,25.1,29.82,NNW,334,0.0,0.0,93,0.00,,SKC,0.00,VWS V13.01,2013-01-17 12:00:00,
2013-01-17 07:01:00,26.9,25.1,29.82,NNW,334,0.0,0.0,93,0.00,,SKC,0.00,VWS V13.01,2013-01-17 12:01:00,
2013-01-17 07:02:00,26.3,24.6,29.82,NNW,333,0.0,0.0,93,0.00,,SKC,0.00,VWS V13.01,2013-01-17 12:02:00,
2013-01-17 07:03:00,27.0,25.0,29.82,NW,319,0.0,0.0,92,0.00,,SKC,0.00,VWS V13.01,2013-01-17 12:03:00,
2013-01-17 07:04:00,27.0,25.0,29.82,NW,319,0.0,0.0,92,0.00,,SKC,0.00,VWS V13.01,2013-01-17 12:04:00,
2013-01-17 07:05:00,27.1,25.4,29.82,NW,319,0.0,0.0,93,0.00,,SKC,0.00,VWS V13.01,2013-01-17 12:05:00,
2013-01-17 07:06:00,27.1,25.4,29.82,NW,319,0.0,0.0,93,0.00,,SKC,0.00,VWS V13.01,2013-01-17 12:06:00,
2013-01-17 07:07:00,26.7,25.0,29.82,NNW,329,0.0,0.0,93,0.00,,SKC,0.00,VWS V13.01,2013-01-17 12:07:00,
2013-01-17 07:08:00,27.3,25.5,29.82,NW,319,0.0,0.0,93,0.00,,SKC,0.00,VWS V13.01,2013-01-17 12:08:00,
2013-01-17 07:09:00,27.3,25.5,29.82,NW,319,0.0,0.0,93,0.00,,SKC,0.00,VWS V13.01,2013-01-17 12:09:00,
2013-01-17 07:10:00,27.3,25.5,29.82,NW,319,0.0,0.0,93,0.00,,SKC,0.00,VWS V13.01,2013-01-17 12:10:00,
2013-01-17 07:11:00,27.4,25.4,29.82,NW,319,0.0,0.0,92,0.00,,SKC,0.00,VWS V13.01,2013-01-17 12:11:00,
2013-01-17 07:12:00,27.0,25.2,29.82,NNW,334,0.0,0.0,93,0.00,,SKC,0.00,VWS V13.01,2013-01-17 12:12:00,
2013-01-17 07:13:00,27.4,25.4,29.82,NW,319,0.0,0.0,92,0.00,,SKC,0.00,VWS V13.01,2013-01-17 12:13:00,
2013-01-17 07:14:00,27.5,25.5,29.82,NW,319,0.0,0.0,92,0.00,,SKC,0.00,VWS V13.01,2013-01-17 12:14:00,
2013-01-17 07:15:00,27.5,25.5,29.82,NW,319,0.0,0.0,92,0.00,,SKC,0.00,VWS V13.01,2013-01-17 12:15:00,
2013-01-17 07:16:00,27.5,25.5,29.83,NW,319,0.0,0.0,92,0.00,,SKC,0.00,VWS V13.01,2013-01-17 12:16:00,
2013-01-17 07:17:00,27.2,25.5,29.82,NW,319,0.0,0.0,93,0.00,,SKC,0.00,VWS V13.01,2013-01-17 12:17:00,
2013-01-17 07:18:00,27.6,25.6,29.83,NW,319,0.0,0.0,92,0.00,,SKC,0.00,VWS V13.01,2013-01-17 12:18:00,
2013-01-17 07:19:00,27.7,25.7,29.83,NW,319,0.0,0.0,92,0.00,,SKC,0.00,VWS V13.01,2013-01-17 12:19:00,
2013-01-17 07:20:00,27.7,25.7,29.83,NW,319,0.0,0.0,92,0.00,,SKC,0.00,VWS V13.01,2013-01-17 12:20:00,
2013-01-17 07:21:00,27.8,25.8,29.83,NW,319,0.0,0.0,92,0.00,,SKC,0.00,VWS V13.01,2013-01-17 12:21:00,
2013-01-17 07:22:00,27.4,25.4,29.82,NW,319,0.0,0.0,92,0.00,,SKC,0.00,VWS V13.01,2013-01-17 12:22:00,
2013-01-17 07:23:00,27.9,25.9,29.83,NW,319,0.0,0.0,92,0.00,,SKC,0.00,VWS V13.01,2013-01-17 12:23:00,
2013-01-17 07:24:00,27.9,25.9,29.83,NW,319,0.0,0.0,92,0.00,,SKC,0.00,VWS V13.01,2013-01-17 12:24:00,
2013-01-17 07:25:00,28.0,26.0,29.83,NW,319,0.0,0.0,92,0.00,,SKC,0.00,VWS V13.01,2013-01-17 12:25:00,
2013-01-17 07:26:00,28.0,26.0,29.83,NW,319,0.0,0.0,92,0.00,,SKC,0.00,VWS V13.01,2013-01-17 12:26:00,
2013-01-17 07:27:00,27.6,25.6,29.83,NW,319,0.0,0.0,92,0.00,,SKC,0.00,VWS V13.01,2013-01-17 12:27:00,
2013-01-17 07:28:00,28.1,26.1,29.83,NW,319,0.0,0.0,92,0.00,,SKC,0.00,VWS V13.01,2013-01-17 12:28:00,
2013-01-17 07:29:00,28.1,26.1,29.83,NW,319,0.0,0.0,92,0.00,,SKC,0.00,VWS V13.01,2013-01-17 12:29:00,
2013-01-17 07:30:00,28.2,26.2,29.83,NW,319,0.0,0.0,92,0.00,,SKC,0.00,VWS V13.01,2013-01-17 12:30:00,
2013-01-17 07:31:00,28.3,26.3,29.83,NW,319,0.0,0.0,92,0.00,,SKC,0.00,VWS V13.01,2013-01-17 12:31:00,
2013-01-17 07:32:00,27.8,25.8,29.83,NW,319,0.0,0.0,92,0.00,,SKC,0.00,VWS V13.01,2013-01-17 12:32:00,
2013-01-17 07:33:00,28.4,26.4,29.83,NW,319,0.0,0.0,92,0.00,,SKC,0.00,VWS V13.01,2013-01-17 12:33:00,
2013-01-17 07:34:00,28.4,26.4,29.83,NW,319,0.0,0.0,92,0.00,,SKC,0.00,VWS V13.01,2013-01-17 12:34:00,
2013-01-17 07:35:00,28.4,26.4,29.83,NW,319,0.0,0.0,92,0.00,,SKC,0.00,VWS V13.01,2013-01-17 12:35:00,
2013-01-17 07:36:00,28.5,26.5,29.83,NW,319,0.0,0.0,92,0.00,,SKC,0.00,VWS V13.01,2013-01-17 12:36:00,
2013-01-17 07:37:00,28.6,26.6,29.83,NW,319,0.0,0.0,92,0.00,,SKC,0.00,VWS V13.01,2013-01-17 12:37:00,
2013-01-17 07:38:00,28.1,26.1,29.83,NW,319,0.0,0.0,92,0.00,,SKC,0.00,VWS V13.01,2013-01-17 12:38:00,
2013-01-17 07:39:00,28.7,26.7,29.83,NW,319,0.0,0.0,92,0.00,,SKC,0.00,VWS V13.01,2013-01-17 12:39:00,
2013-01-17 07:40:00,28.8,26.8,29.83,NW,319,0.0,0.0,92,0.00,,SKC,0.00,VWS V13.01,2013-01-17 12:40:00,
2013-01-17 07:41:00,28.8,26.8,29.84,NW,319,0.0,0.0,92,0.00,,SKC,0.00,VWS V13.01,2013-01-17 12:41:00,
2013-01-17 07:42:00,28.9,26.9,29.84,NW,319,0.0,0.0,92,0.00,,SKC,0.00,VWS V13.01,2013-01-17 12:42:00,
2013-01-17 07:43:00,28.4,26.4,29.83,NW,319,0.0,0.0,92,0.00,,SKC,0.00,VWS V13.01,2013-01-17 12:43:00,
2013-01-17 07:44:00,29.0,27.0,29.84,NW,319,0.0,0.0,92,0.00,,SKC,0.00,VWS V13.01,2013-01-17 12:44:00,
2013-01-17 07:45:00,29.0,27.0,29.84,NW,319,0.0,0.0,92,0.00,,SKC,0.00,VWS V13.01,2013-01-17 12:45:00,
2013-01-17 07:46:00,29.1,27.1,29.84,NW,319,0.0,0.0,92,0.00,,SKC,0.00,VWS V13.01,2013-01-17 12:46:00,
2013-01-17 07:47:00,29.2,27.2,29.84,NW,321,0.0,0.0,92,0.00,,SKC,0.00,VWS V13.01,2013-01-17 12:47:00,
2013-01-17 07:48:00,28.6,26.6,29.83,NW,319,0.0,0.0,92,0.00,,SKC,0.00,VWS V13.01,2013-01-17 12:48:00,
2013-01-17 07:49:00,29.4,27.1,29.84,West,275,0.0,0.0,91,0.00,,SKC,0.00,VWS V13.01,2013-01-17 12:49:00,
2013-01-17 07:50:00,29.4,27.1,29.84,West,273,0.0,0.0,91,0.00,,SKC,0.00,VWS V13.01,2013-01-17 12:50:00,
2013-01-17 07:51:00,29.5,27.5,29.84,West,273,0.0,0.0,92,0.00,,SKC,0.00,VWS V13.01,2013-01-17 12:51:00,
2013-01-17 07:52:00,29.7,27.7,29.85,West,272,0.0,0.0,92,0.00,,SKC,0.00,VWS V13.01,2013-01-17 12:52:00,
2013-01-17 07:53:00,28.9,26.9,29.84,NW,319,0.0,0.0,92,0.00,,SKC,0.00,VWS V13.01,2013-01-17 12:53:00,
2013-01-17 07:54:00,29.8,27.5,29.85,West,273,0.0,0.0,91,0.00,,SKC,0.00,VWS V13.01,2013-01-17 12:54:00,
2013-01-17 07:55:00,29.9,27.9,29.85,West,273,0.0,0.0,92,0.00,,SKC,0.00,VWS V13.01,2013-01-17 12:55:00,
2013-01-17 07:56:00,30.1,27.8,29.85,West,273,0.0,0.0,91,0.00,,SKC,0.00,VWS V13.01,2013-01-17 12:56:00,
2013-01-17 07:57:00,30.1,27.8,29.85,West,273,0.0,0.0,91,0.00,,SKC,0.00,VWS V13.01,2013-01-17 12:57:00,
2013-01-17 07:58:00,29.3,27.0,29.84,West,273,0.0,0.0,91,0.00,,SKC,0.00,VWS V13.01,2013-01-17 12:58:00,
2013-01-17 07:59:00,30.3,28.0,29.85,West,275,0.0,0.0,91,0.00,,SKC,0.00,VWS V13.01,2013-01-17 12:59:00,
2013-01-17 08:00:00,30.4,28.1,29.85,NNW,346,0.0,0.0,91,0.00,,SKC,0.00,VWS V13.01,2013-01-17 13:00:00,
2013-01-17 08:01:00,30.5,28.2,29.85,NW,319,0.0,0.0,91,0.00,,SKC,0.00,VWS V13.01,2013-01-17 13:01:00,
2013-01-17 08:02:00,30.6,28.3,29.85,West,265,0.0,0.0,91,0.00,,SKC,0.00,VWS V13.01,2013-01-17 13:02:00,
2013-01-17 08:03:00,29.7,27.7,29.84,West,273,0.0,0.0,92,0.00,,SKC,0.00,VWS V13.01,2013-01-17 13:03:00,
2013-01-17 08:04:00,30.8,28.5,29.85,West,273,0.0,0.0,91,0.00,,SKC,0.00,VWS V13.01,2013-01-17 13:04:00,
2013-01-17 08:05:00,31.0,28.7,29.85,West,271,0.0,0.0,91,0.00,,SKC,0.00,VWS V13.01,2013-01-17 13:05:00,
2013-01-17 08:06:00,31.1,28.8,29.85,West,280,0.0,0.0,91,0.00,,SKC,0.00,VWS V13.01,2013-01-17 13:06:00,
2013-01-17 08:07:00,31.2,28.6,29.85,WNW,294,0.0,0.0,90,0.00,,SKC,0.00,VWS V13.01,2013-01-17 13:07:00,
2013-01-17 08:08:00,30.2,27.9,29.85,West,273,0.0,0.0,91,0.00,,SKC,0.00,VWS V13.01,2013-01-17 13:08:00,
2013-01-17 08:09:00,31.4,28.8,29.86,NW,317,0.0,0.0,90,0.00,,SKC,0.00,VWS V13.01,2013-01-17 13:09:00,
2013-01-17 08:10:00,31.5,28.9,29.86,NW,309,0.0,0.0,90,0.00,,SKC,0.00,VWS V13.01,2013-01-17 13:10:00,
2013-01-17 08:11:00,31.5,28.9,29.85,NW,317,0.0,0.0,90,0.00,,SKC,0.00,VWS V13.01,2013-01-17 13:11:00,
2013-01-17 08:12:00,31.6,29.0,29.85,NW,318,0.0,0.0,90,0.00,,SKC,0.00,VWS V13.01,2013-01-17 13:12:00,
2013-01-17 08:13:00,30.7,28.4,29.85,West,280,0.0,0.0,91,0.00,,SKC,0.00,VWS V13.01,2013-01-17 13:13:00,
2013-01-17 08:14:00,31.7,29.1,29.85,North,5,0.0,0.0,90,0.00,,SKC,0.00,VWS V13.01,2013-01-17 13:14:00,
2013-01-17 08:15:00,31.8,29.2,29.85,North,349,0.0,0.0,90,0.00,,SKC,0.00,VWS V13.01,2013-01-17 13:15:00,
2013-01-17 08:16:00,31.9,29.0,29.86,NNW,348,0.0,0.0,89,0.00,,SKC,0.00,VWS V13.01,2013-01-17 13:16:00,
2013-01-17 08:17:00,32.0,29.1,29.86,NNW,334,0.0,0.0,89,0.00,,SKC,0.00,VWS V13.01,2013-01-17 13:17:00,
2013-01-17 08:18:00,31.3,28.7,29.86,NW,312,0.0,0.0,90,0.00,,SKC,0.00,VWS V13.01,2013-01-17 13:18:00,
2013-01-17 08:19:00,32.1,29.2,29.86,West,263,0.0,0.0,89,0.00,,SKC,0.00,VWS V13.01,2013-01-17 13:19:00,
2013-01-17 08:20:00,32.2,29.3,29.86,West,263,0.0,0.0,89,0.00,,SKC,0.00,VWS V13.01,2013-01-17 13:20:00,
2013-01-17 08:21:00,32.3,29.1,29.86,NNW,346,0.0,0.0,88,0.00,,SKC,0.00,VWS V13.01,2013-01-17 13:21:00,
2013-01-17 08:22:00,32.3,29.1,29.86,North,360,0.0,0.0,88,0.00,,SKC,0.00,VWS V13.01,2013-01-17 13:22:00,
2013-01-17 08:23:00,31.7,29.1,29.85,NNW,338,0.0,0.0,90,0.00,,SKC,0.00,VWS V13.01,2013-01-17 13:23:00,
2013-01-17 08:24:00,32.4,29.2,29.86,NNW,340,0.0,0.0,88,0.00,,SKC,0.00,VWS V13.01,2013-01-17 13:24:00,
2013-01-17 08:25:00,32.4,29.2,29.86,North,355,0.0,0.0,88,0.00,,SKC,0.00,VWS V13.01,2013-01-17 13:25:00,
2013-01-17 08:26:00,32.4,29.2,29.86,North,355,0.0,0.0,88,0.00,,SKC,0.00,VWS V13.01,2013-01-17 13:26:00,
2013-01-17 08:27:00,32.4,29.2,29.85,North,360,0.0,0.0,88,0.00,,SKC,0.00,VWS V13.01,2013-01-17 13:27:00,
2013-01-17 08:28:00,32.5,29.4,29.86,North,360,0.0,0.0,88,0.00,,SKC,0.00,VWS V13.01,2013-01-17 13:28:00,
2013-01-17 08:29:00,32.1,29.2,29.86,West,263,0.0,0.0,89,0.00,,SKC,0.00,VWS V13.01,2013-01-17 13:29:00,
2013-01-17 08:30:00,32.5,29.4,29.85,NW,323,0.0,0.0,88,0.00,,SKC,0.00,VWS V13.01,2013-01-17 13:30:00,
2013-01-17 08:31:00,32.5,29.4,29.86,North,355,0.0,0.0,88,0.00,,SKC,0.00,VWS V13.01,2013-01-17 13:31:00,
2013-01-17 08:32:00,32.5,29.4,29.86,West,265,0.0,0.0,88,0.00,,SKC,0.00,VWS V13.01,2013-01-17 13:32:00,
2013-01-17 08:33:00,32.5,29.4,29.86,WNW,298,0.0,0.0,88,0.00,,SKC,0.00,VWS V13.01,2013-01-17 13:33:00,
2013-01-17 08:34:00,32.4,29.2,29.86,NNW,340,0.0,0.0,88,0.00,,SKC,0.00,VWS V13.01,2013-01-17 13:34:00,
2013-01-17 08:35:00,32.6,29.5,29.86,North,349,0.0,0.0,88,0.00,,SKC,0.00,VWS V13.01,2013-01-17 13:35:00,
2013-01-17 08:36:00,32.6,29.5,29.86,North,355,0.0,0.0,88,0.00,,SKC,0.00,VWS V13.01,2013-01-17 13:36:00,
2013-01-17 08:37:00,32.6,29.5,29.86,WNW,300,0.0,0.0,88,0.00,,SKC,0.00,VWS V13.01,2013-01-17 13:37:00,
2013-01-17 08:38:00,32.6,29.5,29.86,WNW,291,0.0,0.0,88,0.00,,SKC,0.00,VWS V13.01,2013-01-17 13:38:00,
2013-01-17 08:39:00,32.5,29.4,29.86,NW,325,0.0,0.0,88,0.00,,SKC,0.00,VWS V13.01,2013-01-17 13:39:00,
2013-01-17 08:40:00,32.7,29.3,29.86,North,355,0.0,0.0,87,0.00,,SKC,0.00,VWS V13.01,2013-01-17 13:40:00,
2013-01-17 08:41:00,32.7,29.3,29.87,NNW,342,0.0,0.0,87,0.00,,SKC,0.00,VWS V13.01,2013-01-17 13:41:00,
2013-01-17 08:42:00,32.8,29.4,29.87,North,360,0.0,0.0,87,0.00,,SKC,0.00,VWS V13.01,2013-01-17 13:42:00,
2013-01-17 08:43:00,32.8,29.4,29.87,WNW,282,0.0,0.0,87,0.00,,SKC,0.00,VWS V13.01,2013-01-17 13:43:00,
2013-01-17 08:44:00,32.6,29.5,29.86,North,351,0.0,0.0,88,0.00,,SKC,0.00,VWS V13.01,2013-01-17 13:44:00,
2013-01-17 08:45:00,32.9,29.5,29.87,West,273,0.0,0.0,87,0.00,,SKC,0.00,VWS V13.01,2013-01-17 13:45:00,
2013-01-17 08:46:00,33.0,29.6,29.87,East,84,0.0,0.0,87,0.00,,SKC,0.00,VWS V13.01,2013-01-17 13:46:00,
2013-01-17 08:47:00,33.0,29.6,29.87,WSW,254,0.0,0.0,87,0.00,,SKC,0.00,VWS V13.01,2013-01-17 13:47:00,
2013-01-17 08:48:00,33.0,29.6,29.87,SSE,151,0.0,0.0,87,0.00,,SKC,0.00,VWS V13.01,2013-01-17 13:48:00,
2013-01-17 08:49:00,32.7,29.5,29.86,WNW,294,0.0,0.0,88,0.00,,SKC,0.00,VWS V13.01,2013-01-17 13:49:00,
2013-01-17 08:50:00,33.1,29.7,29.87,SSE,150,0.0,0.0,87,0.00,,SKC,0.00,VWS V13.01,2013-01-17 13:50:00,
2013-01-17 08:51:00,33.1,29.7,29.87,SW,223,1.0,1.0,87,0.00,,SKC,0.00,VWS V13.01,2013-01-17 13:51:00,
2013-01-17 08:52:00,33.1,29.4,29.87,West,272,3.0,4.0,86,0.00,,SKC,0.00,VWS V13.01,2013-01-17 13:52:00,
2013-01-17 08:53:00,33.2,29.5,29.87,West,277,2.0,4.0,86,0.00,,SKC,0.00,VWS V13.01,2013-01-17 13:53:00,
2013-01-17 08:54:00,32.9,29.5,29.87,West,273,0.0,0.0,87,0.00,,SKC,0.00,VWS V13.01,2013-01-17 13:54:00,
2013-01-17 08:55:00,33.2,29.5,29.87,WNW,283,0.0,4.0,86,0.00,,SKC,0.00,VWS V13.01,2013-01-17 13:55:00,
2013-01-17 08:56:00,33.2,29.5,29.87,WNW,292,0.0,4.0,86,0.00,,SKC,0.00,VWS V13.01,2013-01-17 13:56:00,
2013-01-17 08:57:00,33.3,29.6,29.87,WNW,292,0.0,4.0,86,0.00,,SKC,0.00,VWS V13.01,2013-01-17 13:57:00,
2013-01-17 08:58:00,33.3,29.6,29.87,WNW,292,0.0,4.0,86,0.00,,SKC,0.00,VWS V13.01,2013-01-17 13:58:00,
2013-01-17 08:59:00,33.1,29.7,29.87,SSE,150,0.0,0.0,87,0.00,,SKC,0.00,VWS V13.01,2013-01-17 13:59:00,
2013-01-17 09:00:00,33.5,29.8,29.88,NW,315,1.0,4.0,86,0.00,,SKC,0.00,VWS V13.01,2013-01-17 14:00:00,
2013-01-17 09:01:00,33.5,29.8,29.88,NW,315,0.0,1.0,86,0.00,,SKC,0.00,VWS V13.01,2013-01-17 14:01:00,
2013-01-17 09:02:00,33.5,29.8,29.88,NW,316,3.0,3.0,86,0.00,,SKC,0.00,VWS V13.01,2013-01-17 14:02:00,
2013-01-17 09:03:00,33.6,29.9,29.88,North,360,2.0,3.0,86,0.00,,SKC,0.00,VWS V13.01,2013-01-17 14:03:00,
2013-01-17 09:04:00,33.2,29.5,29.87,West,278,0.0,4.0,86,0.00,,SKC,0.00,VWS V13.01,2013-01-17 14:04:00,
2013-01-17 09:05:00,33.7,30.0,29.88,North,9,0.0,3.0,86,0.00,,SKC,0.00,VWS V13.01,2013-01-17 14:05:00,
2013-01-17 09:06:00,33.7,30.0,29.88,NE,48,0.0,3.0,86,0.00,,SKC,0.00,VWS V13.01,2013-01-17 14:06:00,
2013-01-17 09:07:00,33.8,30.1,29.88,NE,34,0.0,3.0,86,0.00,,SKC,0.00,VWS V13.01,2013-01-17 14:07:00,
2013-01-17 09:08:00,33.8,30.1,29.88,NNW,348,2.0,5.0,86,0.00,,SKC,0.00,VWS V13.01,2013-01-17 14:08:00,
2013-01-17 09:09:00,33.9,30.2,29.87,NNW,344,1.0,5.0,86,0.00,,SKC,0.00,VWS V13.01,2013-01-17 14:09:00,
2013-01-17 09:10:00,33.5,29.8,29.88,NW,315,1.0,4.0,86,0.00,,SKC,0.00,VWS V13.01,2013-01-17 14:10:00,
2013-01-17 09:11:00,34.0,30.3,29.88,NNW,345,0.0,5.0,86,0.00,,SKC,0.00,VWS V13.01,2013-01-17 14:11:00,
2013-01-17 09:12:00,34.1,30.4,29.88,North,355,0.0,5.0,86,0.00,,SKC,0.00,VWS V13.01,2013-01-17 14:12:00,
2013-01-17 09:13:00,34.2,30.5,29.88,WNW,296,0.0,5.0,86,0.00,,SKC,0.00,VWS V13.01,2013-01-17 14:13:00,
2013-01-17 09:14:00,34.3,30.3,29.88,WNW,282,1.0,5.0,85,0.00,,SKC,0.00,VWS V13.01,2013-01-17 14:14:00,
2013-01-17 09:15:00,34.4,30.4,29.88,WNW,301,2.0,5.0,85,0.00,,SKC,0.00,VWS V13.01,2013-01-17 14:15:00,
2013-01-17 09:16:00,33.7,30.0,29.88,NE,50,0.0,3.0,86,0.00,,SKC,0.00,VWS V13.01,2013-01-17 14:16:00,
2013-01-17 09:17:00,34.4,30.4,29.88,WNW,302,2.0,10.0,85,0.00,,SKC,0.00,VWS V13.01,2013-01-17 14:17:00,
2013-01-17 09:18:00,34.4,30.4,29.88,WNW,302,1.0,10.0,85,0.00,,SKC,0.00,VWS V13.01,2013-01-17 14:18:00,
2013-01-17 09:19:00,34.4,30.4,29.88,WNW,302,2.0,10.0,85,0.00,,SKC,0.00,VWS V13.01,2013-01-17 14:19:00,
2013-01-17 09:20:00,34.5,30.5,29.88,WNW,302,0.0,10.0,85,0.00,,SKC,0.00,VWS V13.01,2013-01-17 14:20:00,
2013-01-17 09:21:00,34.0,30.3,29.88,NNW,345,0.0,5.0,86,0.00,,SKC,0.00,VWS V13.01,2013-01-17 14:21:00,
2013-01-17 09:22:00,34.6,30.3,29.88,NNW,329,2.0,10.0,84,0.00,,SKC,0.00,VWS V13.01,2013-01-17 14:22:00,
2013-01-17 09:23:00,34.7,30.4,29.88,NNW,329,1.0,10.0,84,0.00,,SKC,0.00,VWS V13.01,2013-01-17 14:23:00,
2013-01-17 09:24:00,34.7,30.4,29.88,NNW,329,0.0,10.0,84,0.00,,SKC,0.00,VWS V13.01,2013-01-17 14:24:00,
2013-01-17 09:25:00,34.8,30.5,29.88,NNW,329,0.0,10.0,84,0.00,,SKC,0.00,VWS V13.01,2013-01-17 14:25:00,
2013-01-17 09:26:00,34.4,30.4,29.88,NW,306,1.0,5.0,85,0.00,,SKC,0.00,VWS V13.01,2013-01-17 14:26:00,
2013-01-17 09:27:00,34.8,30.5,29.88,NNW,329,2.0,10.0,84,0.00,,SKC,0.00,VWS V13.01,2013-01-17 14:27:00,
2013-01-17 09:28:00,34.8,30.5,29.88,NNW,333,3.0,10.0,84,0.00,,SKC,0.00,VWS V13.01,2013-01-17 14:28:00,
2013-01-17 09:29:00,34.7,30.4,29.88,NNW,334,2.0,10.0,84,0.00,,SKC,0.00,VWS V13.01,2013-01-17 14:29:00,
2013-01-17 09:30:00,34.7,30.4,29.88,NNW,331,0.0,10.0,84,0.00,,SKC,0.00,VWS V13.01,2013-01-17 14:30:00,
2013-01-17 09:31:00,34.6,30.6,29.87,NW,321,2.0,10.0,85,0.00,,SKC,0.00,VWS V13.01,2013-01-17 14:31:00,
2013-01-17 09:32:00,34.8,30.5,29.88,WNW,286,0.0,2.0,84,0.00,,SKC,0.00,VWS V13.01,2013-01-17 14:32:00,
2013-01-17 09:33:00,34.8,30.5,29.88,WNW,286,1.0,2.0,84,0.00,,SKC,0.00,VWS V13.01,2013-01-17 14:33:00,
2013-01-17 09:34:00,34.9,30.6,29.88,WNW,284,2.0,3.0,84,0.00,,SKC,0.00,VWS V13.01,2013-01-17 14:34:00,
2013-01-17 09:35:00,35.0,30.7,29.88,WNW,284,0.0,3.0,84,0.00,,SKC,0.00,VWS V13.01,2013-01-17 14:35:00,
2013-01-17 09:36:00,34.8,30.8,29.88,NNW,329,0.0,10.0,85,0.00,,SKC,0.00,VWS V13.01,2013-01-17 14:36:00,
2013-01-17 09:37:00,35.0,30.7,29.87,WNW,283,1.0,5.0,84,0.00,,SKC,0.00,VWS V13.01,2013-01-17 14:37:00,
2013-01-17 09:38:00,35.1,30.8,29.88,WNW,298,1.0,5.0,84,0.00,,SKC,0.00,VWS V13.01,2013-01-17 14:38:00,
2013-01-17 09:39:00,35.1,30.8,29.88,WNW,285,3.0,5.0,84,0.00,,SKC,0.00,VWS V13.01,2013-01-17 14:39:00,
2013-01-17 09:40:00,35.1,30.8,29.88,West,261,4.0,5.0,84,0.00,,SKC,0.00,VWS V13.01,2013-01-17 14:40:00,
2013-01-17 09:41:00,34.7,30.4,29.88,WNW,286,1.0,2.0,84,0.00,,SKC,0.00,VWS V13.01,2013-01-17 14:41:00,
2013-01-17 09:42:00,35.2,30.9,29.88,West,263,0.0,5.0,84,0.00,,SKC,0.00,VWS V13.01,2013-01-17 14:42:00,
2013-01-17 09:43:00,35.2,30.9,29.88,West,263,2.0,5.0,84,0.00,,SKC,0.00,VWS V13.01,2013-01-17 14:43:00,
2013-01-17 09:44:00,35.2,30.9,29.88,West,263,2.0,5.0,84,0.00,,SKC,0.01,VWS V13.01,2013-01-17 14:44:00,
2013-01-17 09:45:00,35.2,30.6,29.88,West,259,3.0,5.0,83,0.01,,SKC,0.01,VWS V13.01,2013-01-17 14:45:00,
2013-01-17 09:46:00,35.0,30.7,29.88,WNW,284,1.0,3.0,84,0.00,,SKC,0.00,VWS V13.01,2013-01-17 14:46:00,
2013-01-17 09:47:00,35.2,30.9,29.88,NNE,24,1.0,5.0,84,0.01,,SKC,0.01,VWS V13.01,2013-01-17 14:47:00,
2013-01-17 09:48:00,35.2,30.9,29.88,NW,321,1.0,5.0,84,0.01,,SKC,0.01,VWS V13.01,2013-01-17 14:48:00,
2013-01-17 09:49:00,35.2,30.9,29.88,NW,318,2.0,5.0,84,0.01,,SKC,0.01,VWS V13.01,2013-01-17 14:49:00,
2013-01-17 09:50:00,35.2,30.6,29.88,WSW,257,4.0,5.0,83,0.01,,SKC,0.01,VWS V13.01,2013-01-17 14:50:00,
2013-01-17 09:51:00,35.1,30.8,29.88,West,263,0.0,5.0,84,0.00,,SKC,0.00,VWS V13.01,2013-01-17 14:51:00,
2013-01-17 09:52:00,35.1,30.5,29.88,West,265,3.0,5.0,83,0.01,,SKC,0.01,VWS V13.01,2013-01-17 14:52:00,
2013-01-17 09:53:00,35.1,30.5,29.88,WNW,287,2.0,5.0,83,0.01,,SKC,0.01,VWS V13.01,2013-01-17 14:53:00,
2013-01-17 09:54:00,35.1,30.5,29.88,WNW,287,0.0,5.0,83,0.01,,SKC,0.01,VWS V13.01,2013-01-17 14:54:00,
2013-01-17 09:55:00,35.2,30.9,29.88,West,267,2.0,5.0,84,0.01,,SKC,0.01,VWS V13.01,2013-01-17 14:55:00,
2013-01-17 09:56:00,35.2,30.6,29.88,West,259,0.0,5.0,83,0.01,,SKC,0.01,VWS V13.01,2013-01-17 14:56:00,
2013-01-17 09:57:00,35.2,30.6,29.88,NNW,333,2.0,6.0,83,0.01,,SKC,0.01,VWS V13.01,2013-01-17 14:57:00,
2013-01-17 09:58:00,35.2,30.6,29.88,NNW,333,0.0,6.0,83,0.01,,SKC,0.01,VWS V13.01,2013-01-17 14:58:00,
2013-01-17 09:59:00,35.3,30.7,29.88,NNW,331,0.0,6.0,83,0.01,,SKC,0.01,VWS V13.01,2013-01-17 14:59:00,
2013-01-17 10:00:00,35.4,30.8,29.88,NW,321,2.0,6.0,83,0.01,,SKC,0.01,VWS V13.01,2013-01-17 15:00:00,
2013-01-17 10:01:00,35.5,30.9,29.88,NW,313,1.0,5.0,83,0.01,,SKC,0.01,VWS V13.01,2013-01-17 15:01:00,
2013-01-17 10:02:00,35.1,30.5,29.88,West,264,2.0,5.0,83,0.01,,SKC,0.01,VWS V13.01,2013-01-17 15:02:00,
2013-01-17 10:03:00,35.5,30.9,29.88,NW,311,2.0,5.0,83,0.01,,SKC,0.01,VWS V13.01,2013-01-17 15:03:00,
2013-01-17 10:04:00,35.5,30.9,29.88,NW,312,0.0,5.0,83,0.02,,SKC,0.02,VWS V13.01,2013-01-17 15:04:00,
2013-01-17 10:05:00,35.6,31.0,29.88,NW,311,0.0,5.0,83,0.02,,SKC,0.02,VWS V13.01,2013-01-17 15:05:00,
2013-01-17 10:06:00,35.6,31.0,29.88,WNW,286,2.0,5.0,83,0.02,,SKC,0.02,VWS V13.01,2013-01-17 15:06:00,
2013-01-17 10:07:00,35.2,30.6,29.88,North,360,2.0,6.0,83,0.01,,SKC,0.01,VWS V13.01,2013-01-17 15:07:00,
2013-01-17 10:08:00,35.7,31.0,29.88,West,261,3.0,5.0,83,0.02,,SKC,0.03,VWS V13.01,2013-01-17 15:08:00,
2013-01-17 10:09:00,35.7,31.0,29.88,WNW,290,0.0,5.0,83,0.03,,SKC,0.03,VWS V13.01,2013-01-17 15:09:00,
2013-01-17 10:10:00,35.8,30.9,29.88,WNW,290,0.0,5.0,82,0.03,,SKC,0.03,VWS V13.01,2013-01-17 15:10:00,
2013-01-17 10:11:00,35.7,30.8,29.88,SSW,206,3.0,5.0,82,0.03,,SKC,0.03,VWS V13.01,2013-01-17 15:11:00,
2013-01-17 10:12:00,35.5,30.9,29.88,NW,313,1.0,5.0,83,0.01,,SKC,0.01,VWS V13.01,2013-01-17 15:12:00,
2013-01-17 10:13:00,35.8,30.9,29.88,WNW,291,2.0,7.0,82,0.04,,SKC,0.04,VWS V13.01,2013-01-17 15:13:00,
2013-01-17 10:14:00,35.9,31.0,29.88,West,264,1.0,7.0,82,0.04,,SKC,0.04,VWS V13.01,2013-01-17 15:14:00,
2013-01-17 10:15:00,35.9,31.0,29.88,West,265,0.0,7.0,82,0.05,,SKC,0.05,VWS V13.01,2013-01-17 15:15:00,
2013-01-17 10:16:00,36.0,31.0,29.89,West,269,3.0,7.0,82,0.05,,SKC,0.05,VWS V13.01,2013-01-17 15:16:00,
2013-01-17 10:17:00,35.6,31.0,29.88,WSW,240,0.0,5.0,83,0.02,,SKC,0.02,VWS V13.01,2013-01-17 15:17:00,
2013-01-17 10:18:00,36.0,30.8,29.89,West,279,0.0,7.0,81,0.05,,SKC,0.06,VWS V13.01,2013-01-17 15:18:00,
2013-01-17 10:19:00,36.1,31.1,29.89,WSW,257,5.0,7.0,82,0.06,,SKC,0.06,VWS V13.01,2013-01-17 15:19:00,
2013-01-17 10:20:00,36.1,31.1,29.88,WSW,257,3.0,7.0,82,0.06,,SKC,0.06,VWS V13.01,2013-01-17 15:20:00,
2013-01-17 10:21:00,36.2,31.2,29.88,WSW,257,0.0,7.0,82,0.06,,SKC,0.07,VWS V13.01,2013-01-17 15:21:00,
2013-01-17 10:22:00,35.8,30.9,29.88,NW,311,0.0,7.0,82,0.04,,SKC,0.04,VWS V13.01,2013-01-17 15:22:00,
2013-01-17 10:23:00,36.4,31.4,29.88,WSW,257,2.0,7.0,82,0.07,,SKC,0.07,VWS V13.01,2013-01-17 15:23:00,
2013-01-17 10:24:00,36.5,31.5,29.88,WSW,257,1.0,7.0,82,0.07,,SKC,0.07,VWS V13.01,2013-01-17 15:24:00,
2013-01-17 10:25:00,36.6,31.6,29.88,WSW,239,3.0,7.0,82,0.08,,SKC,0.08,VWS V13.01,2013-01-17 15:25:00,
2013-01-17 10:26:00,36.7,31.4,29.88,West,263,4.0,7.0,81,0.08,,SKC,0.08,VWS V13.01,2013-01-17 15:26:00,
2013-01-17 10:27:00,36.0,31.0,29.89,West,281,2.0,7.0,82,0.05,,SKC,0.05,VWS V13.01,2013-01-17 15:27:00,
2013-01-17 10:28:00,36.8,31.5,29.88,WSW,240,1.0,7.0,81,0.09,,SKC,0.09,VWS V13.01,2013-01-17 15:28:00,
2013-01-17 10:29:00,36.8,31.5,29.88,WNW,290,2.0,7.0,81,0.09,,SKC,0.09,VWS V13.01,2013-01-17 15:29:00,
2013-01-17 10:30:00,36.8,31.2,29.88,West,270,1.0,9.0,80,0.09,,SKC,0.09,VWS V13.01,2013-01-17 15:30:00,
2013-01-17 10:31:00,36.7,31.1,29.88,WNW,286,0.0,5.0,80,0.09,,SKC,0.09,VWS V13.01,2013-01-17 15:31:00,
2013-01-17 10:32:00,36.2,31.2,29.88,WSW,257,0.0,7.0,82,0.07,,SKC,0.07,VWS V13.01,2013-01-17 15:32:00,
2013-01-17 10:33:00,36.7,31.1,29.88,West,261,2.0,5.0,80,0.10,,SKC,0.10,VWS V13.01,2013-01-17 15:33:00,
2013-01-17 10:34:00,36.8,31.2,29.88,West,268,6.0,7.0,80,0.10,,SKC,0.10,VWS V13.01,2013-01-17 15:34:00,
2013-01-17 10:35:00,36.8,31.5,29.88,West,266,5.0,7.0,81,0.11,,SKC,0.11,VWS V13.01,2013-01-17 15:35:00,
2013-01-17 10:36:00,36.7,31.1,29.88,WNW,282,3.0,7.0,80,0.11,,SKC,0.11,VWS V13.01,2013-01-17 15:36:00,
2013-01-17 10:37:00,36.8,31.5,29.88,South,185,3.0,7.0,81,0.08,,SKC,0.08,VWS V13.01,2013-01-17 15:37:00,
2013-01-17 10:38:00,36.5,30.9,29.87,WSW,241,2.0,10.0,80,0.11,,SKC,0.11,VWS V13.01,2013-01-17 15:38:00,
2013-01-17 10:39:00,36.5,30.9,29.87,WNW,284,7.0,10.0,80,0.12,,SKC,0.12,VWS V13.01,2013-01-17 15:39:00,
2013-01-17 10:40:00,36.4,31.1,29.87,WNW,283,0.0,10.0,81,0.12,,SKC,0.12,VWS V13.01,2013-01-17 15:40:00,
2013-01-17 10:41:00,36.3,31.0,29.87,WSW,240,3.0,10.0,81,0.12,,SKC,0.12,VWS V13.01,2013-01-17 15:41:00,
2013-01-17 10:42:00,36.7,31.4,29.88,WSW,244,2.0,5.0,81,0.10,,SKC,0.10,VWS V13.01,2013-01-17 15:42:00,
2013-01-17 10:43:00,36.2,30.9,29.87,WSW,247,2.0,10.0,81,0.13,,SKC,0.13,VWS V13.01,2013-01-17 15:43:00,
2013-01-17 10:44:00,36.3,31.0,29.88,West,277,3.0,10.0,81,0.13,,SKC,0.13,VWS V13.01,2013-01-17 15:44:00,
2013-01-17 10:45:00,36.3,31.0,29.88,West,273,0.0,10.0,81,0.13,,SKC,0.13,VWS V13.01,2013-01-17 15:45:00,
2013-01-17 10:46:00,36.3,31.0,29.88,West,281,3.0,10.0,81,0.13,,SKC,0.13,VWS V13.01,2013-01-17 15:46:00,
2013-01-17 10:47:00,36.6,31.0,29.88,SW,230,4.0,10.0,80,0.11,,SKC,0.11,VWS V13.01,2013-01-17 15:47:00,
2013-01-17 10:48:00,36.2,30.9,29.87,WSW,246,2.0,10.0,81,0.14,,SKC,0.14,VWS V13.01,2013-01-17 15:48:00,
2013-01-17 10:49:00,36.2,30.9,29.88,WSW,248,0.0,10.0,81,0.14,,SKC,0.14,VWS V13.01,2013-01-17 15:49:00,
2013-01-17 10:50:00,36.3,31.0,29.88,NW,323,7.0,10.0,81,0.14,,SKC,0.14,VWS V13.01,2013-01-17 15:50:00,
2013-01-17 10:51:00,36.2,30.9,29.88,WNW,292,1.0,10.0,81,0.14,,SKC,0.14,VWS V13.01,2013-01-17 15:51:00,
2013-01-17 10:52:00,36.3,31.0,29.87,WSW,253,3.0,10.0,81,0.12,,SKC,0.12,VWS V13.01,2013-01-17 15:52:00,
2013-01-17 10:53:00,36.4,31.1,29.88,WNW,292,4.0,10.0,81,0.14,,SKC,0.15,VWS V13.01,2013-01-17 15:53:00,
2013-01-17 10:54:00,36.4,31.1,29.88,WNW,292,0.0,10.0,81,0.15,,SKC,0.15,VWS V13.01,2013-01-17 15:54:00,
2013-01-17 10:55:00,36.5,31.2,29.88,West,275,4.0,10.0,81,0.15,,SKC,0.15,VWS V13.01,2013-01-17 15:55:00,
2013-01-17 10:56:00,36.5,31.2,29.88,West,268,1.0,10.0,81,0.15,,SKC,0.15,VWS V13.01,2013-01-17 15:56:00,
2013-01-17 10:57:00,36.6,31.6,29.88,WNW,283,1.0,10.0,82,0.15,,SKC,0.15,VWS V13.01,2013-01-17 15:57:00,
2013-01-17 10:58:00,36.3,31.0,29.87,WSW,246,1.0,10.0,81,0.14,,SKC,0.14,VWS V13.01,2013-01-17 15:58:00,
2013-01-17 10:59:00,36.8,31.8,29.87,West,261,4.0,10.0,82,0.16,,SKC,0.16,VWS V13.01,2013-01-17 15:59:00,
2013-01-17 11:00:00,36.8,31.5,29.87,SW,235,4.0,10.0,81,0.16,,SKC,0.16,VWS V13.01,2013-01-17 16:00:00,
2013-01-17 11:01:00,36.8,31.5,29.87,West,261,1.0,4.0,81,0.15,,SKC,0.16,VWS V13.01,2013-01-17 16:01:00,
2013-01-17 11:02:00,37.0,31.7,29.87,West,260,2.0,4.0,81,0.15,,SKC,0.16,VWS V13.01,2013-01-17 16:02:00,
2013-01-17 11:03:00,36.4,31.1,29.88,WNW,292,0.0,10.0,81,0.14,,SKC,0.14,VWS V13.01,2013-01-17 16:03:00,
2013-01-17 11:04:00,37.1,31.8,29.87,NW,304,0.0,5.0,81,0.15,,SKC,0.16,VWS V13.01,2013-01-17 16:04:00,
2013-01-17 11:05:00,37.3,32.0,29.87,NW,304,0.0,5.0,81,0.16,,SKC,0.17,VWS V13.01,2013-01-17 16:05:00,
2013-01-17 11:06:00,37.5,31.9,29.87,West,277,1.0,7.0,80,0.16,,SKC,0.17,VWS V13.01,2013-01-17 16:06:00,
2013-01-17 11:07:00,37.6,32.0,29.87,SW,225,5.0,7.0,80,0.16,,SKC,0.17,VWS V13.01,2013-01-17 16:07:00,
2013-01-17 11:08:00,36.6,31.3,29.88,WNW,283,0.0,10.0,81,0.15,,SKC,0.15,VWS V13.01,2013-01-17 16:08:00,
2013-01-17 11:09:00,37.7,31.8,29.87,West,272,2.0,7.0,79,0.16,,SKC,0.17,VWS V13.01,2013-01-17 16:09:00,
2013-01-17 11:10:00,37.7,31.8,29.87,WNW,300,3.0,7.0,79,0.17,,SKC,0.18,VWS V13.01,2013-01-17 16:10:00,
2013-01-17 11:11:00,37.7,31.8,29.87,West,263,3.0,7.0,79,0.17,,SKC,0.18,VWS V13.01,2013-01-17 16:11:00,
2013-01-17 11:12:00,37.7,31.8,29.87,WSW,242,0.0,7.0,79,0.17,,SKC,0.18,VWS V13.01,2013-01-17 16:12:00,
2013-01-17 11:13:00,37.0,31.7,29.87,WNW,298,5.0,5.0,81,0.15,,SKC,0.16,VWS V13.01,2013-01-17 16:13:00,
2013-01-17 11:14:00,37.7,31.8,29.88,NNW,336,3.0,7.0,79,0.17,,SKC,0.18,VWS V13.01,2013-01-17 16:14:00,
2013-01-17 11:15:00,37.7,31.8,29.88,NNW,333,3.0,7.0,79,0.18,,SKC,0.19,VWS V13.01,2013-01-17 16:15:00,
2013-01-17 11:16:00,37.9,32.0,29.88,NW,313,1.0,7.0,79,0.18,,SKC,0.19,VWS V13.01,2013-01-17 16:16:00,
2013-01-17 11:17:00,37.9,32.0,29.88,WSW,247,4.0,7.0,79,0.18,,SKC,0.19,VWS V13.01,2013-01-17 16:17:00,
2013-01-17 11:18:00,37.6,32.0,29.87,WSW,239,2.0,7.0,80,0.16,,SKC,0.17,VWS V13.01,2013-01-17 16:18:00,
2013-01-17 11:19:00,38.0,32.1,29.88,WSW,247,0.0,7.0,79,0.19,,SKC,0.20,VWS V13.01,2013-01-17 16:19:00,
2013-01-17 11:20:00,38.0,32.1,29.88,SW,234,2.0,7.0,79,0.19,,SKC,0.20,VWS V13.01,2013-01-17 16:20:00,
2013-01-17 11:21:00,38.0,31.8,29.88,SW,217,0.0,7.0,78,0.19,,SKC,0.20,VWS V13.01,2013-01-17 16:21:00,
2013-01-17 11:22:00,38.0,31.8,29.88,WSW,242,1.0,7.0,78,0.19,,SKC,0.20,VWS V13.01,2013-01-17 16:22:00,
2013-01-17 11:23:00,37.7,31.5,29.88,WSW,242,0.0,7.0,78,0.17,,SKC,0.18,VWS V13.01,2013-01-17 16:23:00,
2013-01-17 11:24:00,37.8,31.6,29.88,SSW,200,3.0,10.0,78,0.20,,SKC,0.21,VWS V13.01,2013-01-17 16:24:00,
2013-01-17 11:25:00,37.8,31.6,29.88,NW,323,3.0,10.0,78,0.20,,SKC,0.21,VWS V13.01,2013-01-17 16:25:00,
2013-01-17 11:26:00,37.7,31.5,29.88,SSW,209,2.0,10.0,78,0.20,,SKC,0.21,VWS V13.01,2013-01-17 16:26:00,
2013-01-17 11:27:00,37.7,31.5,29.88,NE,46,2.0,10.0,78,0.20,,SKC,0.21,VWS V13.01,2013-01-17 16:27:00,
2013-01-17 11:28:00,37.9,32.0,29.88,WSW,247,0.0,7.0,79,0.18,,SKC,0.19,VWS V13.01,2013-01-17 16:28:00,
2013-01-17 11:29:00,37.7,31.8,29.88,NE,48,2.0,10.0,79,0.21,,SKC,0.22,VWS V13.01,2013-01-17 16:29:00,
2013-01-17 11:30:00,37.7,31.8,29.88,West,270,3.0,10.0,79,0.21,,SKC,0.22,VWS V13.01,2013-01-17 16:30:00,
2013-01-17 11:31:00,37.7,31.8,29.88,NW,310,1.0,4.0,79,0.13,,SKC,0.22,VWS V13.01,2013-01-17 16:31:00,
2013-01-17 11:32:00,37.7,31.8,29.88,ENE,67,1.0,6.0,79,0.13,,SKC,0.22,VWS V13.01,2013-01-17 16:32:00,
2013-01-17 11:33:00,38.0,31.8,29.88,WSW,243,2.0,7.0,78,0.19,,SKC,0.20,VWS V13.01,2013-01-17 16:33:00,
2013-01-17 11:34:00,37.7,31.8,29.87,West,264,1.0,6.0,79,0.13,,SKC,0.22,VWS V13.01,2013-01-17 16:34:00,
2013-01-17 11:35:00,37.7,31.8,29.87,West,263,0.0,6.0,79,0.14,,SKC,0.23,VWS V13.01,2013-01-17 16:35:00,
2013-01-17 11:36:00,37.8,31.9,29.88,West,263,2.0,6.0,79,0.14,,SKC,0.23,VWS V13.01,2013-01-17 16:36:00,
2013-01-17 11:37:00,37.9,32.0,29.88,West,276,3.0,6.0,79,0.14,,SKC,0.23,VWS V13.01,2013-01-17 16:37:00,
2013-01-17 11:38:00,37.7,31.5,29.88,NE,49,3.0,10.0,78,0.20,,SKC,0.21,VWS V13.01,2013-01-17 16:38:00,
2013-01-17 11:39:00,38.0,32.1,29.88,SW,228,4.0,6.0,79,0.14,,SKC,0.23,VWS V13.01,2013-01-17 16:39:00,
2013-01-17 11:40:00,38.0,31.8,29.88,SW,225,1.0,6.0,78,0.14,,SKC,0.23,VWS V13.01,2013-01-17 16:40:00,
2013-01-17 11:41:00,38.0,31.8,29.88,WNW,286,4.0,6.0,78,0.14,,SKC,0.24,VWS V13.01,2013-01-17 16:41:00,
2013-01-17 11:42:00,38.0,31.4,29.88,West,272,3.0,10.0,77,0.15,,SKC,0.24,VWS V13.01,2013-01-17 16:42:00,
2013-01-17 11:43:00,37.7,31.8,29.87,WSW,257,5.0,6.0,79,0.13,,SKC,0.22,VWS V13.01,2013-01-17 16:43:00,
2013-01-17 11:44:00,38.0,31.8,29.88,West,273,3.0,10.0,78,0.15,,SKC,0.24,VWS V13.01,2013-01-17 16:44:00,
2013-01-17 11:45:00,37.9,31.7,29.88,West,261,3.0,10.0,78,0.15,,SKC,0.24,VWS V13.01,2013-01-17 16:45:00,
2013-01-17 11:46:00,37.9,31.7,29.88,WSW,242,3.0,10.0,78,0.15,,SKC,0.24,VWS V13.01,2013-01-17 16:46:00,
2013-01-17 11:47:00,37.9,31.7,29.88,NNW,329,0.0,10.0,78,0.16,,SKC,0.25,VWS V13.01,2013-01-17 16:47:00,
2013-01-17 11:48:00,37.9,32.0,29.87,West,277,1.0,6.0,79,0.14,,SKC,0.23,VWS V13.01,2013-01-17 16:48:00,
2013-01-17 11:49:00,37.8,31.6,29.88,SSW,204,7.0,10.0,78,0.16,,SKC,0.25,VWS V13.01,2013-01-17 16:49:00,
2013-01-17 11:50:00,37.8,31.6,29.88,SW,223,2.0,10.0,78,0.16,,SKC,0.25,VWS V13.01,2013-01-17 16:50:00,
2013-01-17 11:51:00,37.9,31.7,29.88,WSW,250,3.0,10.0,78,0.16,,SKC,0.25,VWS V13.01,2013-01-17 16:51:00,
2013-01-17 11:52:00,37.9,31.7,29.88,West,265,3.0,10.0,78,0.16,,SKC,0.25,VWS V13.01,2013-01-17 16:52:00,
2013-01-17 11:53:00,38.0,31.4,29.88,West,277,1.0,10.0,77,0.15,,SKC,0.24,VWS V13.01,2013-01-17 16:53:00,
2013-01-17 11:54:00,37.9,31.4,29.88,West,269,5.0,10.0,77,0.17,,SKC,0.26,VWS V13.01,2013-01-17 16:54:00,
2013-01-17 11:55:00,37.9,31.4,29.88,West,273,2.0,10.0,77,0.17,,SKC,0.26,VWS V13.01,2013-01-17 16:55:00,
2013-01-17 11:56:00,37.9,31.4,29.88,NE,42,1.0,10.0,77,0.17,,SKC,0.26,VWS V13.01,2013-01-17 16:56:00,
2013-01-17 11:57:00,38.0,31.4,29.88,West,259,4.0,10.0,77,0.17,,SKC,0.26,VWS V13.01,2013-01-17 16:57:00,
2013-01-17 11:58:00,37.9,31.4,29.88,West,270,5.0,10.0,77,0.16,,SKC,0.25,VWS V13.01,2013-01-17 16:58:00,
2013-01-17 11:59:00,38.0,31.8,29.89,WSW,246,0.0,10.0,78,0.17,,SKC,0.26,VWS V13.01,2013-01-17 16:59:00,
2013-01-17 12:00:00,38.0,31.8,29.89,West,273,1.0,10.0,78,0.18,,SKC,0.27,VWS V13.01,2013-01-17 17:00:00,
2013-01-17 12:01:00,38.0,31.8,29.89,WNW,300,6.0,6.0,78,0.11,,SKC,0.27,VWS V13.01,2013-01-17 17:01:00,
2013-01-17 12:02:00,38.0,31.8,29.89,SW,225,1.0,6.0,78,0.11,,SKC,0.27,VWS V13.01,2013-01-17 17:02:00,
2013-01-17 12:03:00,38.0,31.8,29.89,SW,229,1.0,6.0,78,0.11,,SKC,0.27,VWS V13.01,2013-01-17 17:03:00,
2013-01-17 12:04:00,37.9,31.4,29.88,WNW,287,4.0,10.0,77,0.17,,SKC,0.26,VWS V13.01,2013-01-17 17:04:00,
2013-01-17 12:05:00,38.0,31.8,29.89,WSW,245,2.0,6.0,78,0.11,,SKC,0.27,VWS V13.01,2013-01-17 17:05:00,
2013-01-17 12:06:00,38.0,31.8,29.89,West,261,4.0,6.0,78,0.11,,SKC,0.27,VWS V13.01,2013-01-17 17:06:00,
2013-01-17 12:07:00,38.0,31.8,29.89,WSW,253,3.0,6.0,78,0.12,,SKC,0.28,VWS V13.01,2013-01-17 17:07:00,
2013-01-17 12:08:00,38.0,31.8,29.89,NNW,346,2.0,6.0,78,0.12,,SKC,0.28,VWS V13.01,2013-01-17 17:08:00,
2013-01-17 12:09:00,38.0,31.8,29.88,WSW,244,0.0,10.0,78,0.17,,SKC,0.26,VWS V13.01,2013-01-17 17:09:00,
2013-01-17 12:10:00,38.0,32.1,29.89,West,265,1.0,6.0,79,0.12,,SKC,0.28,VWS V13.01,2013-01-17 17:10:00,
2013-01-17 12:11:00,37.9,31.7,29.89,WNW,286,3.0,6.0,78,0.12,,SKC,0.28,VWS V13.01,2013-01-17 17:11:00,
2013-01-17 12:12:00,37.9,32.0,29.89,WNW,302,4.0,6.0,79,0.12,,SKC,0.28,VWS V13.01,2013-01-17 17:12:00,
2013-01-17 12:13:00,37.9,32.0,29.89,WNW,286,5.0,6.0,79,0.12,,SKC,0.28,VWS V13.01,2013-01-17 17:13:00,
2013-01-17 12:14:00,38.0,31.8,29.89,WSW,238,3.0,6.0,78,0.11,,SKC,0.27,VWS V13.01,2013-01-17 17:14:00,
2013-01-17 12:15:00,37.8,31.9,29.89,WNW,286,0.0,6.0,79,0.13,,SKC,0.29,VWS V13.01,2013-01-17 17:15:00,
2013-01-17 12:16:00,37.8,31.9,29.89,WNW,286,0.0,6.0,79,0.13,,SKC,0.29,VWS V13.01,2013-01-17 17:16:00,
2013-01-17 12:17:00,37.8,31.9,29.89,WSW,244,0.0,6.0,79,0.13,,SKC,0.29,VWS V13.01,2013-01-17 17:17:00,
2013-01-17 12:18:00,37.8,31.9,29.89,NNE,28,2.0,6.0,79,0.13,,SKC,0.29,VWS V13.01,2013-01-17 17:18:00,
2013-01-17 12:19:00,38.0,32.1,29.89,West,280,3.0,6.0,79,0.12,,SKC,0.28,VWS V13.01,2013-01-17 17:19:00,
2013-01-17 12:20:00,37.9,32.0,29.89,NNE,30,2.0,6.0,79,0.13,,SKC,0.29,VWS V13.01,2013-01-17 17:20:00,
2013-01-17 12:21:00,37.9,32.0,29.89,North,360,1.0,6.0,79,0.13,,SKC,0.29,VWS V13.01,2013-01-17 17:21:00,
2013-01-17 12:22:00,38.0,32.1,29.89,NNW,329,2.0,6.0,79,0.13,,SKC,0.29,VWS V13.01,2013-01-17 17:22:00,
2013-01-17 12:23:00,38.0,32.1,29.89,NNE,24,2.0,6.0,79,0.13,,SKC,0.29,VWS V13.01,2013-01-17 17:23:00,
2013-01-17 12:24:00,37.8,31.9,29.89,West,271,1.0,6.0,79,0.12,,SKC,0.28,VWS V13.01,2013-01-17 17:24:00,
2013-01-17 12:25:00,38.0,32.1,29.89,NNE,16,0.0,6.0,79,0.14,,SKC,0.30,VWS V13.01,2013-01-17 17:25:00,
2013-01-17 12:26:00,38.0,32.1,29.89,West,268,0.0,6.0,79,0.14,,SKC,0.30,VWS V13.01,2013-01-17 17:26:00,
2013-01-17 12:27:00,38.0,32.1,29.90,WNW,290,2.0,6.0,79,0.14,,SKC,0.30,VWS V13.01,2013-01-17 17:27:00,
2013-01-17 12:28:00,38.0,31.8,29.89,WNW,295,0.0,6.0,78,0.14,,SKC,0.30,VWS V13.01,2013-01-17 17:28:00,
2013-01-17 12:29:00,37.9,32.0,29.89,NNE,30,1.0,6.0,79,0.13,,SKC,0.29,VWS V13.01,2013-01-17 17:29:00,
2013-01-17 12:30:00,38.0,31.8,29.90,West,279,4.0,6.0,78,0.14,,SKC,0.30,VWS V13.01,2013-01-17 17:30:00,
2013-01-17 12:31:00,38.0,31.8,29.89,West,281,0.0,4.0,78,0.08,,SKC,0.30,VWS V13.01,2013-01-17 17:31:00,
2013-01-17 12:32:00,38.0,32.1,29.90,West,281,1.0,4.0,79,0.08,,SKC,0.30,VWS V13.01,2013-01-17 17:32:00,
2013-01-17 12:33:00,38.0,32.1,29.89,West,281,1.0,4.0,79,0.08,,SKC,0.30,VWS V13.01,2013-01-17 17:33:00,
2013-01-17 12:34:00,38.0,32.1,29.89,NNE,16,1.0,6.0,79,0.13,,SKC,0.29,VWS V13.01,2013-01-17 17:34:00,
2013-01-17 12:35:00,37.9,32.0,29.90,West,281,1.0,4.0,79,0.08,,SKC,0.30,VWS V13.01,2013-01-17 17:35:00,
2013-01-17 12:36:00,37.8,31.9,29.90,WNW,284,2.0,4.0,79,0.09,,SKC,0.31,VWS V13.01,2013-01-17 17:36:00,
2013-01-17 12:37:00,37.8,31.9,29.90,WNW,284,1.0,4.0,79,0.09,,SKC,0.31,VWS V13.01,2013-01-17 17:37:00,
2013-01-17 12:38:00,37.8,31.9,29.90,WNW,284,0.0,4.0,79,0.09,,SKC,0.31,VWS V13.01,2013-01-17 17:38:00,
2013-01-17 12:39:00,38.0,31.8,29.90,WNW,295,1.0,6.0,78,0.14,,SKC,0.30,VWS V13.01,2013-01-17 17:39:00,
2013-01-17 12:40:00,37.7,31.8,29.90,WNW,285,0.0,4.0,79,0.09,,SKC,0.31,VWS V13.01,2013-01-17 17:40:00,
2013-01-17 12:41:00,37.8,31.9,29.90,WNW,286,3.0,4.0,79,0.09,,SKC,0.31,VWS V13.01,2013-01-17 17:41:00,
2013-01-17 12:42:00,37.8,31.6,29.90,WSW,258,0.0,4.0,78,0.09,,SKC,0.31,VWS V13.01,2013-01-17 17:42:00,
2013-01-17 12:43:00,37.9,32.0,29.90,WSW,258,0.0,4.0,79,0.09,,SKC,0.31,VWS V13.01,2013-01-17 17:43:00,
2013-01-17 12:44:00,37.9,32.0,29.90,West,268,2.0,4.0,79,0.09,,SKC,0.31,VWS V13.01,2013-01-17 17:44:00,
2013-01-17 12:45:00,37.9,32.0,29.90,West,268,0.0,4.0,79,0.09,,SKC,0.31,VWS V13.01,2013-01-17 17:45:00,
2013-01-17 12:46:00,37.8,31.9,29.90,West,281,0.0,4.0,79,0.09,,SKC,0.31,VWS V13.01,2013-01-17 17:46:00,
2013-01-17 12:47:00,38.1,32.2,29.90,West,268,1.0,4.0,79,0.09,,SKC,0.31,VWS V13.01,2013-01-17 17:47:00,
2013-01-17 12:48:00,38.2,32.3,29.90,West,268,0.0,4.0,79,0.10,,SKC,0.32,VWS V13.01,2013-01-17 17:48:00,
2013-01-17 12:49:00,38.2,32.3,29.90,West,268,2.0,4.0,79,0.10,,SKC,0.32,VWS V13.01,2013-01-17 17:49:00,
2013-01-17 12:50:00,38.2,32.3,29.90,ENE,69,0.0,4.0,79,0.10,,SKC,0.32,VWS V13.01,2013-01-17 17:50:00,
2013-01-17 12:51:00,37.8,31.9,29.90,West,280,0.0,4.0,79,0.09,,SKC,0.31,VWS V13.01,2013-01-17 17:51:00,
2013-01-17 12:52:00,38.2,32.3,29.90,East,79,0.0,4.0,79,0.10,,SKC,0.32,VWS V13.01,2013-01-17 17:52:00,
2013-01-17 12:53:00,38.1,31.9,29.90,NE,53,2.0,4.0,78,0.10,,SKC,0.32,VWS V13.01,2013-01-17 17:53:00,
2013-01-17 12:54:00,38.0,31.8,29.90,WNW,303,4.0,4.0,78,0.10,,SKC,0.32,VWS V13.01,2013-01-17 17:54:00,
2013-01-17 12:55:00,37.9,31.7,29.90,West,276,2.0,6.0,78,0.10,,SKC,0.32,VWS V13.01,2013-01-17 17:55:00,
2013-01-17 12:56:00,38.0,32.1,29.90,West,268,0.0,4.0,79,0.09,,SKC,0.31,VWS V13.01,2013-01-17 17:56:00,
2013-01-17 12:57:00,37.8,31.2,29.90,NE,37,0.0,6.0,77,0.10,,SKC,0.32,VWS V13.01,2013-01-17 17:57:00,
2013-01-17 12:58:00,37.7,31.5,29.91,NW,306,3.0,6.0,78,0.10,,SKC,0.32,VWS V13.01,2013-01-17 17:58:00,
2013-01-17 12:59:00,37.6,31.4,29.91,NE,52,1.0,6.0,78,0.10,,SKC,0.32,VWS V13.01,2013-01-17 17:59:00,
2013-01-17 13:00:00,37.6,31.4,29.91,NNW,345,5.0,9.0,78,0.11,,SKC,0.33,VWS V13.01,2013-01-17 18:00:00,
2013-01-17 13:01:00,38.2,32.3,29.90,East,85,1.0,4.0,79,0.10,,SKC,0.32,VWS V13.01,2013-01-17 18:01:00,
2013-01-17 13:02:00,37.1,31.2,29.92,NE,56,9.0,14.0,79,0.06,,SKC,0.33,VWS V13.01,2013-01-17 18:02:00,
2013-01-17 13:03:00,36.6,30.7,29.92,NE,49,5.0,14.0,79,0.06,,SKC,0.33,VWS V13.01,2013-01-17 18:03:00,
2013-01-17 13:04:00,36.0,30.1,29.92,NE,48,6.0,14.0,79,0.06,,SKC,0.33,VWS V13.01,2013-01-17 18:04:00,
2013-01-17 13:05:00,35.7,30.1,29.92,NE,52,4.0,14.0,80,0.06,,SKC,0.33,VWS V13.01,2013-01-17 18:05:00,
2013-01-17 13:06:00,37.9,31.4,29.90,NW,325,1.0,6.0,77,0.10,,SKC,0.32,VWS V13.01,2013-01-17 18:06:00,
2013-01-17 13:07:00,34.7,29.2,29.93,NNE,14,4.0,14.0,80,0.06,,SKC,0.33,VWS V13.01,2013-01-17 18:07:00,
2013-01-17 13:08:00,34.4,29.2,29.93,NNE,14,3.0,14.0,81,0.06,,SKC,0.33,VWS V13.01,2013-01-17 18:08:00,
2013-01-17 13:09:00,34.4,29.2,29.93,NNE,13,1.0,14.0,81,0.06,,SKC,0.33,VWS V13.01,2013-01-17 18:09:00,
2013-01-17 13:10:00,34.2,29.3,29.93,NNE,14,2.0,14.0,82,0.06,,SKC,0.33,VWS V13.01,2013-01-17 18:10:00,
2013-01-17 13:11:00,37.5,31.3,29.92,ENE,76,10.0,10.0,78,0.06,,SKC,0.33,VWS V13.01,2013-01-17 18:11:00,
2013-01-17 13:12:00,33.9,29.3,29.93,NNE,29,5.0,14.0,83,0.06,,SKC,0.33,VWS V13.01,2013-01-17 18:12:00,
2013-01-17 13:13:00,33.7,29.1,29.93,NNE,19,2.0,14.0,83,0.06,,SKC,0.33,VWS V13.01,2013-01-17 18:13:00,
2013-01-17 13:14:00,33.7,29.4,29.93,NNE,18,2.0,14.0,84,0.06,,SKC,0.33,VWS V13.01,2013-01-17 18:14:00,
2013-01-17 13:15:00,33.6,29.3,29.93,NE,39,3.0,14.0,84,0.06,,SKC,0.33,VWS V13.01,2013-01-17 18:15:00,
2013-01-17 13:16:00,35.2,29.7,29.93,NNE,17,6.0,14.0,80,0.06,,SKC,0.33,VWS V13.01,2013-01-17 18:16:00,
2013-01-17 13:17:00,33.4,29.1,29.93,North,11,2.0,14.0,84,0.06,,SKC,0.33,VWS V13.01,2013-01-17 18:17:00,
2013-01-17 13:18:00,33.4,29.1,29.93,NE,51,0.0,14.0,84,0.06,,SKC,0.33,VWS V13.01,2013-01-17 18:18:00,
2013-01-17 13:19:00,33.4,29.4,29.93,NE,51,1.0,14.0,85,0.06,,SKC,0.33,VWS V13.01,2013-01-17 18:19:00,
2013-01-17 13:20:00,33.4,29.4,29.93,NNE,25,3.0,14.0,85,0.06,,SKC,0.33,VWS V13.01,2013-01-17 18:20:00,
2013-01-17 13:21:00,34.1,29.2,29.93,NNW,331,7.0,14.0,82,0.06,,SKC,0.33,VWS V13.01,2013-01-17 18:21:00,
2013-01-17 13:22:00,33.3,29.3,29.93,NNE,15,3.0,14.0,85,0.06,,SKC,0.33,VWS V13.01,2013-01-17 18:22:00,
2013-01-17 13:23:00,33.2,29.2,29.94,NE,47,2.0,14.0,85,0.06,,SKC,0.33,VWS V13.01,2013-01-17 18:23:00,
2013-01-17 13:24:00,33.2,29.2,29.94,NE,51,2.0,14.0,85,0.06,,SKC,0.33,VWS V13.01,2013-01-17 18:24:00,
2013-01-17 13:25:00,33.2,29.2,29.94,NNE,19,4.0,14.0,85,0.06,,SKC,0.33,VWS V13.01,2013-01-17 18:25:00,
2013-01-17 13:26:00,33.5,29.2,29.94,NNE,24,2.0,14.0,84,0.06,,SKC,0.33,VWS V13.01,2013-01-17 18:26:00,
2013-01-17 13:27:00,33.2,29.5,29.94,NNE,26,0.0,14.0,86,0.06,,SKC,0.33,VWS V13.01,2013-01-17 18:27:00,
2013-01-17 13:28:00,33.2,29.5,29.94,NNE,25,2.0,14.0,86,0.06,,SKC,0.33,VWS V13.01,2013-01-17 18:28:00,
2013-01-17 13:29:00,33.2,29.5,29.94,NE,43,0.0,14.0,86,0.06,,SKC,0.33,VWS V13.01,2013-01-17 18:29:00,
2013-01-17 13:30:00,33.2,29.5,29.94,NE,42,0.0,14.0,86,0.06,,SKC,0.33,VWS V13.01,2013-01-17 18:30:00,
2013-01-17 13:31:00,33.3,29.3,29.93,North,355,5.0,14.0,85,0.06,,SKC,0.33,VWS V13.01,2013-01-17 18:31:00,
2013-01-17 13:32:00,33.2,29.5,29.94,North,10,4.0,9.0,86,0.04,,SKC,0.34,VWS V13.01,2013-01-17 18:32:00,
2013-01-17 13:33:00,33.2,29.5,29.94,North,9,4.0,9.0,86,0.04,,SKC,0.34,VWS V13.01,2013-01-17 18:33:00,
2013-01-17 13:34:00,33.2,29.5,29.94,North,10,1.0,9.0,86,0.04,,SKC,0.34,VWS V13.01,2013-01-17 18:34:00,
2013-01-17 13:35:00,33.2,29.5,29.94,North,5,0.0,9.0,86,0.04,,SKC,0.34,VWS V13.01,2013-01-17 18:35:00,
2013-01-17 13:36:00,33.2,29.2,29.94,NNE,26,0.0,14.0,85,0.06,,SKC,0.33,VWS V13.01,2013-01-17 18:36:00,
2013-01-17 13:37:00,33.3,29.6,29.94,North,360,1.0,9.0,86,0.04,,SKC,0.34,VWS V13.01,2013-01-17 18:37:00,
2013-01-17 13:38:00,33.3,29.6,29.94,North,360,0.0,9.0,86,0.04,,SKC,0.34,VWS V13.01,2013-01-17 18:38:00,
2013-01-17 13:39:00,33.3,29.6,29.94,NE,34,2.0,9.0,86,0.04,,SKC,0.34,VWS V13.01,2013-01-17 18:39:00,
2013-01-17 13:40:00,33.4,29.7,29.94,NE,55,1.0,9.0,86,0.04,,SKC,0.34,VWS V13.01,2013-01-17 18:40:00,
2013-01-17 13:41:00,33.2,29.5,29.94,NE,42,1.0,1.0,86,0.04,,SKC,0.34,VWS V13.01,2013-01-17 18:41:00,
2013-01-17 13:42:00,33.4,29.7,29.95,NE,43,2.0,9.0,86,0.04,,SKC,0.34,VWS V13.01,2013-01-17 18:42:00,
2013-01-17 13:43:00,33.4,29.7,29.95,NE,42,2.0,9.0,86,0.04,,SKC,0.34,VWS V13.01,2013-01-17 18:43:00,
2013-01-17 13:44:00,33.5,29.8,29.95,NNE,17,2.0,9.0,86,0.04,,SKC,0.34,VWS V13.01,2013-01-17 18:44:00,
2013-01-17 13:45:00,33.5,29.8,29.95,NNE,22,4.0,9.0,86,0.04,,SKC,0.34,VWS V13.01,2013-01-17 18:45:00,
2013-01-17 13:46:00,33.3,29.6,29.94,North,360,2.0,9.0,86,0.04,,SKC,0.34,VWS V13.01,2013-01-17 18:46:00,
2013-01-17 13:47:00,33.5,29.8,29.95,NNE,14,0.0,9.0,86,0.04,,SKC,0.34,VWS V13.01,2013-01-17 18:47:00,
2013-01-17 13:48:00,33.6,29.9,29.95,NNE,14,0.0,9.0,86,0.04,,SKC,0.34,VWS V13.01,2013-01-17 18:48:00,
2013-01-17 13:49:00,33.6,29.9,29.95,ENE,64,3.0,9.0,86,0.04,,SKC,0.34,VWS V13.01,2013-01-17 18:49:00,
2013-01-17 13:50:00,33.6,29.9,29.95,ENE,64,2.0,9.0,86,0.04,,SKC,0.34,VWS V13.01,2013-01-17 18:50:00,
2013-01-17 13:51:00,33.4,29.7,29.94,NE,45,2.0,9.0,86,0.04,,SKC,0.34,VWS V13.01,2013-01-17 18:51:00,
2013-01-17 13:52:00,33.7,30.0,29.95,ENE,60,0.0,9.0,86,0.04,,SKC,0.34,VWS V13.01,2013-01-17 18:52:00,
2013-01-17 13:53:00,33.8,30.1,29.95,WNW,300,5.0,9.0,86,0.04,,SKC,0.34,VWS V13.01,2013-01-17 18:53:00,
2013-01-17 13:54:00,33.8,30.1,29.95,NE,34,6.0,9.0,86,0.04,,SKC,0.34,VWS V13.01,2013-01-17 18:54:00,
2013-01-17 13:55:00,33.9,29.9,29.95,NE,40,3.0,9.0,85,0.04,,SKC,0.34,VWS V13.01,2013-01-17 18:55:00,
2013-01-17 13:56:00,33.5,29.8,29.95,NNE,14,2.0,9.0,86,0.04,,SKC,0.34,VWS V13.01,2013-01-17 18:56:00,
2013-01-17 13:57:00,34.0,30.0,29.95,North,355,4.0,9.0,85,0.04,,SKC,0.34,VWS V13.01,2013-01-17 18:57:00,
2013-01-17 13:58:00,34.1,29.8,29.95,NNE,12,3.0,9.0,84,0.04,,SKC,0.34,VWS V13.01,2013-01-17 18:58:00,
2013-01-17 13:59:00,34.1,29.5,29.95,North,5,6.0,9.0,83,0.04,,SKC,0.34,VWS V13.01,2013-01-17 18:59:00,
2013-01-17 14:00:00,34.2,29.6,29.95,NNE,14,5.0,9.0,83,0.04,,SKC,0.34,VWS V13.01,2013-01-17 19:00:00,
2013-01-17 14:01:00,33.7,30.0,29.95,ENE,63,0.0,9.0,86,0.04,,SKC,0.34,VWS V13.01,2013-01-17 19:01:00,
2013-01-17 14:02:00,34.4,29.8,29.96,NNW,348,3.0,6.0,83,0.02,,SKC,0.35,VWS V13.01,2013-01-17 19:02:00,
2013-01-17 14:03:00,34.4,29.8,29.96,NE,36,4.0,6.0,83,0.02,,SKC,0.35,VWS V13.01,2013-01-17 19:03:00,
2013-01-17 14:04:00,34.4,29.5,29.96,NNE,27,5.0,10.0,82,0.02,,SKC,0.35,VWS V13.01,2013-01-17 19:04:00,
2013-01-17 14:05:00,34.4,28.9,29.96,North,355,5.0,10.0,80,0.02,,SKC,0.35,VWS V13.01,2013-01-17 19:05:00,
2013-01-17 14:06:00,33.9,29.9,29.95,North,10,7.0,9.0,85,0.04,,SKC,0.34,VWS V13.01,2013-01-17 19:06:00,
2013-01-17 14:07:00,34.4,28.6,29.96,NNE,17,2.0,10.0,79,0.02,,SKC,0.35,VWS V13.01,2013-01-17 19:07:00,
2013-01-17 14:08:00,34.4,28.0,29.96,NNW,338,2.0,11.0,77,0.02,,SKC,0.35,VWS V13.01,2013-01-17 19:08:00,
2013-01-17 14:09:00,34.5,28.0,29.96,North,9,4.0,11.0,77,0.02,,SKC,0.35,VWS V13.01,2013-01-17 19:09:00,
2013-01-17 14:10:00,34.5,28.0,29.96,NNE,28,6.0,11.0,77,0.02,,SKC,0.35,VWS V13.01,2013-01-17 19:10:00,
2013-01-17 14:11:00,34.3,29.7,29.96,NNE,13,2.0,5.0,83,0.02,,SKC,0.35,VWS V13.01,2013-01-17 19:11:00,
2013-01-17 14:12:00,34.6,27.5,29.96,NNW,330,3.0,11.0,75,0.02,,SKC,0.35,VWS V13.01,2013-01-17 19:12:00,
2013-01-17 14:13:00,34.7,27.6,29.96,NNW,345,4.0,11.0,75,0.02,,SKC,0.35,VWS V13.01,2013-01-17 19:13:00,
2013-01-17 14:14:00,34.7,27.3,29.96,North,360,2.0,11.0,74,0.02,,SKC,0.35,VWS V13.01,2013-01-17 19:14:00,
2013-01-17 14:15:00,34.6,27.2,29.96,NNE,32,5.0,11.0,74,0.02,,SKC,0.35,VWS V13.01,2013-01-17 19:15:00,
2013-01-17 14:16:00,34.4,28.9,29.96,North,355,5.0,10.0,80,0.02,,SKC,0.35,VWS V13.01,2013-01-17 19:16:00,
2013-01-17 14:17:00,34.6,27.2,29.97,North,360,6.0,11.0,74,0.02,,SKC,0.35,VWS V13.01,2013-01-17 19:17:00,
2013-01-17 14:18:00,34.7,27.0,29.97,NE,40,1.0,11.0,73,0.02,,SKC,0.35,VWS V13.01,2013-01-17 19:18:00,
2013-01-17 14:19:00,34.7,27.0,29.97,NNW,340,2.0,11.0,73,0.02,,SKC,0.35,VWS V13.01,2013-01-17 19:19:00,
2013-01-17 14:20:00,34.7,27.0,29.97,North,5,5.0,11.0,73,0.02,,SKC,0.35,VWS V13.01,2013-01-17 19:20:00,
2013-01-17 14:21:00,34.8,27.0,29.97,NNE,13,2.0,11.0,73,0.02,,SKC,0.35,VWS V13.01,2013-01-17 19:21:00,
2013-01-17 14:22:00,34.6,27.5,29.96,NNW,330,5.0,11.0,75,0.02,,SKC,0.35,VWS V13.01,2013-01-17 19:22:00,
2013-01-17 14:23:00,34.9,27.5,29.97,North,10,3.0,11.0,74,0.02,,SKC,0.36,VWS V13.01,2013-01-17 19:23:00,
2013-01-17 14:24:00,35.0,27.6,29.97,North,5,1.0,11.0,74,0.03,,SKC,0.36,VWS V13.01,2013-01-17 19:24:00,
2013-01-17 14:25:00,35.0,27.2,29.97,North,360,3.0,11.0,73,0.03,,SKC,0.36,VWS V13.01,2013-01-17 19:25:00,
2013-01-17 14:26:00,35.1,27.3,29.97,NNW,336,6.0,11.0,73,0.03,,SKC,0.36,VWS V13.01,2013-01-17 19:26:00,
2013-01-17 14:27:00,34.6,27.2,29.97,NNE,22,4.0,11.0,74,0.02,,SKC,0.35,VWS V13.01,2013-01-17 19:27:00,
2013-01-17 14:28:00,35.1,27.0,29.97,North,355,2.0,11.0,72,0.03,,SKC,0.36,VWS V13.01,2013-01-17 19:28:00,
2013-01-17 14:29:00,35.1,26.7,29.97,North,355,6.0,11.0,71,0.03,,SKC,0.36,VWS V13.01,2013-01-17 19:29:00,
2013-01-17 14:30:00,35.0,26.6,29.97,NNE,13,6.0,11.0,71,0.03,,SKC,0.36,VWS V13.01,2013-01-17 19:30:00,
2013-01-17 14:31:00,34.9,26.8,29.97,North,360,5.0,7.0,72,0.03,,SKC,0.36,VWS V13.01,2013-01-17 19:31:00,
2013-01-17 14:32:00,34.8,27.4,29.97,North,360,2.0,11.0,74,0.02,,SKC,0.35,VWS V13.01,2013-01-17 19:32:00,
2013-01-17 14:33:00,34.8,26.7,29.98,NNW,346,3.0,9.0,72,0.03,,SKC,0.36,VWS V13.01,2013-01-17 19:33:00,
2013-01-17 14:34:00,34.8,26.7,29.97,North,349,1.0,9.0,72,0.03,,SKC,0.36,VWS V13.01,2013-01-17 19:34:00,
2013-01-17 14:35:00,34.8,26.7,29.97,North,349,0.0,9.0,72,0.03,,SKC,0.36,VWS V13.01,2013-01-17 19:35:00,
2013-01-17 14:36:00,34.8,27.4,29.98,North,5,4.0,9.0,74,0.03,,SKC,0.36,VWS V13.01,2013-01-17 19:36:00,
2013-01-17 14:37:00,35.1,27.3,29.97,North,5,2.0,11.0,73,0.03,,SKC,0.36,VWS V13.01,2013-01-17 19:37:00,
2013-01-17 14:38:00,34.7,27.0,29.97,NNW,331,2.0,9.0,73,0.03,,SKC,0.36,VWS V13.01,2013-01-17 19:38:00,
2013-01-17 14:39:00,34.7,27.0,29.97,NW,326,4.0,9.0,73,0.03,,SKC,0.36,VWS V13.01,2013-01-17 19:39:00,
2013-01-17 14:40:00,34.7,26.6,29.97,NNE,19,9.0,9.0,72,0.03,,SKC,0.36,VWS V13.01,2013-01-17 19:40:00,
2013-01-17 14:41:00,34.5,26.1,29.97,NNW,330,7.0,9.0,71,0.03,,SKC,0.36,VWS V13.01,2013-01-17 19:41:00,
2013-01-17 14:42:00,34.8,26.4,29.97,NNW,345,1.0,9.0,71,0.03,,SKC,0.36,VWS V13.01,2013-01-17 19:42:00,
2013-01-17 14:43:00,34.4,26.3,29.98,North,349,2.0,9.0,72,0.03,,SKC,0.36,VWS V13.01,2013-01-17 19:43:00,
2013-01-17 14:44:00,34.4,26.7,29.98,North,350,2.0,9.0,73,0.03,,SKC,0.36,VWS V13.01,2013-01-17 19:44:00,
2013-01-17 14:45:00,34.4,26.7,29.98,North,360,3.0,9.0,73,0.03,,SKC,0.36,VWS V13.01,2013-01-17 19:45:00,
2013-01-17 14:46:00,34.4,26.7,29.97,North,351,1.0,9.0,73,0.03,,SKC,0.36,VWS V13.01,2013-01-17 19:46:00,
2013-01-17 14:47:00,34.8,27.4,29.97,NNW,332,1.0,9.0,74,0.03,,SKC,0.36,VWS V13.01,2013-01-17 19:47:00,
2013-01-17 14:48:00,34.4,27.0,29.98,NNW,334,3.0,9.0,74,0.04,,SKC,0.37,VWS V13.01,2013-01-17 19:48:00,
2013-01-17 14:49:00,34.4,27.0,29.98,North,350,4.0,9.0,74,0.04,,SKC,0.37,VWS V13.01,2013-01-17 19:49:00,
2013-01-17 14:50:00,34.4,27.0,29.98,North,351,1.0,9.0,74,0.04,,SKC,0.37,VWS V13.01,2013-01-17 19:50:00,
2013-01-17 14:51:00,34.3,26.9,29.98,NNW,342,4.0,9.0,74,0.04,,SKC,0.37,VWS V13.01,2013-01-17 19:51:00,
2013-01-17 14:52:00,34.4,26.0,29.97,NNW,335,3.0,9.0,71,0.03,,SKC,0.36,VWS V13.01,2013-01-17 19:52:00,
2013-01-17 14:53:00,34.3,26.9,29.98,NNE,27,1.0,9.0,74,0.04,,SKC,0.37,VWS V13.01,2013-01-17 19:53:00,
2013-01-17 14:54:00,34.2,26.8,29.98,NNE,28,0.0,9.0,74,0.04,,SKC,0.37,VWS V13.01,2013-01-17 19:54:00,
2013-01-17 14:55:00,34.2,26.8,29.98,NNE,28,2.0,9.0,74,0.04,,SKC,0.37,VWS V13.01,2013-01-17 19:55:00,
2013-01-17 14:56:00,34.2,27.1,29.98,North,5,1.0,9.0,75,0.04,,SKC,0.37,VWS V13.01,2013-01-17 19:56:00,
2013-01-17 14:57:00,34.4,27.0,29.97,NE,38,4.0,9.0,74,0.03,,SKC,0.36,VWS V13.01,2013-01-17 19:57:00,
2013-01-17 14:58:00,34.0,26.3,29.98,NNW,348,2.0,10.0,73,0.04,,SKC,0.37,VWS V13.01,2013-01-17 19:58:00,
2013-01-17 14:59:00,34.0,26.3,29.98,NNW,335,2.0,10.0,73,0.04,,SKC,0.37,VWS V13.01,2013-01-17 19:59:00,
2013-01-17 15:00:00,34.0,26.3,29.98,NNW,334,0.0,10.0,73,0.04,,SKC,0.37,VWS V13.01,2013-01-17 20:00:00,
2013-01-17 15:01:00,34.1,26.4,29.98,NNW,345,3.0,6.0,73,0.03,,SKC,0.37,VWS V13.01,2013-01-17 20:01:00,
2013-01-17 15:02:00,34.2,26.8,29.98,NNE,32,1.0,9.0,74,0.04,,SKC,0.37,VWS V13.01,2013-01-17 20:02:00,
2013-01-17 15:03:00,34.0,25.6,29.99,ENE,60,7.0,7.0,71,0.03,,SKC,0.37,VWS V13.01,2013-01-17 20:03:00,
2013-01-17 15:04:00,33.9,25.2,29.98,North,360,4.0,9.0,70,0.03,,SKC,0.37,VWS V13.01,2013-01-17 20:04:00,
2013-01-17 15:05:00,33.9,25.2,29.98,North,355,1.0,9.0,70,0.03,,SKC,0.37,VWS V13.01,2013-01-17 20:05:00,
2013-01-17 15:06:00,33.8,25.4,29.98,North,355,1.0,9.0,71,0.03,,SKC,0.37,VWS V13.01,2013-01-17 20:06:00,
2013-01-17 15:07:00,34.1,26.4,29.98,North,360,4.0,10.0,73,0.04,,SKC,0.37,VWS V13.01,2013-01-17 20:07:00,
2013-01-17 15:08:00,33.8,25.7,29.98,ENE,72,1.0,9.0,72,0.03,,SKC,0.37,VWS V13.01,2013-01-17 20:08:00,
2013-01-17 15:09:00,33.7,25.3,29.99,NNE,26,5.0,9.0,71,0.03,,SKC,0.37,VWS V13.01,2013-01-17 20:09:00,
2013-01-17 15:10:00,33.7,25.3,29.99,North,5,2.0,9.0,71,0.03,,SKC,0.37,VWS V13.01,2013-01-17 20:10:00,
2013-01-17 15:11:00,33.5,24.8,29.98,North,355,1.0,9.0,70,0.03,,SKC,0.37,VWS V13.01,2013-01-17 20:11:00,
2013-01-17 15:12:00,34.0,26.3,29.99,North,360,7.0,7.0,73,0.03,,SKC,0.37,VWS V13.01,2013-01-17 20:12:00,
2013-01-17 15:13:00,33.4,24.7,29.99,NNW,345,0.0,9.0,70,0.03,,SKC,0.37,VWS V13.01,2013-01-17 20:13:00,
2013-01-17 15:14:00,33.3,24.6,29.99,NNE,21,5.0,9.0,70,0.03,,SKC,0.37,VWS V13.01,2013-01-17 20:14:00,
2013-01-17 15:15:00,33.2,24.1,29.99,North,349,13.0,13.0,69,0.03,,SKC,0.37,VWS V13.01,2013-01-17 20:15:00,
2013-01-17 15:16:00,33.1,23.7,29.99,North,355,9.0,13.0,68,0.03,,SKC,0.37,VWS V13.01,2013-01-17 20:16:00,
2013-01-17 15:17:00,33.8,25.7,29.98,North,355,4.0,9.0,72,0.03,,SKC,0.37,VWS V13.01,2013-01-17 20:17:00,
2013-01-17 15:18:00,32.9,23.5,29.99,NNE,21,4.0,13.0,68,0.03,,SKC,0.37,VWS V13.01,2013-01-17 20:18:00,
2013-01-17 15:19:00,32.9,23.9,29.99,North,5,6.0,13.0,69,0.03,,SKC,0.37,VWS V13.01,2013-01-17 20:19:00,
2013-01-17 15:20:00,32.8,23.8,29.99,North,360,4.0,13.0,69,0.03,,SKC,0.37,VWS V13.01,2013-01-17 20:20:00,
2013-01-17 15:21:00,32.7,23.7,29.99,NNE,19,3.0,13.0,69,0.03,,SKC,0.37,VWS V13.01,2013-01-17 20:21:00,
2013-01-17 15:22:00,32.6,23.6,29.99,North,360,6.0,13.0,69,0.03,,SKC,0.37,VWS V13.01,2013-01-17 20:22:00,
2013-01-17 15:23:00,33.4,24.7,29.98,NNW,346,1.0,9.0,70,0.03,,SKC,0.37,VWS V13.01,2013-01-17 20:23:00,
2013-01-17 15:24:00,32.6,23.2,30.00,North,9,4.0,13.0,68,0.03,,SKC,0.37,VWS V13.01,2013-01-17 20:24:00,
2013-01-17 15:25:00,32.5,23.5,30.00,North,11,3.0,13.0,69,0.03,,SKC,0.37,VWS V13.01,2013-01-17 20:25:00,
2013-01-17 15:26:00,32.5,23.8,30.00,NNE,19,3.0,13.0,70,0.03,,SKC,0.37,VWS V13.01,2013-01-17 20:26:00,
2013-01-17 15:27:00,32.5,24.2,30.00,NE,46,6.0,13.0,71,0.03,,SKC,0.37,VWS V13.01,2013-01-17 20:27:00,
2013-01-17 15:28:00,32.9,23.5,29.99,NNE,13,4.0,13.0,68,0.03,,SKC,0.37,VWS V13.01,2013-01-17 20:28:00,
2013-01-17 15:29:00,32.3,22.9,30.00,NE,41,2.0,13.0,68,0.03,,SKC,0.37,VWS V13.01,2013-01-17 20:29:00,
2013-01-17 15:30:00,32.2,22.5,30.00,NE,36,2.0,13.0,67,0.03,,SKC,0.37,VWS V13.01,2013-01-17 20:30:00,
2013-01-17 15:31:00,32.1,22.4,30.00,North,355,5.0,5.0,67,0.01,,SKC,0.37,VWS V13.01,2013-01-17 20:31:00,
2013-01-17 15:32:00,32.1,22.8,30.00,North,360,3.0,6.0,68,0.01,,SKC,0.37,VWS V13.01,2013-01-17 20:32:00,
2013-01-17 15:33:00,32.6,23.2,29.99,North,5,4.0,13.0,68,0.03,,SKC,0.37,VWS V13.01,2013-01-17 20:33:00,
2013-01-17 15:34:00,32.0,22.3,30.01,NE,49,1.0,6.0,67,0.01,,SKC,0.37,VWS V13.01,2013-01-17 20:34:00,
2013-01-17 15:35:00,32.0,22.6,30.01,North,350,5.0,6.0,68,0.01,,SKC,0.37,VWS V13.01,2013-01-17 20:35:00,
2013-01-17 15:36:00,32.0,22.3,30.01,NNE,25,6.0,6.0,67,0.01,,SKC,0.37,VWS V13.01,2013-01-17 20:36:00,
2013-01-17 15:37:00,31.9,22.2,30.01,NE,46,2.0,6.0,67,0.01,,SKC,0.37,VWS V13.01,2013-01-17 20:37:00,
2013-01-17 15:38:00,32.4,24.1,30.00,NNE,31,11.0,13.0,71,0.03,,SKC,0.37,VWS V13.01,2013-01-17 20:38:00,
2013-01-17 15:39:00,31.9,22.2,30.01,NNW,345,6.0,10.0,67,0.01,,SKC,0.37,VWS V13.01,2013-01-17 20:39:00,
2013-01-17 15:40:00,31.8,21.8,30.01,North,360,3.0,10.0,66,0.01,,SKC,0.37,VWS V13.01,2013-01-17 20:40:00,
2013-01-17 15:41:00,31.8,21.8,30.01,NNE,13,4.0,10.0,66,0.01,,SKC,0.37,VWS V13.01,2013-01-17 20:41:00,
2013-01-17 15:42:00,31.7,21.7,30.01,ENE,59,3.0,10.0,66,0.01,,SKC,0.37,VWS V13.01,2013-01-17 20:42:00,
2013-01-17 15:43:00,32.0,22.3,30.00,North,11,4.0,6.0,67,0.01,,SKC,0.37,VWS V13.01,2013-01-17 20:43:00,
2013-01-17 15:44:00,31.6,21.6,30.01,NNW,348,5.0,10.0,66,0.01,,SKC,0.37,VWS V13.01,2013-01-17 20:44:00,
2013-01-17 15:45:00,31.6,21.2,30.01,North,355,10.0,10.0,65,0.01,,SKC,0.37,VWS V13.01,2013-01-17 20:45:00,
2013-01-17 15:46:00,31.6,20.8,30.01,NNE,19,5.0,10.0,64,0.01,,SKC,0.37,VWS V13.01,2013-01-17 20:46:00,
2013-01-17 15:47:00,31.5,21.1,30.02,NNE,15,1.0,10.0,65,0.01,,SKC,0.37,VWS V13.01,2013-01-17 20:47:00,
2013-01-17 15:48:00,31.9,22.2,30.01,North,355,6.0,10.0,67,0.01,,SKC,0.37,VWS V13.01,2013-01-17 20:48:00,
2013-01-17 15:49:00,31.5,21.1,30.02,NNE,17,1.0,10.0,65,0.01,,SKC,0.37,VWS V13.01,2013-01-17 20:49:00,
2013-01-17 15:50:00,31.5,21.1,30.02,NNE,15,5.0,10.0,65,0.01,,SKC,0.37,VWS V13.01,2013-01-17 20:50:00,
2013-01-17 15:51:00,31.4,21.0,30.02,NNW,345,0.0,10.0,65,0.01,,SKC,0.37,VWS V13.01,2013-01-17 20:51:00,
2013-01-17 15:52:00,31.4,21.0,30.01,West,281,6.0,10.0,65,0.01,,SKC,0.37,VWS V13.01,2013-01-17 20:52:00,
2013-01-17 15:53:00,31.7,21.7,30.01,North,355,4.0,10.0,66,0.01,,SKC,0.37,VWS V13.01,2013-01-17 20:53:00,
2013-01-17 15:54:00,31.3,20.5,30.01,North,5,2.0,12.0,64,0.01,,SKC,0.37,VWS V13.01,2013-01-17 20:54:00,
2013-01-17 15:55:00,31.2,20.5,30.01,NNE,18,6.0,15.0,64,0.01,,SKC,0.37,VWS V13.01,2013-01-17 20:55:00,
2013-01-17 15:56:00,31.2,20.1,30.02,NNW,339,7.0,15.0,63,0.01,,SKC,0.37,VWS V13.01,2013-01-17 20:56:00,
2013-01-17 15:57:00,31.2,20.1,30.02,North,360,3.0,15.0,63,0.01,,SKC,0.37,VWS V13.01,2013-01-17 20:57:00,
2013-01-17 15:58:00,31.5,21.5,30.02,North,355,7.0,10.0,66,0.01,,SKC,0.37,VWS V13.01,2013-01-17 20:58:00,
2013-01-17 15:59:00,31.1,20.0,30.02,NW,322,7.0,15.0,63,0.01,,SKC,0.37,VWS V13.01,2013-01-17 20:59:00,
2013-01-17 16:00:00,31.0,19.1,30.02,WNW,286,10.0,15.0,61,0.01,,SKC,0.37,VWS V13.01,2013-01-17 21:00:00,
2013-01-17 16:01:00,31.0,18.8,30.02,NW,326,1.0,10.0,60,0.00,,SKC,0.37,VWS V13.01,2013-01-17 21:01:00,
2013-01-17 16:02:00,30.9,18.7,30.02,NNW,334,3.0,10.0,60,0.00,,SKC,0.37,VWS V13.01,2013-01-17 21:02:00,
2013-01-17 16:03:00,31.4,21.0,30.01,NNE,24,9.0,10.0,65,0.01,,SKC,0.37,VWS V13.01,2013-01-17 21:03:00,
2013-01-17 16:04:00,30.8,18.6,30.02,North,350,9.0,10.0,60,0.00,,SKC,0.37,VWS V13.01,2013-01-17 21:04:00,
2013-01-17 16:05:00,30.7,18.1,30.02,North,9,2.0,10.0,59,0.00,,SKC,0.37,VWS V13.01,2013-01-17 21:05:00,
2013-01-17 16:06:00,30.7,18.1,30.02,NNW,332,3.0,10.0,59,0.00,,SKC,0.37,VWS V13.01,2013-01-17 21:06:00,
2013-01-17 16:07:00,30.6,18.0,30.02,North,355,12.0,12.0,59,0.00,,SKC,0.37,VWS V13.01,2013-01-17 21:07:00,
2013-01-17 16:08:00,31.1,20.0,30.02,NE,49,5.0,15.0,63,0.01,,SKC,0.37,VWS V13.01,2013-01-17 21:08:00,
2013-01-17 16:09:00,30.5,17.5,30.03,NE,35,0.0,13.0,58,0.00,,SKC,0.37,VWS V13.01,2013-01-17 21:09:00,
2013-01-17 16:10:00,30.5,17.9,30.03,North,5,3.0,13.0,59,0.00,,SKC,0.37,VWS V13.01,2013-01-17 21:10:00,
2013-01-17 16:11:00,30.4,17.8,30.03,ENE,60,4.0,13.0,59,0.00,,SKC,0.37,VWS V13.01,2013-01-17 21:11:00,
2013-01-17 16:12:00,30.3,17.3,30.03,North,5,6.0,13.0,58,0.00,,SKC,0.37,VWS V13.01,2013-01-17 21:12:00,
2013-01-17 16:13:00,30.9,18.7,30.02,NE,37,4.0,10.0,60,0.00,,SKC,0.37,VWS V13.01,2013-01-17 21:13:00,
2013-01-17 16:14:00,30.3,16.9,30.03,NNW,342,8.0,13.0,57,0.00,,SKC,0.37,VWS V13.01,2013-01-17 21:14:00,
2013-01-17 16:15:00,30.3,16.9,30.03,NNW,328,3.0,13.0,57,0.00,,SKC,0.37,VWS V13.01,2013-01-17 21:15:00,
2013-01-17 16:16:00,30.3,17.3,30.03,North,355,4.0,13.0,58,0.00,,SKC,0.37,VWS V13.01,2013-01-17 21:16:00,
2013-01-17 16:17:00,30.2,16.8,30.03,North,360,10.0,13.0,57,0.00,,SKC,0.37,VWS V13.01,2013-01-17 21:17:00,
2013-01-17 16:18:00,30.6,17.6,30.02,North,355,3.0,13.0,58,0.00,,SKC,0.37,VWS V13.01,2013-01-17 21:18:00,
2013-01-17 16:19:00,30.2,16.8,30.04,NNE,15,8.0,13.0,57,0.00,,SKC,0.37,VWS V13.01,2013-01-17 21:19:00,
2013-01-17 16:20:00,30.1,16.7,30.04,North,355,4.0,13.0,57,0.00,,SKC,0.37,VWS V13.01,2013-01-17 21:20:00,
2013-01-17 16:21:00,30.1,16.3,30.04,North,355,4.0,13.0,56,0.00,,SKC,0.37,VWS V13.01,2013-01-17 21:21:00,
2013-01-17 16:22:00,30.1,16.3,30.04,NNW,348,4.0,13.0,56,0.00,,SKC,0.37,VWS V13.01,2013-01-17 21:22:00,
2013-01-17 16:23:00,30.3,16.9,30.03,NNE,12,6.0,13.0,57,0.00,,SKC,0.37,VWS V13.01,2013-01-17 21:23:00,
2013-01-17 16:24:00,30.0,15.4,30.04,NE,38,4.0,13.0,54,0.00,,SKC,0.37,VWS V13.01,2013-01-17 21:24:00,
2013-01-17 16:25:00,29.9,15.7,30.04,NE,41,4.0,13.0,55,0.00,,SKC,0.37,VWS V13.01,2013-01-17 21:25:00,
2013-01-17 16:26:00,29.9,15.7,30.04,North,355,3.0,13.0,55,0.00,,SKC,0.37,VWS V13.01,2013-01-17 21:26:00,
2013-01-17 16:27:00,29.9,16.1,30.04,NNW,334,5.0,13.0,56,0.00,,SKC,0.37,VWS V13.01,2013-01-17 21:27:00,
2013-01-17 16:28:00,30.2,16.8,30.04,North,11,3.0,13.0,57,0.00,,SKC,0.37,VWS V13.01,2013-01-17 21:28:00,
2013-01-17 16:29:00,29.8,16.0,30.04,NW,325,3.0,13.0,56,0.00,,SKC,0.37,VWS V13.01,2013-01-17 21:29:00,
2013-01-17 16:30:00,29.8,16.0,30.04,NW,318,2.0,13.0,56,0.00,,SKC,0.37,VWS V13.01,2013-01-17 21:30:00,
2013-01-17 16:31:00,29.7,15.9,30.04,NNW,348,1.0,4.0,56,0.00,,SKC,0.37,VWS V13.01,2013-01-17 21:31:00,
2013-01-17 16:32:00,29.6,15.4,30.04,NNW,346,0.0,9.0,55,0.00,,SKC,0.37,VWS V13.01,2013-01-17 21:32:00,
2013-01-17 16:33:00,29.6,15.8,30.04,NNE,20,0.0,9.0,56,0.00,,SKC,0.37,VWS V13.01,2013-01-17 21:33:00,
2013-01-17 16:34:00,29.9,16.1,30.04,NE,43,6.0,13.0,56,0.00,,SKC,0.37,VWS V13.01,2013-01-17 21:34:00,
2013-01-17 16:35:00,29.5,15.8,30.04,East,79,9.0,12.0,56,0.00,,SKC,0.37,VWS V13.01,2013-01-17 21:35:00,
2013-01-17 16:36:00,29.5,14.1,30.04,NW,314,3.0,12.0,52,0.00,,SKC,0.37,VWS V13.01,2013-01-17 21:36:00,
2013-01-17 16:37:00,29.5,14.9,30.04,North,360,11.0,13.0,54,0.00,,SKC,0.37,VWS V13.01,2013-01-17 21:37:00,
2013-01-17 16:38:00,29.5,14.1,30.04,NNW,329,6.0,15.0,52,0.00,,SKC,0.37,VWS V13.01,2013-01-17 21:38:00,
2013-01-17 16:39:00,29.8,15.6,30.04,NW,325,2.0,13.0,55,0.00,,SKC,0.37,VWS V13.01,2013-01-17 21:39:00,
2013-01-17 16:40:00,29.4,14.4,30.04,ENE,66,7.0,15.0,53,0.00,,SKC,0.37,VWS V13.01,2013-01-17 21:40:00,
2013-01-17 16:41:00,29.4,13.5,30.04,North,355,2.0,15.0,51,0.00,,SKC,0.37,VWS V13.01,2013-01-17 21:41:00,
2013-01-17 16:42:00,29.3,14.3,30.04,North,355,4.0,15.0,53,0.00,,SKC,0.37,VWS V13.01,2013-01-17 21:42:00,
2013-01-17 16:43:00,29.3,13.4,30.04,ENE,64,2.0,15.0,51,0.00,,SKC,0.37,VWS V13.01,2013-01-17 21:43:00,
2013-01-17 16:44:00,29.6,15.4,30.04,NNE,19,1.0,9.0,55,0.00,,SKC,0.37,VWS V13.01,2013-01-17 21:44:00,
2013-01-17 16:45:00,29.2,14.2,30.04,NNW,342,0.0,15.0,53,0.00,,SKC,0.37,VWS V13.01,2013-01-17 21:45:00,
2013-01-17 16:46:00,29.2,14.6,30.05,NNW,336,6.0,15.0,54,0.00,,SKC,0.37,VWS V13.01,2013-01-17 21:46:00,
2013-01-17 16:47:00,29.1,14.1,30.05,NE,40,3.0,15.0,53,0.00,,SKC,0.37,VWS V13.01,2013-01-17 21:47:00,
2013-01-17 16:48:00,29.1,14.5,30.05,NNE,24,4.0,15.0,54,0.00,,SKC,0.37,VWS V13.01,2013-01-17 21:48:00,
2013-01-17 16:49:00,29.4,14.0,30.04,North,360,1.0,15.0,52,0.00,,SKC,0.37,VWS V13.01,2013-01-17 21:49:00,
2013-01-17 16:50:00,29.0,13.6,30.04,NNW,344,1.0,15.0,52,0.00,,SKC,0.37,VWS V13.01,2013-01-17 21:50:00,
2013-01-17 16:51:00,29.0,13.6,30.05,ENE,59,5.0,15.0,52,0.00,,SKC,0.37,VWS V13.01,2013-01-17 21:51:00,
2013-01-17 16:52:00,28.9,13.9,30.04,ENE,57,1.0,15.0,53,0.00,,SKC,0.37,VWS V13.01,2013-01-17 21:52:00,
2013-01-17 16:53:00,28.9,13.1,30.05,NE,55,4.0,15.0,51,0.00,,SKC,0.37,VWS V13.01,2013-01-17 21:53:00,
2013-01-17 16:54:00,29.3,13.9,30.04,ENE,57,0.0,15.0,52,0.00,,SKC,0.37,VWS V13.01,2013-01-17 21:54:00,
2013-01-17 16:55:00,28.9,13.1,30.05,North,349,5.0,15.0,51,0.00,,SKC,0.37,VWS V13.01,2013-01-17 21:55:00,
2013-01-17 16:56:00,28.8,13.4,30.05,North,355,7.0,15.0,52,0.00,,SKC,0.37,VWS V13.01,2013-01-17 21:56:00,
2013-01-17 16:57:00,28.8,13.4,30.05,NW,323,10.0,15.0,52,0.00,,SKC,0.37,VWS V13.01,2013-01-17 21:57:00,
2013-01-17 16:58:00,28.8,12.5,30.05,North,350,3.0,15.0,50,0.00,,SKC,0.37,VWS V13.01,2013-01-17 21:58:00,
2013-01-17 16:59:00,29.0,14.0,30.04,NNE,31,4.0,15.0,53,0.00,,SKC,0.37,VWS V13.01,2013-01-17 21:59:00,
2013-01-17 17:00:00,28.7,13.3,30.05,North,355,4.0,15.0,52,0.00,,SKC,0.37,VWS V13.01,2013-01-17 22:00:00,
2013-01-17 17:01:00,28.7,12.9,30.05,North,360,7.0,7.0,51,0.00,,SKC,0.37,VWS V13.01,2013-01-17 22:01:00,
2013-01-17 17:02:00,28.7,12.4,30.05,NW,317,7.0,10.0,50,0.00,,SKC,0.37,VWS V13.01,2013-01-17 22:02:00,
2013-01-17 17:03:00,28.6,12.8,30.05,NNW,347,7.0,10.0,51,0.00,,SKC,0.37,VWS V13.01,2013-01-17 22:03:00,
2013-01-17 17:04:00,28.9,13.5,30.05,North,360,9.0,15.0,52,0.00,,SKC,0.37,VWS V13.01,2013-01-17 22:04:00,
2013-01-17 17:05:00,28.5,12.7,30.05,NNE,28,4.0,10.0,51,0.00,,SKC,0.37,VWS V13.01,2013-01-17 22:05:00,
2013-01-17 17:06:00,28.5,13.1,30.05,NE,50,3.0,10.0,52,0.00,,SKC,0.37,VWS V13.01,2013-01-17 22:06:00,
2013-01-17 17:07:00,28.4,13.0,30.05,NNE,31,2.0,10.0,52,0.00,,SKC,0.37,VWS V13.01,2013-01-17 22:07:00,
2013-01-17 17:08:00,28.4,13.9,30.05,NE,43,1.0,10.0,54,0.00,,SKC,0.37,VWS V13.01,2013-01-17 22:08:00,
2013-01-17 17:09:00,28.8,13.0,30.05,North,355,4.0,15.0,51,0.00,,SKC,0.37,VWS V13.01,2013-01-17 22:09:00,
2013-01-17 17:10:00,28.3,12.9,30.06,ENE,68,5.0,10.0,52,0.00,,SKC,0.37,VWS V13.01,2013-01-17 22:10:00,
2013-01-17 17:11:00,28.2,12.9,30.06,NE,49,3.0,10.0,52,0.00,,SKC,0.37,VWS V13.01,2013-01-17 22:11:00,
2013-01-17 17:12:00,28.1,12.3,30.06,NNE,26,5.0,11.0,51,0.00,,SKC,0.37,VWS V13.01,2013-01-17 22:12:00,
2013-01-17 17:13:00,28.1,12.3,30.06,NE,40,3.0,11.0,51,0.00,,SKC,0.37,VWS V13.01,2013-01-17 22:13:00,
2013-01-17 17:14:00,28.6,12.8,30.05,NNW,344,3.0,10.0,51,0.00,,SKC,0.37,VWS V13.01,2013-01-17 22:14:00,
2013-01-17 17:15:00,27.9,11.7,30.06,North,360,9.0,11.0,50,0.00,,SKC,0.37,VWS V13.01,2013-01-17 22:15:00,
2013-01-17 17:16:00,27.9,11.2,30.06,NE,34,7.0,11.0,49,0.00,,SKC,0.37,VWS V13.01,2013-01-17 22:16:00,
2013-01-17 17:17:00,27.8,11.1,30.06,North,360,2.0,11.0,49,0.00,,SKC,0.37,VWS V13.01,2013-01-17 22:17:00,
2013-01-17 17:18:00,27.7,11.5,30.06,North,355,2.0,11.0,50,0.00,,SKC,0.37,VWS V13.01,2013-01-17 22:18:00,
2013-01-17 17:19:00,27.7,10.6,30.06,North,360,3.0,11.0,48,0.00,,SKC,0.37,VWS V13.01,2013-01-17 22:19:00,
2013-01-17 17:20:00,28.3,12.9,30.06,NE,44,4.0,10.0,52,0.00,,SKC,0.37,VWS V13.01,2013-01-17 22:20:00,
2013-01-17 17:21:00,27.6,10.5,30.06,North,11,7.0,11.0,48,0.00,,SKC,0.37,VWS V13.01,2013-01-17 22:21:00,
2013-01-17 17:22:00,27.6,10.0,30.06,NNE,24,1.0,11.0,47,0.00,,SKC,0.37,VWS V13.01,2013-01-17 22:22:00,
2013-01-17 17:23:00,27.5,10.4,30.07,NNW,347,4.0,11.0,48,0.00,,SKC,0.37,VWS V13.01,2013-01-17 22:23:00,
2013-01-17 17:24:00,27.5,10.4,30.06,North,355,3.0,11.0,48,0.00,,SKC,0.37,VWS V13.01,2013-01-17 22:24:00,
2013-01-17 17:25:00,27.5,10.4,30.06,North,355,2.0,11.0,48,0.00,,SKC,0.37,VWS V13.01,2013-01-17 22:25:00,
2013-01-17 17:26:00,27.9,11.7,30.06,NNW,337,6.0,11.0,50,0.00,,SKC,0.37,VWS V13.01,2013-01-17 22:26:00,
2013-01-17 17:27:00,27.4,10.3,30.06,North,5,6.0,11.0,48,0.00,,SKC,0.37,VWS V13.01,2013-01-17 22:27:00,
2013-01-17 17:28:00,27.3,8.8,30.07,NNE,26,7.0,11.0,45,0.00,,SKC,0.37,VWS V13.01,2013-01-17 22:28:00,
2013-01-17 17:29:00,27.3,8.3,30.07,NE,49,8.0,11.0,44,0.00,,SKC,0.37,VWS V13.01,2013-01-17 22:29:00,
2013-01-17 17:30:00,27.3,8.8,30.07,NNW,348,4.0,11.0,45,0.00,,SKC,0.37,VWS V13.01,2013-01-17 22:30:00,
2013-01-17 17:31:00,27.6,10.5,30.06,North,351,0.0,11.0,48,0.00,,SKC,0.37,VWS V13.01,2013-01-17 22:31:00,
2013-01-17 17:32:00,27.2,9.2,30.07,NNW,345,2.0,4.0,46,0.00,,SKC,0.37,VWS V13.01,2013-01-17 22:32:00,
2013-01-17 17:33:00,27.2,9.6,30.07,NNE,24,3.0,9.0,47,0.00,,SKC,0.37,VWS V13.01,2013-01-17 22:33:00,
2013-01-17 17:34:00,27.2,9.6,30.07,NE,42,4.0,9.0,47,0.00,,SKC,0.37,VWS V13.01,2013-01-17 22:34:00,
2013-01-17 17:35:00,27.1,9.1,30.07,NE,40,6.0,9.0,46,0.00,,SKC,0.37,VWS V13.01,2013-01-17 22:35:00,
2013-01-17 17:36:00,27.4,10.8,30.06,NNE,15,2.0,11.0,49,0.00,,SKC,0.37,VWS V13.01,2013-01-17 22:36:00,
2013-01-17 17:37:00,27.1,9.6,30.08,North,360,6.0,11.0,47,0.00,,SKC,0.37,VWS V13.01,2013-01-17 22:37:00,
2013-01-17 17:38:00,27.0,9.0,30.08,North,9,5.0,11.0,46,0.00,,SKC,0.37,VWS V13.01,2013-01-17 22:38:00,
2013-01-17 17:39:00,27.0,9.5,30.08,North,360,2.0,11.0,47,0.00,,SKC,0.37,VWS V13.01,2013-01-17 22:39:00,
2013-01-17 17:40:00,26.9,9.4,30.08,North,5,1.0,11.0,47,0.00,,SKC,0.37,VWS V13.01,2013-01-17 22:40:00,
2013-01-17 17:41:00,27.3,9.3,30.07,NNW,345,3.0,4.0,46,0.00,,SKC,0.37,VWS V13.01,2013-01-17 22:41:00,
2013-01-17 17:42:00,26.8,8.3,30.08,North,360,2.0,11.0,45,0.00,,SKC,0.37,VWS V13.01,2013-01-17 22:42:00,
2013-01-17 17:43:00,26.8,8.3,30.08,North,360,5.0,11.0,45,0.00,,SKC,0.37,VWS V13.01,2013-01-17 22:43:00,
2013-01-17 17:44:00,26.7,8.2,30.08,North,360,1.0,11.0,45,0.00,,SKC,0.37,VWS V13.01,2013-01-17 22:44:00,
2013-01-17 17:45:00,26.7,8.2,30.08,North,355,4.0,11.0,45,0.00,,SKC,0.37,VWS V13.01,2013-01-17 22:45:00,
2013-01-17 17:46:00,27.1,9.1,30.08,North,11,3.0,9.0,46,0.00,,SKC,0.37,VWS V13.01,2013-01-17 22:46:00,
2013-01-17 17:47:00,26.6,9.1,30.08,North,5,6.0,11.0,47,0.00,,SKC,0.37,VWS V13.01,2013-01-17 22:47:00,
2013-01-17 17:48:00,26.6,8.6,30.08,North,350,1.0,11.0,46,0.00,,SKC,0.37,VWS V13.01,2013-01-17 22:48:00,
2013-01-17 17:49:00,26.6,9.1,30.08,NNW,348,1.0,11.0,47,0.00,,SKC,0.37,VWS V13.01,2013-01-17 22:49:00,
2013-01-17 17:50:00,26.5,8.5,30.08,NNW,348,1.0,11.0,46,0.00,,SKC,0.37,VWS V13.01,2013-01-17 22:50:00,
2013-01-17 17:51:00,26.9,8.9,30.08,NNW,337,3.0,11.0,46,0.00,,SKC,0.37,VWS V13.01,2013-01-17 22:51:00,
2013-01-17 17:52:00,26.5,8.5,30.08,NNE,14,4.0,11.0,46,0.00,,SKC,0.37,VWS V13.01,2013-01-17 22:52:00,
2013-01-17 17:53:00,26.4,8.4,30.08,NNE,13,4.0,11.0,46,0.00,,SKC,0.37,VWS V13.01,2013-01-17 22:53:00,
2013-01-17 17:54:00,26.4,8.9,30.08,NNW,348,5.0,11.0,47,0.00,,SKC,0.37,VWS V13.01,2013-01-17 22:54:00,
2013-01-17 17:55:00,26.4,8.9,30.08,North,355,3.0,11.0,47,0.00,,SKC,0.37,VWS V13.01,2013-01-17 22:55:00,
2013-01-17 17:56:00,26.3,9.3,30.08,NE,42,5.0,11.0,48,0.00,,SKC,0.37,VWS V13.01,2013-01-17 22:56:00,
2013-01-17 17:57:00,26.6,9.1,30.08,NNE,32,2.0,11.0,47,0.00,,SKC,0.37,VWS V13.01,2013-01-17 22:57:00,
2013-01-17 17:58:00,26.2,8.7,30.08,NNE,13,3.0,11.0,47,0.00,,SKC,0.37,VWS V13.01,2013-01-17 22:58:00,
2013-01-17 17:59:00,26.2,8.3,30.08,NNE,14,2.0,11.0,46,0.00,,SKC,0.37,VWS V13.01,2013-01-17 22:59:00,
2013-01-17 18:00:00,26.2,8.3,30.08,NNE,18,0.0,11.0,46,0.00,,SKC,0.37,VWS V13.01,2013-01-17 23:00:00,
2013-01-17 18:01:00,26.1,8.6,30.09,NE,46,2.0,4.0,47,0.00,,SKC,0.37,VWS V13.01,2013-01-17 23:01:00,
2013-01-17 18:02:00,26.5,8.5,30.08,ENE,60,5.0,11.0,46,0.00,,SKC,0.37,VWS V13.01,2013-01-17 23:02:00,
2013-01-17 18:03:00,26.0,8.1,30.09,NNW,332,4.0,9.0,46,0.00,,SKC,0.37,VWS V13.01,2013-01-17 23:03:00,
2013-01-17 18:04:00,26.0,8.1,30.09,NNE,27,6.0,9.0,46,0.00,,SKC,0.37,VWS V13.01,2013-01-17 23:04:00,
2013-01-17 18:05:00,25.9,8.0,30.09,ENE,69,3.0,9.0,46,0.00,,SKC,0.37,VWS V13.01,2013-01-17 23:05:00,
2013-01-17 18:06:00,25.8,7.9,30.09,NE,53,2.0,9.0,46,0.00,,SKC,0.37,VWS V13.01,2013-01-17 23:06:00,
2013-01-17 18:07:00,26.3,9.3,30.08,NE,51,3.0,11.0,48,0.00,,SKC,0.37,VWS V13.01,2013-01-17 23:07:00,
2013-01-17 18:08:00,25.8,7.9,30.09,North,360,3.0,9.0,46,0.00,,SKC,0.37,VWS V13.01,2013-01-17 23:08:00,
2013-01-17 18:09:00,25.7,7.3,30.10,NNE,30,2.0,9.0,45,0.00,,SKC,0.37,VWS V13.01,2013-01-17 23:09:00,
2013-01-17 18:10:00,25.7,7.3,30.10,North,11,3.0,9.0,45,0.00,,SKC,0.37,VWS V13.01,2013-01-17 23:10:00,
2013-01-17 18:11:00,25.6,7.2,30.10,North,360,2.0,9.0,45,0.00,,SKC,0.37,VWS V13.01,2013-01-17 23:11:00,
2013-01-17 18:12:00,26.1,9.1,30.09,North,360,4.0,7.0,48,0.00,,SKC,0.37,VWS V13.01,2013-01-17 23:12:00,
2013-01-17 18:13:00,25.5,7.1,30.10,North,355,11.0,14.0,45,0.00,,SKC,0.37,VWS V13.01,2013-01-17 23:13:00,
2013-01-17 18:14:00,25.5,6.6,30.10,NE,38,4.0,14.0,44,0.00,,SKC,0.37,VWS V13.01,2013-01-17 23:14:00,
2013-01-17 18:15:00,25.4,6.5,30.10,North,355,6.0,16.0,44,0.00,,SKC,0.37,VWS V13.01,2013-01-17 23:15:00,
2013-01-17 18:16:00,25.4,5.5,30.09,NE,34,4.0,16.0,42,0.00,,SKC,0.37,VWS V13.01,2013-01-17 23:16:00,
2013-01-17 18:17:00,25.8,7.9,30.10,North,10,0.0,9.0,46,0.00,,SKC,0.37,VWS V13.01,2013-01-17 23:17:00,
2013-01-17 18:18:00,25.3,5.4,30.09,North,11,7.0,16.0,42,0.00,,SKC,0.37,VWS V13.01,2013-01-17 23:18:00,
2013-01-17 18:19:00,25.3,4.9,30.10,ENE,59,7.0,16.0,41,0.00,,SKC,0.37,VWS V13.01,2013-01-17 23:19:00,
2013-01-17 18:20:00,25.2,5.3,30.10,NE,44,6.0,16.0,42,0.00,,SKC,0.37,VWS V13.01,2013-01-17 23:20:00,
2013-01-17 18:21:00,25.2,5.3,30.10,North,355,4.0,16.0,42,0.00,,SKC,0.37,VWS V13.01,2013-01-17 23:21:00,
2013-01-17 18:22:00,25.6,7.7,30.10,NNW,348,10.0,10.0,46,0.00,,SKC,0.37,VWS V13.01,2013-01-17 23:22:00,
2013-01-17 18:23:00,25.1,5.2,30.10,North,360,4.0,16.0,42,0.00,,SKC,0.37,VWS V13.01,2013-01-17 23:23:00,
2013-01-17 18:24:00,25.1,5.8,30.10,North,350,5.0,16.0,43,0.00,,SKC,0.37,VWS V13.01,2013-01-17 23:24:00,
2013-01-17 18:25:00,25.1,5.2,30.10,NE,47,3.0,16.0,42,0.00,,SKC,0.37,VWS V13.01,2013-01-17 23:25:00,
2013-01-17 18:26:00,25.1,5.2,30.10,NE,46,2.0,16.0,42,0.00,,SKC,0.37,VWS V13.01,2013-01-17 23:26:00,
2013-01-17 18:27:00,25.3,5.4,30.10,NNE,17,2.0,16.0,42,0.00,,SKC,0.37,VWS V13.01,2013-01-17 23:27:00,
2013-01-17 18:28:00,25.0,5.2,30.10,NNE,13,1.0,16.0,42,0.00,,SKC,0.37,VWS V13.01,2013-01-17 23:28:00,
2013-01-17 18:29:00,25.0,6.2,30.10,NNE,15,2.0,16.0,44,0.00,,SKC,0.37,VWS V13.01,2013-01-17 23:29:00,
2013-01-17 18:30:00,25.0,6.2,30.10,NNE,16,1.0,16.0,44,0.00,,SKC,0.37,VWS V13.01,2013-01-17 23:30:00,
2013-01-17 18:31:00,24.9,7.1,30.10,NE,49,5.0,7.0,46,0.00,,SKC,0.37,VWS V13.01,2013-01-17 23:31:00,
2013-01-17 18:32:00,25.2,5.9,30.10,North,9,5.0,16.0,43,0.00,,SKC,0.37,VWS V13.01,2013-01-17 23:32:00,
2013-01-17 18:33:00,24.9,5.1,30.10,NE,49,3.0,11.0,42,0.00,,SKC,0.37,VWS V13.01,2013-01-17 23:33:00,
2013-01-17 18:34:00,24.9,7.1,30.10,ENE,57,3.0,11.0,46,0.00,,SKC,0.37,VWS V13.01,2013-01-17 23:34:00,
2013-01-17 18:35:00,24.8,7.0,30.10,NNE,13,6.0,11.0,46,0.00,,SKC,0.37,VWS V13.01,2013-01-17 23:35:00,
2013-01-17 18:36:00,24.8,5.5,30.10,NE,42,4.0,11.0,43,0.00,,SKC,0.37,VWS V13.01,2013-01-17 23:36:00,
2013-01-17 18:37:00,25.0,5.7,30.10,NNE,20,6.0,16.0,43,0.00,,SKC,0.37,VWS V13.01,2013-01-17 23:37:00,
2013-01-17 18:38:00,24.7,5.4,30.10,NE,51,1.0,11.0,43,0.00,,SKC,0.37,VWS V13.01,2013-01-17 23:38:00,
2013-01-17 18:39:00,24.7,5.4,30.10,NNE,31,6.0,11.0,43,0.00,,SKC,0.37,VWS V13.01,2013-01-17 23:39:00,
2013-01-17 18:40:00,24.7,4.9,30.10,NE,56,5.0,11.0,42,0.00,,SKC,0.37,VWS V13.01,2013-01-17 23:40:00,
2013-01-17 18:41:00,24.6,4.8,30.10,NNE,19,3.0,11.0,42,0.00,,SKC,0.37,VWS V13.01,2013-01-17 23:41:00,
2013-01-17 18:42:00,24.6,4.8,30.10,NNE,19,2.0,11.0,42,0.00,,SKC,0.37,VWS V13.01,2013-01-17 23:42:00,
2013-01-17 18:43:00,24.9,5.1,30.10,NE,49,4.0,11.0,42,0.00,,SKC,0.37,VWS V13.01,2013-01-17 23:43:00,
2013-01-17 18:44:00,24.6,5.3,30.10,NNE,32,2.0,11.0,43,0.00,,SKC,0.37,VWS V13.01,2013-01-17 23:44:00,
2013-01-17 18:45:00,24.6,5.8,30.10,NNE,32,0.0,11.0,44,0.00,,SKC,0.37,VWS V13.01,2013-01-17 23:45:00,
2013-01-17 18:46:00,24.6,6.3,30.10,NNE,30,2.0,11.0,45,0.00,,SKC,0.37,VWS V13.01,2013-01-17 23:46:00,
2013-01-17 18:47:00,24.5,5.7,30.10,NNE,24,5.0,11.0,44,0.00,,SKC,0.37,VWS V13.01,2013-01-17 23:47:00,
2013-01-17 18:48:00,24.7,5.4,30.09,NE,51,1.0,11.0,43,0.00,,SKC,0.37,VWS V13.01,2013-01-17 23:48:00,
2013-01-17 18:49:00,24.5,4.7,30.10,NNE,32,2.0,11.0,42,0.00,,SKC,0.37,VWS V13.01,2013-01-17 23:49:00,
2013-01-17 18:50:00,24.5,5.2,30.10,NNE,15,3.0,11.0,43,0.00,,SKC,0.37,VWS V13.01,2013-01-17 23:50:00,
2013-01-17 18:51:00,24.4,5.6,30.10,NNE,25,1.0,11.0,44,0.00,,SKC,0.37,VWS V13.01,2013-01-17 23:51:00,
2013-01-17 18:52:00,24.4,6.1,30.09,NNE,22,5.0,11.0,45,0.00,,SKC,0.37,VWS V13.01,2013-01-17 23:52:00,
2013-01-17 18:53:00,24.6,5.3,30.10,NE,42,3.0,11.0,43,0.00,,SKC,0.37,VWS V13.01,2013-01-17 23:53:00,
2013-01-17 18:54:00,24.3,5.5,30.10,NE,49,4.0,11.0,44,0.00,,SKC,0.37,VWS V13.01,2013-01-17 23:54:00,
2013-01-17 18:55:00,24.3,5.5,30.10,NNE,24,2.0,11.0,44,0.00,,SKC,0.37,VWS V13.01,2013-01-17 23:55:00,
2013-01-17 18:56:00,24.3,6.0,30.10,NNE,25,0.0,11.0,45,0.00,,SKC,0.37,VWS V13.01,2013-01-17 23:56:00,
2013-01-17 18:57:00,24.3,6.0,30.10,NNE,25,1.0,11.0,45,0.00,,SKC,0.37,VWS V13.01,2013-01-17 23:57:00,
2013-01-17 18:58:00,24.5,4.7,30.10,NNE,32,3.0,11.0,42,0.00,,SKC,0.37,VWS V13.01,2013-01-17 23:58:00,
2013-01-17 18:59:00,24.2,5.9,30.11,NE,53,2.0,11.0,45,0.00,,SKC,0.37,VWS V13.01,2013-01-17 23:59:00,
2013-01-17 19:00:00,24.2,5.9,30.11,North,11,5.0,11.0,45,0.00,,SKC,0.37,VWS V13.01,2013-01-18 00:00:00,
2013-01-17 19:01:00,24.2,5.4,30.11,North,360,8.0,12.0,44,0.00,,SKC,0.37,VWS V13.01,2013-01-18 00:01:00,
2013-01-17 19:02:00,24.2,5.4,30.11,NNE,19,3.0,12.0,44,0.00,,SKC,0.37,VWS V13.01,2013-01-18 00:02:00,
2013-01-17 19:03:00,24.4,5.6,30.10,NNE,31,4.0,11.0,44,0.00,,SKC,0.37,VWS V13.01,2013-01-18 00:03:00,
2013-01-17 19:04:00,24.1,4.8,30.11,NNE,24,3.0,12.0,43,0.00,,SKC,0.37,VWS V13.01,2013-01-18 00:04:00,
2013-01-17 19:05:00,24.1,5.3,30.11,NNE,22,2.0,12.0,44,0.00,,SKC,0.37,VWS V13.01,2013-01-18 00:05:00,
2013-01-17 19:06:00,24.1,5.3,30.11,NE,51,4.0,12.0,44,0.00,,SKC,0.37,VWS V13.01,2013-01-18 00:06:00,
2013-01-17 19:07:00,24.0,5.3,30.12,NE,38,1.0,12.0,44,0.00,,SKC,0.37,VWS V13.01,2013-01-18 00:07:00,
2013-01-17 19:08:00,24.3,6.5,30.11,North,350,8.0,11.0,46,0.00,,SKC,0.37,VWS V13.01,2013-01-18 00:08:00,
2013-01-17 19:09:00,24.0,4.2,30.12,NE,47,4.0,12.0,42,0.00,,SKC,0.37,VWS V13.01,2013-01-18 00:09:00,
2013-01-17 19:10:00,24.0,5.3,30.12,NNE,19,1.0,12.0,44,0.00,,SKC,0.37,VWS V13.01,2013-01-18 00:10:00,
2013-01-17 19:11:00,23.9,5.2,30.12,North,351,5.0,12.0,44,0.00,,SKC,0.37,VWS V13.01,2013-01-18 00:11:00,
2013-01-17 19:12:00,23.9,5.2,30.12,NE,46,4.0,12.0,44,0.00,,SKC,0.37,VWS V13.01,2013-01-18 00:12:00,
2013-01-17 19:13:00,23.9,5.2,30.12,ENE,60,3.0,12.0,44,0.00,,SKC,0.37,VWS V13.01,2013-01-18 00:13:00,
2013-01-17 19:14:00,24.1,4.8,30.11,North,5,4.0,12.0,43,0.00,,SKC,0.37,VWS V13.01,2013-01-18 00:14:00,
2013-01-17 19:15:00,23.9,5.7,30.12,ENE,58,2.0,12.0,45,0.00,,SKC,0.37,VWS V13.01,2013-01-18 00:15:00,
2013-01-17 19:16:00,23.9,6.1,30.13,NE,51,2.0,12.0,46,0.00,,SKC,0.37,VWS V13.01,2013-01-18 00:16:00,
2013-01-17 19:17:00,23.8,6.1,30.13,NE,51,0.0,12.0,46,0.00,,SKC,0.37,VWS V13.01,2013-01-18 00:17:00,
2013-01-17 19:18:00,23.8,6.1,30.13,NE,51,1.0,12.0,46,0.00,,SKC,0.37,VWS V13.01,2013-01-18 00:18:00,
2013-01-17 19:19:00,24.0,4.2,30.12,NNE,31,6.0,12.0,42,0.00,,SKC,0.37,VWS V13.01,2013-01-18 00:19:00,
2013-01-17 19:20:00,23.8,6.5,30.12,NE,51,1.0,12.0,47,0.00,,SKC,0.37,VWS V13.01,2013-01-18 00:20:00,
2013-01-17 19:21:00,23.8,7.0,30.12,NE,51,2.0,12.0,48,0.00,,SKC,0.37,VWS V13.01,2013-01-18 00:21:00,
2013-01-17 19:22:00,23.8,6.5,30.12,NE,51,0.0,12.0,47,0.00,,SKC,0.37,VWS V13.01,2013-01-18 00:22:00,
2013-01-17 19:23:00,23.7,6.9,30.11,NE,49,2.0,12.0,48,0.00,,SKC,0.37,VWS V13.01,2013-01-18 00:23:00,
2013-01-17 19:24:00,23.9,5.7,30.12,ENE,59,1.0,12.0,45,0.00,,SKC,0.37,VWS V13.01,2013-01-18 00:24:00,
2013-01-17 19:25:00,23.7,6.0,30.11,NNE,28,4.0,12.0,46,0.00,,SKC,0.37,VWS V13.01,2013-01-18 00:25:00,
2013-01-17 19:26:00,23.6,6.3,30.12,NNE,22,1.0,12.0,47,0.00,,SKC,0.37,VWS V13.01,2013-01-18 00:26:00,
2013-01-17 19:27:00,23.6,6.8,30.12,NNE,15,3.0,12.0,48,0.00,,SKC,0.37,VWS V13.01,2013-01-18 00:27:00,
2013-01-17 19:28:00,23.6,6.3,30.12,North,11,4.0,12.0,47,0.00,,SKC,0.37,VWS V13.01,2013-01-18 00:28:00,
2013-01-17 19:29:00,23.8,6.1,30.12,NE,51,0.0,12.0,46,0.00,,SKC,0.37,VWS V13.01,2013-01-18 00:29:00,
2013-01-17 19:30:00,23.5,5.8,30.12,NE,46,7.0,12.0,46,0.00,,SKC,0.37,VWS V13.01,2013-01-18 00:30:00,
2013-01-17 19:31:00,23.5,5.8,30.12,NE,43,7.0,10.0,46,0.00,,SKC,0.37,VWS V13.01,2013-01-18 00:31:00,
2013-01-17 19:32:00,23.4,5.7,30.12,ENE,69,2.0,10.0,46,0.00,,SKC,0.37,VWS V13.01,2013-01-18 00:32:00,
2013-01-17 19:33:00,23.4,5.7,30.12,ENE,59,1.0,10.0,46,0.00,,SKC,0.37,VWS V13.01,2013-01-18 00:33:00,
2013-01-17 19:34:00,23.7,6.4,30.11,NNE,32,3.0,12.0,47,0.00,,SKC,0.37,VWS V13.01,2013-01-18 00:34:00,
2013-01-17 19:35:00,23.3,5.1,30.12,NE,34,3.0,10.0,45,0.00,,SKC,0.37,VWS V13.01,2013-01-18 00:35:00,
2013-01-17 19:36:00,23.3,5.6,30.12,NE,56,4.0,10.0,46,0.00,,SKC,0.37,VWS V13.01,2013-01-18 00:36:00,
2013-01-17 19:37:00,23.2,5.5,30.12,NE,51,5.0,10.0,46,0.00,,SKC,0.37,VWS V13.01,2013-01-18 00:37:00,
2013-01-17 19:38:00,23.2,5.0,30.12,NE,41,1.0,10.0,45,0.00,,SKC,0.37,VWS V13.01,2013-01-18 00:38:00,
2013-01-17 19:39:00,23.6,5.9,30.12,ENE,57,5.0,12.0,46,0.00,,SKC,0.37,VWS V13.01,2013-01-18 00:39:00,
2013-01-17 19:40:00,23.1,5.4,30.12,NE,55,4.0,10.0,46,0.00,,SKC,0.37,VWS V13.01,2013-01-18 00:40:00,
2013-01-17 19:41:00,23.1,4.9,30.12,NE,45,6.0,11.0,45,0.00,,SKC,0.37,VWS V13.01,2013-01-18 00:41:00,
2013-01-17 19:42:00,23.0,3.8,30.12,NNE,15,3.0,11.0,43,0.00,,SKC,0.37,VWS V13.01,2013-01-18 00:42:00,
2013-01-17 19:43:00,23.0,4.3,30.12,NE,34,3.0,11.0,44,0.00,,SKC,0.37,VWS V13.01,2013-01-18 00:43:00,
2013-01-17 19:44:00,23.0,4.3,30.12,ENE,61,4.0,11.0,44,0.00,,SKC,0.37,VWS V13.01,2013-01-18 00:44:00,
2013-01-17 19:45:00,23.3,5.1,30.12,NE,34,3.0,10.0,45,0.00,,SKC,0.37,VWS V13.01,2013-01-18 00:45:00,
2013-01-17 19:46:00,23.0,4.3,30.12,North,5,6.0,11.0,44,0.00,,SKC,0.37,VWS V13.01,2013-01-18 00:46:00,
2013-01-17 19:47:00,22.9,3.8,30.13,NE,42,3.0,11.0,43,0.00,,SKC,0.37,VWS V13.01,2013-01-18 00:47:00,
2013-01-17 19:48:00,22.9,3.8,30.12,NE,38,2.0,11.0,43,0.00,,SKC,0.37,VWS V13.01,2013-01-18 00:48:00,
2013-01-17 19:49:00,22.9,3.8,30.13,NE,56,0.0,11.0,43,0.00,,SKC,0.37,VWS V13.01,2013-01-18 00:49:00,
2013-01-17 19:50:00,22.9,4.3,30.13,NE,55,2.0,11.0,44,0.00,,SKC,0.37,VWS V13.01,2013-01-18 00:50:00,
2013-01-17 19:51:00,23.1,4.9,30.12,NE,39,8.0,10.0,45,0.00,,SKC,0.37,VWS V13.01,2013-01-18 00:51:00,
2013-01-17 19:52:00,22.8,4.7,30.13,NNE,32,0.0,11.0,45,0.00,,SKC,0.37,VWS V13.01,2013-01-18 00:52:00,
2013-01-17 19:53:00,22.8,4.7,30.13,NE,36,3.0,11.0,45,0.00,,SKC,0.37,VWS V13.01,2013-01-18 00:53:00,
2013-01-17 19:54:00,22.8,5.1,30.13,NNE,29,2.0,11.0,46,0.00,,SKC,0.37,VWS V13.01,2013-01-18 00:54:00,
2013-01-17 19:55:00,22.8,5.6,30.13,NNE,29,5.0,11.0,47,0.00,,SKC,0.37,VWS V13.01,2013-01-18 00:55:00,
2013-01-17 19:56:00,23.0,4.3,30.12,NNE,25,5.0,11.0,44,0.00,,SKC,0.37,VWS V13.01,2013-01-18 00:56:00,
2013-01-17 19:57:00,22.7,6.4,30.13,ENE,75,4.0,11.0,49,0.00,,SKC,0.37,VWS V13.01,2013-01-18 00:57:00,
2013-01-17 19:58:00,22.6,7.2,30.13,ENE,59,4.0,11.0,51,0.00,,SKC,0.37,VWS V13.01,2013-01-18 00:58:00,
2013-01-17 19:59:00,22.6,7.2,30.14,ENE,70,5.0,11.0,51,0.00,,SKC,0.37,VWS V13.01,2013-01-18 00:59:00,
2013-01-17 20:00:00,22.5,7.1,30.14,NE,51,3.0,11.0,51,0.00,,SKC,0.37,VWS V13.01,2013-01-18 01:00:00,
2013-01-17 20:01:00,22.9,3.8,30.13,NNE,31,1.0,11.0,43,0.00,,SKC,0.37,VWS V13.01,2013-01-18 01:01:00,
2013-01-17 20:02:00,22.4,7.4,30.13,NNE,28,2.0,5.0,52,0.00,,SKC,0.37,VWS V13.01,2013-01-18 01:02:00,
2013-01-17 20:03:00,22.4,7.4,30.13,North,5,4.0,10.0,52,0.00,,SKC,0.37,VWS V13.01,2013-01-18 01:03:00,
2013-01-17 20:04:00,22.3,7.4,30.13,NE,56,2.0,10.0,52,0.00,,SKC,0.37,VWS V13.01,2013-01-18 01:04:00,
2013-01-17 20:05:00,22.3,7.4,30.13,ENE,63,1.0,10.0,52,0.00,,SKC,0.37,VWS V13.01,2013-01-18 01:05:00,
2013-01-17 20:06:00,22.7,6.4,30.13,NE,46,1.0,11.0,49,0.00,,SKC,0.37,VWS V13.01,2013-01-18 01:06:00,
2013-01-17 20:07:00,22.2,7.3,30.12,NNE,28,0.0,10.0,52,0.00,,SKC,0.37,VWS V13.01,2013-01-18 01:07:00,
2013-01-17 20:08:00,22.2,7.3,30.13,NNE,32,3.0,10.0,52,0.00,,SKC,0.37,VWS V13.01,2013-01-18 01:08:00,
2013-01-17 20:09:00,22.2,7.7,30.13,NE,51,4.0,11.0,53,0.00,,SKC,0.37,VWS V13.01,2013-01-18 01:09:00,
2013-01-17 20:10:00,22.1,7.6,30.13,NNW,347,2.0,11.0,53,0.00,,SKC,0.37,VWS V13.01,2013-01-18 01:10:00,
2013-01-17 20:11:00,22.4,7.0,30.13,ENE,60,3.0,5.0,51,0.00,,SKC,0.37,VWS V13.01,2013-01-18 01:11:00,
2013-01-17 20:12:00,22.0,7.5,30.13,NE,56,2.0,11.0,53,0.00,,SKC,0.37,VWS V13.01,2013-01-18 01:12:00,
2013-01-17 20:13:00,22.0,7.9,30.13,NE,56,4.0,11.0,54,0.00,,SKC,0.37,VWS V13.01,2013-01-18 01:13:00,
2013-01-17 20:14:00,22.0,7.5,30.13,ENE,68,6.0,11.0,53,0.00,,SKC,0.37,VWS V13.01,2013-01-18 01:14:00,
2013-01-17 20:15:00,21.9,7.4,30.13,NE,53,0.0,11.0,53,0.00,,SKC,0.37,VWS V13.01,2013-01-18 01:15:00,
2013-01-17 20:16:00,22.3,7.8,30.12,East,84,6.0,10.0,53,0.00,,SKC,0.37,VWS V13.01,2013-01-18 01:16:00,
2013-01-17 20:17:00,21.9,7.8,30.14,ENE,68,2.0,11.0,54,0.00,,SKC,0.37,VWS V13.01,2013-01-18 01:17:00,
2013-01-17 20:18:00,21.8,7.7,30.14,North,10,3.0,11.0,54,0.00,,SKC,0.37,VWS V13.01,2013-01-18 01:18:00,
2013-01-17 20:19:00,21.8,8.1,30.14,North,11,2.0,11.0,55,0.00,,SKC,0.37,VWS V13.01,2013-01-18 01:19:00,
2013-01-17 20:20:00,21.8,8.1,30.14,NNE,18,1.0,11.0,55,0.00,,SKC,0.37,VWS V13.01,2013-01-18 01:20:00,
2013-01-17 20:21:00,22.1,7.6,30.13,NE,51,2.0,11.0,53,0.00,,SKC,0.37,VWS V13.01,2013-01-18 01:21:00,
2013-01-17 20:22:00,21.7,8.4,30.15,NNE,18,2.0,11.0,56,0.00,,SKC,0.37,VWS V13.01,2013-01-18 01:22:00,
2013-01-17 20:23:00,21.7,8.0,30.14,NE,48,6.0,11.0,55,0.00,,SKC,0.37,VWS V13.01,2013-01-18 01:23:00,
2013-01-17 20:24:00,21.6,7.5,30.14,NE,46,6.0,11.0,54,0.00,,SKC,0.37,VWS V13.01,2013-01-18 01:24:00,
2013-01-17 20:25:00,21.6,7.5,30.14,East,80,5.0,13.0,54,0.00,,SKC,0.37,VWS V13.01,2013-01-18 01:25:00,
2013-01-17 20:26:00,21.9,7.4,30.14,NE,36,2.0,11.0,53,0.00,,SKC,0.37,VWS V13.01,2013-01-18 01:26:00,
2013-01-17 20:27:00,21.4,7.3,30.14,ENE,74,0.0,13.0,54,0.00,,SKC,0.37,VWS V13.01,2013-01-18 01:27:00,
2013-01-17 20:28:00,21.3,7.3,30.14,NNE,26,5.0,13.0,54,0.00,,SKC,0.37,VWS V13.01,2013-01-18 01:28:00,
2013-01-17 20:29:00,21.3,6.8,30.13,ENE,65,2.0,13.0,53,0.00,,SKC,0.37,VWS V13.01,2013-01-18 01:29:00,
2013-01-17 20:30:00,21.2,6.8,30.13,ENE,59,4.0,13.0,53,0.00,,SKC,0.37,VWS V13.01,2013-01-18 01:30:00,
2013-01-17 20:31:00,21.7,8.0,30.14,NNE,18,1.0,11.0,55,0.00,,SKC,0.37,VWS V13.01,2013-01-18 01:31:00,
2013-01-17 20:32:00,21.2,7.2,30.14,NE,38,2.0,9.0,54,0.00,,SKC,0.37,VWS V13.01,2013-01-18 01:32:00,
2013-01-17 20:33:00,21.1,7.1,30.14,NNE,33,6.0,9.0,54,0.00,,SKC,0.37,VWS V13.01,2013-01-18 01:33:00,
2013-01-17 20:34:00,21.1,6.7,30.14,ENE,67,2.0,9.0,53,0.00,,SKC,0.37,VWS V13.01,2013-01-18 01:34:00,
2013-01-17 20:35:00,21.1,6.7,30.14,ENE,63,1.0,9.0,53,0.00,,SKC,0.37,VWS V13.01,2013-01-18 01:35:00,
2013-01-17 20:36:00,21.5,7.0,30.14,NE,46,4.0,13.0,53,0.00,,SKC,0.37,VWS V13.01,2013-01-18 01:36:00,
2013-01-17 20:37:00,21.1,6.7,30.14,NE,42,6.0,9.0,53,0.00,,SKC,0.37,VWS V13.01,2013-01-18 01:37:00,
2013-01-17 20:38:00,21.0,6.6,30.14,NNE,24,1.0,9.0,53,0.00,,SKC,0.37,VWS V13.01,2013-01-18 01:38:00,
2013-01-17 20:39:00,21.0,7.0,30.14,NE,49,3.0,9.0,54,0.00,,SKC,0.37,VWS V13.01,2013-01-18 01:39:00,
2013-01-17 20:40:00,21.0,7.0,30.14,ENE,75,4.0,9.0,54,0.00,,SKC,0.37,VWS V13.01,2013-01-18 01:40:00,
2013-01-17 20:41:00,21.2,6.8,30.14,NE,51,9.0,9.0,53,0.00,,SKC,0.37,VWS V13.01,2013-01-18 01:41:00,
2013-01-17 20:42:00,20.9,6.1,30.14,ENE,69,5.0,9.0,52,0.00,,SKC,0.37,VWS V13.01,2013-01-18 01:42:00,
2013-01-17 20:43:00,20.9,6.5,30.14,ENE,57,3.0,9.0,53,0.00,,SKC,0.37,VWS V13.01,2013-01-18 01:43:00,
2013-01-17 20:44:00,20.8,6.4,30.14,NE,52,3.0,9.0,53,0.00,,SKC,0.37,VWS V13.01,2013-01-18 01:44:00,
2013-01-17 20:45:00,20.8,6.4,30.14,East,88,4.0,9.0,53,0.00,,SKC,0.37,VWS V13.01,2013-01-18 01:45:00,
2013-01-17 20:46:00,21.1,7.1,30.14,ENE,58,6.0,9.0,54,0.00,,SKC,0.37,VWS V13.01,2013-01-18 01:46:00,
2013-01-17 20:47:00,20.7,6.3,30.14,ENE,57,4.0,9.0,53,0.01,,SKC,0.38,VWS V13.01,2013-01-18 01:47:00,
2013-01-17 20:48:00,20.7,6.3,30.13,ENE,69,3.0,9.0,53,0.01,,SKC,0.38,VWS V13.01,2013-01-18 01:48:00,
2013-01-17 20:49:00,20.7,6.3,30.13,ENE,67,4.0,9.0,53,0.01,,SKC,0.38,VWS V13.01,2013-01-18 01:49:00,
2013-01-17 20:50:00,20.7,6.3,30.13,ENE,61,6.0,9.0,53,0.01,,SKC,0.38,VWS V13.01,2013-01-18 01:50:00,
2013-01-17 20:51:00,20.6,5.8,30.13,NE,42,3.0,9.0,52,0.01,,SKC,0.38,VWS V13.01,2013-01-18 01:51:00,
2013-01-17 20:52:00,20.9,6.1,30.14,ENE,71,4.0,9.0,52,0.00,,SKC,0.37,VWS V13.01,2013-01-18 01:52:00,
2013-01-17 20:53:00,20.6,5.8,30.13,ESE,107,5.0,10.0,52,0.01,,SKC,0.38,VWS V13.01,2013-01-18 01:53:00,
2013-01-17 20:54:00,20.5,5.7,30.13,NE,44,3.0,10.0,52,0.01,,SKC,0.38,VWS V13.01,2013-01-18 01:54:00,
2013-01-17 20:55:00,20.5,6.5,30.13,NE,52,2.0,10.0,54,0.01,,SKC,0.38,VWS V13.01,2013-01-18 01:55:00,
2013-01-17 20:56:00,20.5,6.5,30.13,NNE,24,3.0,10.0,54,0.01,,SKC,0.38,VWS V13.01,2013-01-18 01:56:00,
2013-01-17 20:57:00,20.7,6.3,30.14,NNE,33,2.0,9.0,53,0.01,,SKC,0.38,VWS V13.01,2013-01-18 01:57:00,
2013-01-17 20:58:00,20.4,6.8,30.12,ENE,62,5.0,10.0,55,0.01,,SKC,0.38,VWS V13.01,2013-01-18 01:58:00,
2013-01-17 20:59:00,20.3,6.7,30.12,NE,55,5.0,10.0,55,0.01,,SKC,0.38,VWS V13.01,2013-01-18 01:59:00,
2013-01-17 21:00:00,20.3,6.3,30.12,NE,53,4.0,10.0,54,0.01,,SKC,0.38,VWS V13.01,2013-01-18 02:00:00,
2013-01-17 21:01:00,20.2,6.6,30.12,NE,55,6.0,6.0,55,0.01,,SKC,0.38,VWS V13.01,2013-01-18 02:01:00,
2013-01-17 21:02:00,20.6,5.3,30.13,ENE,59,3.0,9.0,51,0.01,,SKC,0.38,VWS V13.01,2013-01-18 02:02:00,
2013-01-17 21:03:00,20.2,6.2,30.12,East,82,4.0,9.0,54,0.01,,SKC,0.38,VWS V13.01,2013-01-18 02:03:00,
2013-01-17 21:04:00,20.1,6.1,30.12,NE,48,3.0,10.0,54,0.01,,SKC,0.38,VWS V13.01,2013-01-18 02:04:00,
2013-01-17 21:05:00,20.0,6.0,30.12,NE,42,4.0,10.0,54,0.01,,SKC,0.38,VWS V13.01,2013-01-18 02:05:00,
2013-01-17 21:06:00,20.0,6.0,30.12,NE,43,5.0,10.0,54,0.01,,SKC,0.38,VWS V13.01,2013-01-18 02:06:00,
2013-01-17 21:07:00,20.4,6.8,30.12,NE,51,4.0,10.0,55,0.01,,SKC,0.38,VWS V13.01,2013-01-18 02:07:00,
2013-01-17 21:08:00,19.9,6.3,30.12,ENE,72,3.0,10.0,55,0.01,,SKC,0.38,VWS V13.01,2013-01-18 02:08:00,
2013-01-17 21:09:00,19.9,6.3,30.12,ENE,58,3.0,10.0,55,0.01,,SKC,0.38,VWS V13.01,2013-01-18 02:09:00,
2013-01-17 21:10:00,19.9,5.9,30.12,NE,49,9.0,10.0,54,0.01,,SKC,0.38,VWS V13.01,2013-01-18 02:10:00,
2013-01-17 21:11:00,19.8,5.8,30.12,ENE,60,3.0,10.0,54,0.01,,SKC,0.38,VWS V13.01,2013-01-18 02:11:00,
2013-01-17 21:12:00,19.8,6.3,30.11,NE,53,6.0,10.0,55,0.01,,SKC,0.38,VWS V13.01,2013-01-18 02:12:00,
2013-01-17 21:13:00,20.2,6.2,30.12,NE,37,5.0,9.0,54,0.01,,SKC,0.38,VWS V13.01,2013-01-18 02:13:00,
2013-01-17 21:14:00,19.7,6.6,30.11,NE,46,4.0,10.0,56,0.01,,SKC,0.38,VWS V13.01,2013-01-18 02:14:00,
2013-01-17 21:15:00,19.7,6.6,30.11,NE,45,3.0,10.0,56,0.01,,SKC,0.38,VWS V13.01,2013-01-18 02:15:00,
2013-01-17 21:16:00,19.7,6.6,30.10,NNE,13,4.0,10.0,56,0.01,,SKC,0.38,VWS V13.01,2013-01-18 02:16:00,
2013-01-17 21:17:00,19.7,6.6,30.11,NE,56,5.0,10.0,56,0.01,,SKC,0.38,VWS V13.01,2013-01-18 02:17:00,
2013-01-17 21:18:00,19.9,6.3,30.12,ENE,74,4.0,10.0,55,0.01,,SKC,0.38,VWS V13.01,2013-01-18 02:18:00,
2013-01-17 21:19:00,19.7,6.2,30.11,ENE,74,8.0,10.0,55,0.01,,SKC,0.38,VWS V13.01,2013-01-18 02:19:00,
2013-01-17 21:20:00,19.7,6.2,30.11,NE,43,4.0,11.0,55,0.01,,SKC,0.38,VWS V13.01,2013-01-18 02:20:00,
2013-01-17 21:21:00,19.7,6.2,30.12,NE,40,3.0,11.0,55,0.01,,SKC,0.38,VWS V13.01,2013-01-18 02:21:00,
2013-01-17 21:22:00,19.6,6.5,30.12,NNE,26,1.0,11.0,56,0.01,,SKC,0.38,VWS V13.01,2013-01-18 02:22:00,
2013-01-17 21:23:00,19.7,6.2,30.11,NE,47,5.0,10.0,55,0.01,,SKC,0.38,VWS V13.01,2013-01-18 02:23:00,
2013-01-17 21:24:00,19.6,6.5,30.12,NE,53,0.0,11.0,56,0.01,,SKC,0.38,VWS V13.01,2013-01-18 02:24:00,
2013-01-17 21:25:00,19.5,6.0,30.12,ENE,61,2.0,11.0,55,0.01,,SKC,0.38,VWS V13.01,2013-01-18 02:25:00,
2013-01-17 21:26:00,19.5,6.0,30.11,NNE,31,3.0,11.0,55,0.01,,SKC,0.38,VWS V13.01,2013-01-18 02:26:00,
2013-01-17 21:27:00,19.4,5.9,30.11,NNE,32,1.0,11.0,55,0.01,,SKC,0.38,VWS V13.01,2013-01-18 02:27:00,
2013-01-17 21:28:00,19.7,6.6,30.11,ENE,60,3.0,10.0,56,0.01,,SKC,0.38,VWS V13.01,2013-01-18 02:28:00,
2013-01-17 21:29:00,19.4,6.3,30.11,NE,52,4.0,11.0,56,0.01,,SKC,0.38,VWS V13.01,2013-01-18 02:29:00,
2013-01-17 21:30:00,19.4,5.9,30.11,NE,37,5.0,11.0,55,0.01,,SKC,0.38,VWS V13.01,2013-01-18 02:30:00,
2013-01-17 21:31:00,19.3,5.8,30.11,NE,46,4.0,6.0,55,0.01,,SKC,0.38,VWS V13.01,2013-01-18 02:31:00,
2013-01-17 21:32:00,19.3,6.2,30.11,ENE,68,6.0,9.0,56,0.01,,SKC,0.38,VWS V13.01,2013-01-18 02:32:00,
2013-01-17 21:33:00,19.6,6.1,30.12,NE,55,2.0,11.0,55,0.01,,SKC,0.38,VWS V13.01,2013-01-18 02:33:00,
2013-01-17 21:34:00,19.2,6.1,30.11,ENE,78,5.0,9.0,56,0.01,,SKC,0.38,VWS V13.01,2013-01-18 02:34:00,
2013-01-17 21:35:00,19.2,6.1,30.11,NE,49,1.0,9.0,56,0.01,,SKC,0.38,VWS V13.01,2013-01-18 02:35:00,
2013-01-17 21:36:00,19.1,6.0,30.12,NNE,17,6.0,10.0,56,0.01,,SKC,0.38,VWS V13.01,2013-01-18 02:36:00,
2013-01-17 21:37:00,19.1,5.2,30.12,ENE,76,4.0,10.0,54,0.01,,SKC,0.38,VWS V13.01,2013-01-18 02:37:00,
2013-01-17 21:38:00,19.4,6.7,30.11,NE,51,5.0,11.0,57,0.01,,SKC,0.38,VWS V13.01,2013-01-18 02:38:00,
2013-01-17 21:39:00,19.0,4.7,30.12,NNE,22,3.0,10.0,53,0.01,,SKC,0.38,VWS V13.01,2013-01-18 02:39:00,
2013-01-17 21:40:00,19.0,4.7,30.12,NE,42,4.0,10.0,53,0.01,,SKC,0.38,VWS V13.01,2013-01-18 02:40:00,
2013-01-17 21:41:00,18.9,4.6,30.12,NE,48,3.0,10.0,53,0.01,,SKC,0.38,VWS V13.01,2013-01-18 02:41:00,
2013-01-17 21:42:00,18.9,5.0,30.12,NNE,29,3.0,10.0,54,0.01,,SKC,0.38,VWS V13.01,2013-01-18 02:42:00,
2013-01-17 21:43:00,18.8,4.9,30.12,NE,54,8.0,10.0,54,0.01,,SKC,0.38,VWS V13.01,2013-01-18 02:43:00,
2013-01-17 21:44:00,19.2,6.1,30.11,NE,55,1.0,9.0,56,0.01,,SKC,0.38,VWS V13.01,2013-01-18 02:44:00,
2013-01-17 21:45:00,18.8,5.3,30.12,NNE,24,0.0,10.0,55,0.01,,SKC,0.38,VWS V13.01,2013-01-18 02:45:00,
2013-01-17 21:46:00,18.8,5.3,30.12,NE,55,2.0,10.0,55,0.01,,SKC,0.38,VWS V13.01,2013-01-18 02:46:00,
2013-01-17 21:47:00,18.8,4.9,30.12,NE,47,3.0,10.0,54,0.01,,SKC,0.38,VWS V13.01,2013-01-18 02:47:00,
2013-01-17 21:48:00,18.8,5.3,30.12,NE,53,5.0,10.0,55,0.01,,SKC,0.38,VWS V13.01,2013-01-18 02:48:00,
2013-01-17 21:49:00,19.0,4.7,30.12,NNE,22,3.0,10.0,53,0.01,,SKC,0.38,VWS V13.01,2013-01-18 02:49:00,
2013-01-17 21:50:00,18.8,5.3,30.13,NNE,30,3.0,10.0,55,0.01,,SKC,0.38,VWS V13.01,2013-01-18 02:50:00,
2013-01-17 21:51:00,18.7,5.2,30.14,North,10,1.0,10.0,55,0.01,,SKC,0.38,VWS V13.01,2013-01-18 02:51:00,
2013-01-17 21:52:00,18.7,4.8,30.13,NE,51,2.0,10.0,54,0.01,,SKC,0.38,VWS V13.01,2013-01-18 02:52:00,
2013-01-17 21:53:00,18.7,4.8,30.13,NE,50,3.0,10.0,54,0.01,,SKC,0.38,VWS V13.01,2013-01-18 02:53:00,
2013-01-17 21:54:00,18.8,4.9,30.12,NNW,336,4.0,10.0,54,0.01,,SKC,0.38,VWS V13.01,2013-01-18 02:54:00,
2013-01-17 21:55:00,18.7,5.2,30.13,North,5,1.0,10.0,55,0.01,,SKC,0.38,VWS V13.01,2013-01-18 02:55:00,
2013-01-17 21:56:00,18.6,5.1,30.12,NE,51,0.0,10.0,55,0.01,,SKC,0.38,VWS V13.01,2013-01-18 02:56:00,
2013-01-17 21:57:00,18.6,5.5,30.12,NE,53,4.0,10.0,56,0.01,,SKC,0.38,VWS V13.01,2013-01-18 02:57:00,
2013-01-17 21:58:00,18.6,5.5,30.12,NE,41,3.0,10.0,56,0.01,,SKC,0.38,VWS V13.01,2013-01-18 02:58:00,
2013-01-17 21:59:00,18.8,4.9,30.13,NE,53,2.0,10.0,54,0.01,,SKC,0.38,VWS V13.01,2013-01-18 02:59:00,
2013-01-17 22:00:00,18.6,5.5,30.12,NNE,31,4.0,10.0,56,0.01,,SKC,0.38,VWS V13.01,2013-01-18 03:00:00,
2013-01-17 22:01:00,18.6,5.5,30.12,NNE,23,2.0,4.0,56,0.00,,SKC,0.38,VWS V13.01,2013-01-18 03:01:00,
2013-01-17 22:02:00,18.5,5.0,30.12,NNE,25,1.0,4.0,55,0.00,,SKC,0.38,VWS V13.01,2013-01-18 03:02:00,
2013-01-17 22:03:00,18.5,5.4,30.12,NNE,17,1.0,4.0,56,0.00,,SKC,0.38,VWS V13.01,2013-01-18 03:03:00,
2013-01-17 22:04:00,18.7,4.8,30.13,NNE,23,4.0,10.0,54,0.01,,SKC,0.38,VWS V13.01,2013-01-18 03:04:00,
2013-01-17 22:05:00,18.5,4.6,30.11,NE,55,4.0,9.0,54,0.00,,SKC,0.38,VWS V13.01,2013-01-18 03:05:00,
2013-01-17 22:06:00,18.4,4.6,30.12,NE,51,3.0,9.0,54,0.00,,SKC,0.38,VWS V13.01,2013-01-18 03:06:00,
2013-01-17 22:07:00,18.4,4.6,30.12,ENE,61,5.0,9.0,54,0.00,,SKC,0.38,VWS V13.01,2013-01-18 03:07:00,
2013-01-17 22:08:00,18.3,3.6,30.12,NE,51,1.0,9.0,52,0.00,,SKC,0.38,VWS V13.01,2013-01-18 03:08:00,
2013-01-17 22:09:00,18.6,5.5,30.12,ENE,74,4.0,10.0,56,0.01,,SKC,0.38,VWS V13.01,2013-01-18 03:09:00,
2013-01-17 22:10:00,18.2,3.5,30.12,NE,36,3.0,9.0,52,0.00,,SKC,0.38,VWS V13.01,2013-01-18 03:10:00,
2013-01-17 22:11:00,18.2,4.0,30.12,North,355,6.0,9.0,53,0.00,,SKC,0.38,VWS V13.01,2013-01-18 03:11:00,
2013-01-17 22:12:00,18.1,3.5,30.12,ENE,67,6.0,9.0,52,0.00,,SKC,0.38,VWS V13.01,2013-01-18 03:12:00,
2013-01-17 22:13:00,18.1,3.5,30.12,NNE,15,3.0,9.0,52,0.00,,SKC,0.38,VWS V13.01,2013-01-18 03:13:00,
2013-01-17 22:14:00,18.5,5.0,30.11,ENE,71,3.0,9.0,55,0.00,,SKC,0.38,VWS V13.01,2013-01-18 03:14:00,
2013-01-17 22:15:00,18.0,4.2,30.12,NE,42,5.0,9.0,54,0.00,,SKC,0.38,VWS V13.01,2013-01-18 03:15:00,
2013-01-17 22:16:00,18.0,4.2,30.12,NE,40,3.0,9.0,54,0.00,,SKC,0.38,VWS V13.01,2013-01-18 03:16:00,
2013-01-17 22:17:00,18.0,4.6,30.12,NE,53,5.0,9.0,55,0.00,,SKC,0.38,VWS V13.01,2013-01-18 03:17:00,
2013-01-17 22:18:00,18.0,4.6,30.12,NNE,13,5.0,9.0,55,0.00,,SKC,0.38,VWS V13.01,2013-01-18 03:18:00,
2013-01-17 22:19:00,18.3,3.6,30.12,NE,51,0.0,9.0,52,0.00,,SKC,0.38,VWS V13.01,2013-01-18 03:19:00,
2013-01-17 22:20:00,17.9,4.1,30.12,ENE,65,6.0,10.0,54,0.00,,SKC,0.38,VWS V13.01,2013-01-18 03:20:00,
2013-01-17 22:21:00,17.9,3.7,30.11,NE,55,4.0,10.0,53,0.00,,SKC,0.38,VWS V13.01,2013-01-18 03:21:00,
2013-01-17 22:22:00,17.8,3.6,30.11,NE,48,7.0,10.0,53,0.00,,SKC,0.38,VWS V13.01,2013-01-18 03:22:00,
2013-01-17 22:23:00,17.7,3.5,30.11,North,355,6.0,10.0,53,0.00,,SKC,0.38,VWS V13.01,2013-01-18 03:23:00,
2013-01-17 22:24:00,18.1,3.9,30.12,ENE,63,4.0,9.0,53,0.00,,SKC,0.38,VWS V13.01,2013-01-18 03:24:00,
2013-01-17 22:25:00,17.5,2.9,30.11,NE,51,5.0,15.0,52,0.00,,SKC,0.38,VWS V13.01,2013-01-18 03:25:00,
2013-01-17 22:26:00,17.5,2.9,30.11,ENE,57,7.0,15.0,52,0.00,,SKC,0.38,VWS V13.01,2013-01-18 03:26:00,
2013-01-17 22:27:00,17.4,3.2,30.11,NE,49,9.0,15.0,53,0.00,,SKC,0.38,VWS V13.01,2013-01-18 03:27:00,
2013-01-17 22:28:00,17.4,3.2,30.11,ENE,71,5.0,15.0,53,0.00,,SKC,0.38,VWS V13.01,2013-01-18 03:28:00,
2013-01-17 22:29:00,18.0,4.6,30.12,NE,56,4.0,10.0,55,0.00,,SKC,0.38,VWS V13.01,2013-01-18 03:29:00,
2013-01-17 22:30:00,17.3,3.5,30.11,ENE,57,6.0,15.0,54,0.00,,SKC,0.38,VWS V13.01,2013-01-18 03:30:00,
2013-01-17 22:31:00,17.3,3.5,30.11,North,351,4.0,7.0,54,0.00,,SKC,0.38,VWS V13.01,2013-01-18 03:31:00,
2013-01-17 22:32:00,17.2,3.0,30.11,NE,45,4.0,10.0,53,0.00,,SKC,0.38,VWS V13.01,2013-01-18 03:32:00,
2013-01-17 22:33:00,17.2,3.4,30.11,NE,55,2.0,10.0,54,0.00,,SKC,0.38,VWS V13.01,2013-01-18 03:33:00,
2013-01-17 22:34:00,17.6,3.4,30.11,North,9,6.0,15.0,53,0.00,,SKC,0.38,VWS V13.01,2013-01-18 03:34:00,
2013-01-17 22:35:00,17.2,3.0,30.11,NE,49,7.0,10.0,53,0.00,,SKC,0.38,VWS V13.01,2013-01-18 03:35:00,
2013-01-17 22:36:00,17.1,2.9,30.11,North,9,5.0,13.0,53,0.00,,SKC,0.38,VWS V13.01,2013-01-18 03:36:00,
2013-01-17 22:37:00,17.1,2.5,30.11,NE,36,1.0,13.0,52,0.00,,SKC,0.38,VWS V13.01,2013-01-18 03:37:00,
2013-01-17 22:38:00,17.1,2.9,30.11,ENE,63,5.0,13.0,53,0.00,,SKC,0.38,VWS V13.01,2013-01-18 03:38:00,
2013-01-17 22:39:00,17.3,3.1,30.11,NE,45,3.0,15.0,53,0.00,,SKC,0.38,VWS V13.01,2013-01-18 03:39:00,
2013-01-17 22:40:00,17.0,2.8,30.11,ENE,64,5.0,13.0,53,0.00,,SKC,0.38,VWS V13.01,2013-01-18 03:40:00,
2013-01-17 22:41:00,17.0,2.8,30.11,East,92,3.0,13.0,53,0.00,,SKC,0.38,VWS V13.01,2013-01-18 03:41:00,
2013-01-17 22:42:00,17.0,3.2,30.12,NE,54,6.0,13.0,54,0.00,,SKC,0.38,VWS V13.01,2013-01-18 03:42:00,
2013-01-17 22:43:00,17.0,2.8,30.12,ENE,63,5.0,13.0,53,0.00,,SKC,0.38,VWS V13.01,2013-01-18 03:43:00,
2013-01-17 22:44:00,17.0,2.8,30.12,ENE,57,3.0,13.0,53,0.00,,SKC,0.38,VWS V13.01,2013-01-18 03:44:00,
2013-01-17 22:45:00,17.0,3.2,30.12,NE,56,4.0,13.0,54,0.00,,SKC,0.38,VWS V13.01,2013-01-18 03:45:00,
2013-01-17 22:46:00,17.1,2.9,30.11,NNE,26,13.0,13.0,53,0.00,,SKC,0.38,VWS V13.01,2013-01-18 03:46:00,
2013-01-17 22:47:00,17.0,3.6,30.12,East,83,3.0,13.0,55,0.00,,SKC,0.38,VWS V13.01,2013-01-18 03:47:00,
2013-01-17 22:48:00,17.0,3.6,30.12,ENE,64,6.0,13.0,55,0.00,,SKC,0.38,VWS V13.01,2013-01-18 03:48:00,
2013-01-17 22:49:00,17.0,4.0,30.12,ENE,60,4.0,13.0,56,0.00,,SKC,0.38,VWS V13.01,2013-01-18 03:49:00,
2013-01-17 22:50:00,17.0,4.0,30.12,NE,54,4.0,13.0,56,0.00,,SKC,0.38,VWS V13.01,2013-01-18 03:50:00,
2013-01-17 22:51:00,17.0,2.8,30.11,NE,56,2.0,13.0,53,0.00,,SKC,0.38,VWS V13.01,2013-01-18 03:51:00,
2013-01-17 22:52:00,16.9,4.3,30.13,ENE,61,4.0,13.0,57,0.00,,SKC,0.38,VWS V13.01,2013-01-18 03:52:00,
2013-01-17 22:53:00,16.9,3.9,30.12,ENE,60,6.0,13.0,56,0.00,,SKC,0.38,VWS V13.01,2013-01-18 03:53:00,
2013-01-17 22:54:00,16.9,3.9,30.12,North,360,1.0,13.0,56,0.00,,SKC,0.38,VWS V13.01,2013-01-18 03:54:00,
2013-01-17 22:55:00,16.9,4.3,30.12,NNE,32,4.0,13.0,57,0.00,,SKC,0.38,VWS V13.01,2013-01-18 03:55:00,
2013-01-17 22:56:00,17.0,3.2,30.12,NE,55,2.0,13.0,54,0.00,,SKC,0.38,VWS V13.01,2013-01-18 03:56:00,
2013-01-17 22:57:00,16.8,3.8,30.12,NNE,30,3.0,13.0,56,0.00,,SKC,0.38,VWS V13.01,2013-01-18 03:57:00,
2013-01-17 22:58:00,16.7,3.7,30.12,East,79,6.0,13.0,56,0.00,,SKC,0.38,VWS V13.01,2013-01-18 03:58:00,
2013-01-17 22:59:00,16.7,3.7,30.13,East,79,4.0,13.0,56,0.00,,SKC,0.38,VWS V13.01,2013-01-18 03:59:00,
2013-01-17 23:00:00,16.6,3.3,30.13,ENE,71,3.0,13.0,55,0.00,,SKC,0.38,VWS V13.01,2013-01-18 04:00:00,
2013-01-17 23:01:00,16.9,4.3,30.12,North,350,2.0,13.0,57,0.00,,SKC,0.38,VWS V13.01,2013-01-18 04:01:00,
2013-01-17 23:02:00,16.5,3.5,30.13,ENE,59,4.0,5.0,56,0.00,,SKC,0.38,VWS V13.01,2013-01-18 04:02:00,
2013-01-17 23:03:00,16.5,3.5,30.13,NE,53,3.0,5.0,56,0.00,,SKC,0.38,VWS V13.01,2013-01-18 04:03:00,
2013-01-17 23:04:00,16.4,3.8,30.13,NE,53,0.0,5.0,57,0.00,,SKC,0.38,VWS V13.01,2013-01-18 04:04:00,
2013-01-17 23:05:00,16.4,3.8,30.13,ENE,60,5.0,5.0,57,0.00,,SKC,0.38,VWS V13.01,2013-01-18 04:05:00,
2013-01-17 23:06:00,16.8,4.2,30.12,NE,49,5.0,13.0,57,0.00,,SKC,0.38,VWS V13.01,2013-01-18 04:06:00,
2013-01-17 23:07:00,16.4,3.5,30.12,ENE,61,5.0,9.0,56,0.00,,SKC,0.38,VWS V13.01,2013-01-18 04:07:00,
2013-01-17 23:08:00,16.4,3.1,30.12,NE,40,4.0,9.0,55,0.00,,SKC,0.38,VWS V13.01,2013-01-18 04:08:00,
2013-01-17 23:09:00,16.3,3.4,30.13,NE,51,3.0,9.0,56,0.00,,SKC,0.38,VWS V13.01,2013-01-18 04:09:00,
2013-01-17 23:10:00,16.3,3.0,30.13,East,82,7.0,10.0,55,0.00,,SKC,0.38,VWS V13.01,2013-01-18 04:10:00,
2013-01-17 23:11:00,16.6,3.3,30.13,NE,55,1.0,4.0,55,0.00,,SKC,0.38,VWS V13.01,2013-01-18 04:11:00,
2013-01-17 23:12:00,16.2,2.9,30.14,ENE,62,4.0,10.0,55,0.00,,SKC,0.38,VWS V13.01,2013-01-18 04:12:00,
2013-01-17 23:13:00,16.2,3.3,30.13,ENE,57,6.0,10.0,56,0.00,,SKC,0.38,VWS V13.01,2013-01-18 04:13:00,
2013-01-17 23:14:00,16.1,3.2,30.13,NE,51,1.0,10.0,56,0.00,,SKC,0.38,VWS V13.01,2013-01-18 04:14:00,
2013-01-17 23:15:00,16.1,2.4,30.13,NE,53,6.0,10.0,54,0.00,,SKC,0.38,VWS V13.01,2013-01-18 04:15:00,
2013-01-17 23:16:00,16.4,4.2,30.13,NE,55,5.0,5.0,58,0.00,,SKC,0.38,VWS V13.01,2013-01-18 04:16:00,
2013-01-17 23:17:00,16.0,2.3,30.13,NNE,21,5.0,10.0,54,0.00,,SKC,0.38,VWS V13.01,2013-01-18 04:17:00,
2013-01-17 23:18:00,16.0,1.9,30.13,ENE,59,4.0,10.0,53,0.00,,SKC,0.38,VWS V13.01,2013-01-18 04:18:00,
2013-01-17 23:19:00,16.0,2.3,30.13,ENE,69,0.0,10.0,54,0.00,,SKC,0.38,VWS V13.01,2013-01-18 04:19:00,
2013-01-17 23:20:00,15.9,2.2,30.13,ENE,59,4.0,10.0,54,0.00,,SKC,0.38,VWS V13.01,2013-01-18 04:20:00,
2013-01-17 23:21:00,16.2,2.9,30.13,ENE,71,2.0,10.0,55,0.00,,SKC,0.38,VWS V13.01,2013-01-18 04:21:00,
2013-01-17 23:22:00,15.9,2.2,30.14,NE,48,4.0,10.0,54,0.00,,SKC,0.38,VWS V13.01,2013-01-18 04:22:00,
2013-01-17 23:23:00,15.9,2.2,30.13,NE,49,3.0,10.0,54,0.00,,SKC,0.38,VWS V13.01,2013-01-18 04:23:00,
2013-01-17 23:24:00,15.9,1.8,30.13,ENE,59,3.0,10.0,53,0.00,,SKC,0.38,VWS V13.01,2013-01-18 04:24:00,
2013-01-17 23:25:00,15.8,2.1,30.13,NE,40,4.0,10.0,54,0.00,,SKC,0.38,VWS V13.01,2013-01-18 04:25:00,
2013-01-17 23:26:00,15.8,1.7,30.13,NE,53,4.0,10.0,53,0.00,,SKC,0.38,VWS V13.01,2013-01-18 04:26:00,
2013-01-17 23:27:00,16.0,2.3,30.14,NNE,18,3.0,10.0,54,0.00,,SKC,0.38,VWS V13.01,2013-01-18 04:27:00,
2013-01-17 23:28:00,15.8,1.7,30.13,East,86,3.0,10.0,53,0.00,,SKC,0.38,VWS V13.01,2013-01-18 04:28:00,
2013-01-17 23:29:00,15.8,1.7,30.13,NE,47,4.0,10.0,53,0.00,,SKC,0.38,VWS V13.01,2013-01-18 04:29:00,
2013-01-17 23:30:00,15.7,1.6,30.13,ENE,58,1.0,10.0,53,0.00,,SKC,0.38,VWS V13.01,2013-01-18 04:30:00,
2013-01-17 23:31:00,15.7,1.2,30.12,ENE,60,2.0,4.0,52,0.00,,SKC,0.38,VWS V13.01,2013-01-18 04:31:00,
2013-01-17 23:32:00,15.9,2.2,30.14,NE,42,4.0,10.0,54,0.00,,SKC,0.38,VWS V13.01,2013-01-18 04:32:00,
2013-01-17 23:33:00,15.7,1.6,30.12,ENE,62,7.0,7.0,53,0.00,,SKC,0.38,VWS V13.01,2013-01-18 04:33:00,
2013-01-17 23:34:00,15.6,1.1,30.13,NNE,24,4.0,13.0,52,0.00,,SKC,0.38,VWS V13.01,2013-01-18 04:34:00,
2013-01-17 23:35:00,15.6,1.1,30.13,North,355,3.0,13.0,52,0.00,,SKC,0.38,VWS V13.01,2013-01-18 04:35:00,
2013-01-17 23:36:00,15.6,1.5,30.13,ENE,59,4.0,13.0,53,0.00,,SKC,0.38,VWS V13.01,2013-01-18 04:36:00,
2013-01-17 23:37:00,15.8,1.7,30.13,NE,54,4.0,10.0,53,0.00,,SKC,0.38,VWS V13.01,2013-01-18 04:37:00,
2013-01-17 23:38:00,15.6,1.1,30.12,ENE,75,3.0,13.0,52,0.00,,SKC,0.38,VWS V13.01,2013-01-18 04:38:00,
2013-01-17 23:39:00,15.6,1.1,30.11,ENE,63,3.0,13.0,52,0.00,,SKC,0.38,VWS V13.01,2013-01-18 04:39:00,
2013-01-17 23:40:00,15.6,1.5,30.11,NE,55,4.0,13.0,53,0.00,,SKC,0.38,VWS V13.01,2013-01-18 04:40:00,
2013-01-17 23:41:00,15.5,1.4,30.11,NE,56,1.0,13.0,53,0.00,,SKC,0.38,VWS V13.01,2013-01-18 04:41:00,
2013-01-17 23:42:00,15.7,1.2,30.12,NE,40,4.0,6.0,52,0.00,,SKC,0.38,VWS V13.01,2013-01-18 04:42:00,
2013-01-17 23:43:00,15.5,1.0,30.12,ENE,60,3.0,13.0,52,0.00,,SKC,0.38,VWS V13.01,2013-01-18 04:43:00,
2013-01-17 23:44:00,15.5,1.0,30.12,NE,55,2.0,13.0,52,0.00,,SKC,0.38,VWS V13.01,2013-01-18 04:44:00,
2013-01-17 23:45:00,15.5,1.0,30.12,NE,45,5.0,13.0,52,0.00,,SKC,0.38,VWS V13.01,2013-01-18 04:45:00,
2013-01-17 23:46:00,15.5,1.0,30.12,ENE,75,6.0,13.0,52,0.00,,SKC,0.38,VWS V13.01,2013-01-18 04:46:00,
2013-01-17 23:47:00,15.6,1.5,30.13,NE,54,4.0,13.0,53,0.00,,SKC,0.38,VWS V13.01,2013-01-18 04:47:00,
2013-01-17 23:48:00,15.5,1.0,30.12,ENE,63,3.0,13.0,52,0.00,,SKC,0.38,VWS V13.01,2013-01-18 04:48:00,
2013-01-17 23:49:00,15.4,0.1,30.12,ENE,67,4.0,13.0,50,0.00,,SKC,0.38,VWS V13.01,2013-01-18 04:49:00,
2013-01-17 23:51:00,15.4,0.1,30.11,ENE,69,6.0,14.0,50,0.00,,SKC,0.38,VWS V13.01,2013-01-18 04:51:00,
2013-01-17 23:52:00,15.5,1.0,30.12,ENE,61,0.0,13.0,52,0.00,,SKC,0.38,VWS V13.01,2013-01-18 04:52:00,
2013-01-17 23:53:00,15.3,0.0,30.11,NNE,28,5.0,14.0,50,0.00,,SKC,0.38,VWS V13.01,2013-01-18 04:53:00,
2013-01-17 23:54:00,15.3,0.0,30.12,North,360,5.0,14.0,50,0.00,,SKC,0.38,VWS V13.01,2013-01-18 04:54:00,
2013-01-17 23:55:00,15.3,0.0,30.12,NNE,15,3.0,14.0,50,0.00,,SKC,0.38,VWS V13.01,2013-01-18 04:55:00,
2013-01-17 23:56:00,15.3,0.4,30.13,NE,47,4.0,14.0,51,0.00,,SKC,0.38,VWS V13.01,2013-01-18 04:56:00,
2013-01-17 23:57:00,15.4,0.9,30.12,NE,41,0.0,13.0,52,0.00,,SKC,0.38,VWS V13.01,2013-01-18 04:57:00,
2013-01-17 23:58:00,15.3,0.8,30.12,NE,49,7.0,14.0,52,0.00,,SKC,0.38,VWS V13.01,2013-01-18 04:58:00,
2013-01-17 23:59:00,15.3,0.4,30.11,ENE,59,9.0,14.0,51,0.00,,SKC,0.38,VWS V13.01,2013-01-18 04:59:00,